Wetterdaten: Mittwoch, 01.06.2016
Datum Zeit Temp. A. Feuchte A. Luftdruck Regen Wind Richtung Richtung Sonnenschein ET UV Solar Taupunkt Windchill Windben Empfang
01.06.2016 00:00 12,8 C 93 % 1011,3 hPa 0,0 l/m 2,9 km/h (1 Bft) W-SW 240 0 min 0,000 mm 0,0 UV-I 0 W/m 11,7 C 12,8 C 4,8 km/h (1 Bft) 98,25 %
01.06.2016 00:02 12,8 C 93 % 1011,3 hPa 0,0 l/m 3,2 km/h (1 Bft) W-SW 240 0 min 0,000 mm 0,0 UV-I 0 W/m 11,7 C 12,8 C 3,2 km/h (1 Bft) 100,00 %
01.06.2016 00:03 12,8 C 93 % 1011,3 hPa 0,0 l/m 4,1 km/h (1 Bft) W-SW 246 0 min 0,000 mm 0,0 UV-I 0 W/m 11,7 C 12,8 C 6,4 km/h (2 Bft) 100,00 %
01.06.2016 00:04 12,8 C 93 % 1011,3 hPa 0,0 l/m 3,2 km/h (1 Bft) W-SW 249 0 min 0,000 mm 0,0 UV-I 0 W/m 11,7 C 12,8 C 4,8 km/h (1 Bft) 95,65 %
01.06.2016 00:05 12,8 C 93 % 1011,3 hPa 0,0 l/m 2,7 km/h (1 Bft) W-SW 254 0 min 0,000 mm 0,0 UV-I 0 W/m 11,7 C 12,8 C 4,8 km/h (1 Bft) 100,00 %
01.06.2016 00:06 12,8 C 93 % 1011,3 hPa 0,0 l/m 2,0 km/h (1 Bft) W-SW 254 0 min 0,000 mm 0,0 UV-I 0 W/m 11,7 C 12,8 C 3,2 km/h (1 Bft) 100,00 %
01.06.2016 00:07 12,8 C 93 % 1011,3 hPa 0,0 l/m 1,3 km/h (1 Bft) W-SW 254 0 min 0,000 mm 0,0 UV-I 0 W/m 11,7 C 12,8 C 3,2 km/h (1 Bft) 100,00 %
01.06.2016 00:08 12,8 C 93 % 1011,3 hPa 0,0 l/m 1,1 km/h (1 Bft) W-SW 254 0 min 0,000 mm 0,0 UV-I 0 W/m 11,7 C 12,8 C 1,6 km/h (1 Bft) 100,00 %
01.06.2016 00:09 12,8 C 93 % 1011,3 hPa 0,0 l/m 2,3 km/h (1 Bft) W-SW 254 0 min 0,000 mm 0,0 UV-I 0 W/m 11,7 C 12,8 C 3,2 km/h (1 Bft) 100,00 %
01.06.2016 00:10 12,8 C 93 % 1011,2 hPa 0,0 l/m 4,7 km/h (1 Bft) W-SW 246 0 min 0,000 mm 0,0 UV-I 0 W/m 11,7 C 12,8 C 8,0 km/h (2 Bft) 95,83 %
01.06.2016 00:11 12,8 C 93 % 1011,2 hPa 0,0 l/m 3,1 km/h (1 Bft) W-SW 246 0 min 0,000 mm 0,0 UV-I 0 W/m 11,7 C 12,8 C 4,8 km/h (1 Bft) 100,00 %
01.06.2016 00:12 12,8 C 93 % 1011,3 hPa 0,0 l/m 2,5 km/h (1 Bft) W-SW 247 0 min 0,000 mm 0,0 UV-I 0 W/m 11,7 C 12,8 C 4,8 km/h (1 Bft) 100,00 %
01.06.2016 00:13 12,8 C 93 % 1011,3 hPa 0,0 l/m 2,4 km/h (1 Bft) W-SW 247 0 min 0,000 mm 0,0 UV-I 0 W/m 11,7 C 12,8 C 4,8 km/h (1 Bft) 100,00 %
01.06.2016 00:14 12,8 C 93 % 1011,3 hPa 0,0 l/m 3,7 km/h (1 Bft) W-SW 247 0 min 0,000 mm 0,0 UV-I 0 W/m 11,7 C 12,8 C 4,8 km/h (1 Bft) 100,00 %
01.06.2016 00:15 12,8 C 93 % 1011,2 hPa 0,0 l/m 1,4 km/h (1 Bft) W-SW 247 0 min 0,000 mm 0,0 UV-I 0 W/m 11,7 C 12,8 C 3,2 km/h (1 Bft) 96,15 %
01.06.2016 00:16 12,8 C 93 % 1011,2 hPa 0,2 l/m 3,9 km/h (1 Bft) W-SW 247 0 min 0,000 mm 0,0 UV-I 0 W/m 11,7 C 12,8 C 4,8 km/h (1 Bft) 100,00 %
01.06.2016 00:17 12,8 C 93 % 1011,2 hPa 0,0 l/m 4,1 km/h (1 Bft) W-SW 254 0 min 0,000 mm 0,0 UV-I 0 W/m 11,7 C 12,8 C 6,4 km/h (2 Bft) 100,00 %
01.06.2016 00:18 12,8 C 93 % 1011,2 hPa 0,0 l/m 3,4 km/h (1 Bft) W-SW 254 0 min 0,000 mm 0,0 UV-I 0 W/m 11,7 C 12,8 C 4,8 km/h (1 Bft) 100,00 %
01.06.2016 00:19 12,8 C 93 % 1011,2 hPa 0,0 l/m 3,3 km/h (1 Bft) W-SW 254 0 min 0,000 mm 0,0 UV-I 0 W/m 11,7 C 12,8 C 4,8 km/h (1 Bft) 100,00 %
01.06.2016 00:20 12,8 C 93 % 1011,2 hPa 0,0 l/m 3,5 km/h (1 Bft) W-SW 254 0 min 0,000 mm 0,0 UV-I 0 W/m 11,7 C 12,8 C 4,8 km/h (1 Bft) 100,00 %
01.06.2016 00:21 12,8 C 93 % 1011,2 hPa 0,0 l/m 3,8 km/h (1 Bft) W-SW 256 0 min 0,000 mm 0,0 UV-I 0 W/m 11,7 C 12,8 C 4,8 km/h (1 Bft) 100,00 %
01.06.2016 00:22 12,8 C 93 % 1011,2 hPa 0,0 l/m 4,8 km/h (1 Bft) W-SW 243 0 min 0,000 mm 0,0 UV-I 0 W/m 11,7 C 12,8 C 6,4 km/h (2 Bft) 96,30 %
01.06.2016 00:23 12,8 C 93 % 1011,2 hPa 0,0 l/m 5,7 km/h (1 Bft) W-SW 245 0 min 0,000 mm 0,0 UV-I 0 W/m 11,7 C 12,8 C 8,0 km/h (2 Bft) 95,65 %
01.06.2016 00:24 12,8 C 93 % 1011,2 hPa 0,0 l/m 3,6 km/h (1 Bft) W-SW 245 0 min 0,000 mm 0,0 UV-I 0 W/m 11,7 C 12,8 C 6,4 km/h (2 Bft) 100,00 %
01.06.2016 00:25 12,8 C 93 % 1011,2 hPa 0,0 l/m 5,0 km/h (1 Bft) W-SW 246 0 min 0,000 mm 0,0 UV-I 0 W/m 11,7 C 12,8 C 11,3 km/h (2 Bft) 95,65 %
01.06.2016 00:26 12,8 C 93 % 1011,2 hPa 0,0 l/m 6,5 km/h (2 Bft) W-SW 246 0 min 0,000 mm 0,0 UV-I 0 W/m 11,7 C 12,8 C 8,0 km/h (2 Bft) 100,00 %
01.06.2016 00:27 12,8 C 93 % 1011,3 hPa 0,0 l/m 4,5 km/h (1 Bft) W-SW 246 0 min 0,000 mm 0,0 UV-I 0 W/m 11,7 C 12,8 C 6,4 km/h (2 Bft) 91,67 %
01.06.2016 00:28 12,8 C 93 % 1011,2 hPa 0,0 l/m 3,9 km/h (1 Bft) W 259 0 min 0,000 mm 0,0 UV-I 0 W/m 11,7 C 12,8 C 6,4 km/h (2 Bft) 97,14 %
01.06.2016 00:29 12,8 C 94 % 1011,2 hPa 0,0 l/m 4,8 km/h (1 Bft) SW 229 0 min 0,000 mm 0,0 UV-I 0 W/m 11,9 C 12,8 C 6,4 km/h (2 Bft) 91,67 %
01.06.2016 00:30 12,8 C 94 % 1011,2 hPa 0,0 l/m 4,2 km/h (1 Bft) W-SW 246 0 min 0,000 mm 0,0 UV-I 0 W/m 11,9 C 12,8 C 6,4 km/h (2 Bft) 100,00 %
01.06.2016 00:31 12,8 C 94 % 1011,2 hPa 0,0 l/m 4,5 km/h (1 Bft) SW 221 0 min 0,000 mm 0,0 UV-I 0 W/m 11,9 C 12,8 C 6,4 km/h (2 Bft) 96,30 %
01.06.2016 00:32 12,8 C 94 % 1011,2 hPa 0,2 l/m 4,8 km/h (1 Bft) SW 222 0 min 0,000 mm 0,0 UV-I 0 W/m 11,9 C 12,8 C 6,4 km/h (2 Bft) 100,00 %
01.06.2016 00:33 12,8 C 94 % 1011,2 hPa 0,0 l/m 4,8 km/h (1 Bft) SW 227 0 min 0,000 mm 0,0 UV-I 0 W/m 11,9 C 12,8 C 6,4 km/h (2 Bft) 91,67 %
01.06.2016 00:34 12,7 C 94 % 1011,2 hPa 0,0 l/m 4,3 km/h (1 Bft) SW 225 0 min 0,000 mm 0,0 UV-I 0 W/m 11,8 C 12,7 C 6,4 km/h (2 Bft) 95,65 %
01.06.2016 00:35 12,7 C 94 % 1011,2 hPa 0,0 l/m 3,3 km/h (1 Bft) S 189 0 min 0,000 mm 0,0 UV-I 0 W/m 11,8 C 12,7 C 6,4 km/h (2 Bft) 100,00 %
01.06.2016 00:36 12,7 C 94 % 1011,3 hPa 0,0 l/m 6,0 km/h (2 Bft) S-SW 196 0 min 0,000 mm 0,0 UV-I 0 W/m 11,8 C 12,7 C 8,0 km/h (2 Bft) 91,30 %
01.06.2016 00:37 12,7 C 94 % 1011,3 hPa 0,0 l/m 5,2 km/h (1 Bft) S-SW 200 0 min 0,000 mm 0,0 UV-I 0 W/m 11,8 C 12,7 C 6,4 km/h (2 Bft) 100,00 %
01.06.2016 00:38 12,7 C 94 % 1011,3 hPa 0,0 l/m 6,2 km/h (2 Bft) S-SW 194 0 min 0,000 mm 0,0 UV-I 0 W/m 11,8 C 12,7 C 9,7 km/h (2 Bft) 91,30 %
01.06.2016 00:39 12,7 C 94 % 1011,3 hPa 0,0 l/m 7,1 km/h (2 Bft) S-SW 211 0 min 0,000 mm 0,0 UV-I 0 W/m 11,8 C 12,3 C 8,0 km/h (2 Bft) 100,00 %
01.06.2016 00:40 12,7 C 94 % 1011,3 hPa 0,2 l/m 6,3 km/h (2 Bft) S-SW 213 0 min 0,000 mm 0,0 UV-I 0 W/m 11,8 C 12,7 C 8,0 km/h (2 Bft) 95,65 %
01.06.2016 00:41 12,7 C 94 % 1011,3 hPa 0,0 l/m 5,7 km/h (1 Bft) S 186 0 min 0,000 mm 0,0 UV-I 0 W/m 11,8 C 12,7 C 9,7 km/h (2 Bft) 95,83 %
01.06.2016 00:42 12,7 C 94 % 1011,3 hPa 0,0 l/m 8,2 km/h (2 Bft) SW 235 0 min 0,000 mm 0,0 UV-I 0 W/m 11,8 C 11,6 C 11,3 km/h (2 Bft) 100,00 %
01.06.2016 00:43 12,7 C 94 % 1011,3 hPa 0,0 l/m 5,5 km/h (1 Bft) SW 217 0 min 0,000 mm 0,0 UV-I 0 W/m 11,8 C 12,7 C 8,0 km/h (2 Bft) 95,83 %
01.06.2016 00:44 12,7 C 94 % 1011,2 hPa 0,2 l/m 4,6 km/h (1 Bft) S-SW 209 0 min 0,000 mm 0,0 UV-I 0 W/m 11,8 C 12,7 C 6,4 km/h (2 Bft) 95,65 %
01.06.2016 00:45 12,6 C 94 % 1011,2 hPa 0,0 l/m 6,9 km/h (2 Bft) S-SW 201 0 min 0,000 mm 0,0 UV-I 0 W/m 11,7 C 12,3 C 9,7 km/h (2 Bft) 96,30 %
01.06.2016 00:46 12,6 C 94 % 1011,2 hPa 0,0 l/m 4,3 km/h (1 Bft) SW 235 0 min 0,000 mm 0,0 UV-I 0 W/m 11,7 C 12,6 C 8,0 km/h (2 Bft) 100,00 %
01.06.2016 00:47 12,6 C 94 % 1011,2 hPa 0,0 l/m 5,2 km/h (1 Bft) SW 223 0 min 0,000 mm 0,0 UV-I 0 W/m 11,7 C 12,6 C 6,4 km/h (2 Bft) 95,83 %
01.06.2016 00:48 12,6 C 95 % 1011,2 hPa 0,2 l/m 4,9 km/h (1 Bft) SW 228 0 min 0,000 mm 0,0 UV-I 0 W/m 11,8 C 12,6 C 6,4 km/h (2 Bft) 100,00 %
01.06.2016 00:49 12,6 C 95 % 1011,2 hPa 0,0 l/m 6,4 km/h (2 Bft) SW 232 0 min 0,000 mm 0,0 UV-I 0 W/m 11,8 C 12,6 C 8,0 km/h (2 Bft) 95,83 %
01.06.2016 00:50 12,6 C 95 % 1011,2 hPa 0,0 l/m 4,4 km/h (1 Bft) SW 227 0 min 0,000 mm 0,0 UV-I 0 W/m 11,8 C 12,6 C 6,4 km/h (2 Bft) 100,00 %
01.06.2016 00:51 12,6 C 95 % 1011,2 hPa 0,0 l/m 5,3 km/h (1 Bft) SW 225 0 min 0,000 mm 0,0 UV-I 0 W/m 11,8 C 12,6 C 6,4 km/h (2 Bft) 96,15 %
01.06.2016 00:52 12,6 C 95 % 1011,2 hPa 0,2 l/m 3,4 km/h (1 Bft) SW 216 0 min 0,000 mm 0,0 UV-I 0 W/m 11,8 C 12,6 C 6,4 km/h (2 Bft) 95,83 %
01.06.2016 00:53 12,6 C 95 % 1011,2 hPa 0,0 l/m 3,7 km/h (1 Bft) SW 221 0 min 0,000 mm 0,0 UV-I 0 W/m 11,8 C 12,6 C 6,4 km/h (2 Bft) 100,00 %
01.06.2016 00:54 12,6 C 95 % 1011,2 hPa 0,0 l/m 5,7 km/h (1 Bft) S-SW 213 0 min 0,000 mm 0,0 UV-I 0 W/m 11,8 C 12,6 C 8,0 km/h (2 Bft) 95,83 %
01.06.2016 00:55 12,5 C 95 % 1011,2 hPa 0,0 l/m 5,2 km/h (1 Bft) S-SW 202 0 min 0,000 mm 0,0 UV-I 0 W/m 11,7 C 12,5 C 6,4 km/h (2 Bft) 100,00 %
01.06.2016 00:56 12,5 C 95 % 1011,2 hPa 0,0 l/m 4,8 km/h (1 Bft) S-SW 209 0 min 0,000 mm 0,0 UV-I 0 W/m 11,7 C 12,5 C 6,4 km/h (2 Bft) 100,00 %
01.06.2016 00:57 12,5 C 95 % 1011,2 hPa 0,0 l/m 6,1 km/h (2 Bft) S-SW 200 0 min 0,000 mm 0,0 UV-I 0 W/m 11,7 C 12,5 C 8,0 km/h (2 Bft) 100,00 %
01.06.2016 00:58 12,5 C 95 % 1011,2 hPa 0,2 l/m 3,1 km/h (1 Bft) S-SW 200 0 min 0,000 mm 0,0 UV-I 0 W/m 11,7 C 12,5 C 4,8 km/h (1 Bft) 100,00 %
01.06.2016 00:59 12,5 C 95 % 1011,2 hPa 0,0 l/m 4,6 km/h (1 Bft) SW 231 0 min 0,000 mm 0,0 UV-I 0 W/m 11,7 C 12,5 C 6,4 km/h (2 Bft) 100,00 %
01.06.2016 01:00 12,5 C 95 % 1011,2 hPa 0,0 l/m 2,2 km/h (1 Bft) SW 231 0 min 0,000 mm 0,0 UV-I 0 W/m 11,7 C 12,5 C 4,8 km/h (1 Bft) 100,00 %
01.06.2016 01:01 12,5 C 95 % 1011,2 hPa 0,0 l/m 1,6 km/h (1 Bft) SW 231 0 min 0,000 mm 0,0 UV-I 0 W/m 11,7 C 12,5 C 3,2 km/h (1 Bft) 95,65 %
01.06.2016 01:02 12,5 C 95 % 1011,2 hPa 0,0 l/m 0,1 km/h (0 Bft) SW 231 0 min 0,000 mm 0,0 UV-I 0 W/m 11,7 C 12,5 C 1,6 km/h (1 Bft) 95,83 %
01.06.2016 01:03 12,5 C 96 % 1011,2 hPa 0,0 l/m 0,2 km/h (0 Bft) SW 231 0 min 0,000 mm 0,0 UV-I 0 W/m 11,9 C 12,5 C 1,6 km/h (1 Bft) 100,00 %
01.06.2016 01:04 12,6 C 96 % 1011,1 hPa 0,2 l/m 0,7 km/h (0 Bft) SW 231 0 min 0,000 mm 0,0 UV-I 0 W/m 12,0 C 12,6 C 1,6 km/h (1 Bft) 100,00 %
01.06.2016 01:05 12,6 C 96 % 1011,1 hPa 0,0 l/m 2,3 km/h (1 Bft) SW 231 0 min 0,000 mm 0,0 UV-I 0 W/m 12,0 C 12,6 C 3,2 km/h (1 Bft) 100,00 %
01.06.2016 01:06 12,6 C 96 % 1011,2 hPa 0,0 l/m 1,8 km/h (1 Bft) SW 231 0 min 0,000 mm 0,0 UV-I 0 W/m 12,0 C 12,6 C 3,2 km/h (1 Bft) 100,00 %
01.06.2016 01:07 12,5 C 96 % 1011,2 hPa 0,0 l/m 2,0 km/h (1 Bft) SW 231 0 min 0,000 mm 0,0 UV-I 0 W/m 11,9 C 12,5 C 3,2 km/h (1 Bft) 100,00 %
01.06.2016 01:08 12,5 C 96 % 1011,2 hPa 0,0 l/m 1,7 km/h (1 Bft) SW 231 0 min 0,000 mm 0,0 UV-I 0 W/m 11,9 C 12,5 C 3,2 km/h (1 Bft) 100,00 %
01.06.2016 01:09 12,5 C 96 % 1011,1 hPa 0,0 l/m 2,5 km/h (1 Bft) SW 231 0 min 0,000 mm 0,0 UV-I 0 W/m 11,9 C 12,5 C 3,2 km/h (1 Bft) 100,00 %
01.06.2016 01:10 12,6 C 96 % 1011,2 hPa 0,0 l/m 3,1 km/h (1 Bft) SW 231 0 min 0,000 mm 0,0 UV-I 0 W/m 12,0 C 12,6 C 4,8 km/h (1 Bft) 100,00 %
01.06.2016 01:11 12,6 C 96 % 1011,1 hPa 0,0 l/m 2,5 km/h (1 Bft) SW 227 0 min 0,000 mm 0,0 UV-I 0 W/m 12,0 C 12,6 C 3,2 km/h (1 Bft) 95,83 %
01.06.2016 01:12 12,6 C 96 % 1011,1 hPa 0,0 l/m 1,7 km/h (1 Bft) SW 227 0 min 0,000 mm 0,0 UV-I 0 W/m 12,0 C 12,6 C 3,2 km/h (1 Bft) 100,00 %
01.06.2016 01:13 12,6 C 96 % 1011,1 hPa 0,2 l/m 3,2 km/h (1 Bft) SW 219 0 min 0,000 mm 0,0 UV-I 0 W/m 12,0 C 12,6 C 4,8 km/h (1 Bft) 100,00 %
01.06.2016 01:14 12,6 C 96 % 1011,1 hPa 0,0 l/m 4,4 km/h (1 Bft) SW 219 0 min 0,000 mm 0,0 UV-I 0 W/m 12,0 C 12,6 C 4,8 km/h (1 Bft) 95,65 %
01.06.2016 01:15 12,6 C 96 % 1011,1 hPa 0,0 l/m 3,5 km/h (1 Bft) SW 219 0 min 0,000 mm 0,0 UV-I 0 W/m 12,0 C 12,6 C 4,8 km/h (1 Bft) 100,00 %
01.06.2016 01:16 12,6 C 96 % 1011,1 hPa 0,0 l/m 1,8 km/h (1 Bft) SW 219 0 min 0,000 mm 0,0 UV-I 0 W/m 12,0 C 12,6 C 3,2 km/h (1 Bft) 90,91 %
01.06.2016 01:17 12,6 C 96 % 1011,1 hPa 0,0 l/m 1,1 km/h (1 Bft) SW 219 0 min 0,000 mm 0,0 UV-I 0 W/m 12,0 C 12,6 C 3,2 km/h (1 Bft) 96,43 %
01.06.2016 01:18 12,6 C 96 % 1011,1 hPa 0,0 l/m 3,3 km/h (1 Bft) SW 219 0 min 0,000 mm 0,0 UV-I 0 W/m 12,0 C 12,6 C 4,8 km/h (1 Bft) 95,65 %
01.06.2016 01:19 12,6 C 96 % 1011,1 hPa 0,0 l/m 2,0 km/h (1 Bft) SW 219 0 min 0,000 mm 0,0 UV-I 0 W/m 12,0 C 12,6 C 4,8 km/h (1 Bft) 100,00 %
01.06.2016 01:20 12,6 C 96 % 1011,1 hPa 0,0 l/m 0,7 km/h (0 Bft) SW 218 0 min 0,000 mm 0,0 UV-I 0 W/m 12,0 C 12,6 C 1,6 km/h (1 Bft) 100,00 %
01.06.2016 01:21 12,6 C 96 % 1011,1 hPa 0,0 l/m 2,4 km/h (1 Bft) SW 218 0 min 0,000 mm 0,0 UV-I 0 W/m 12,0 C 12,6 C 3,2 km/h (1 Bft) 100,00 %
01.06.2016 01:22 12,6 C 96 % 1011,1 hPa 0,0 l/m 3,4 km/h (1 Bft) SW 218 0 min 0,000 mm 0,0 UV-I 0 W/m 12,0 C 12,6 C 4,8 km/h (1 Bft) 100,00 %
01.06.2016 01:23 12,6 C 96 % 1011,1 hPa 0,2 l/m 3,4 km/h (1 Bft) SW 217 0 min 0,000 mm 0,0 UV-I 0 W/m 12,0 C 12,6 C 4,8 km/h (1 Bft) 100,00 %
01.06.2016 01:24 12,6 C 96 % 1011,1 hPa 0,0 l/m 3,0 km/h (1 Bft) SW 217 0 min 0,000 mm 0,0 UV-I 0 W/m 12,0 C 12,6 C 4,8 km/h (1 Bft) 100,00 %
01.06.2016 01:25 12,6 C 96 % 1011,1 hPa 0,0 l/m 5,3 km/h (1 Bft) S-SW 200 0 min 0,000 mm 0,0 UV-I 0 W/m 12,0 C 12,6 C 8,0 km/h (2 Bft) 100,00 %
01.06.2016 01:26 12,6 C 96 % 1011,0 hPa 0,0 l/m 6,8 km/h (2 Bft) S-SW 204 0 min 0,000 mm 0,0 UV-I 0 W/m 12,0 C 12,4 C 9,7 km/h (2 Bft) 100,00 %
01.06.2016 01:27 12,6 C 96 % 1011,1 hPa 0,0 l/m 6,7 km/h (2 Bft) S-SW 209 0 min 0,000 mm 0,0 UV-I 0 W/m 12,0 C 12,4 C 9,7 km/h (2 Bft) 95,65 %
01.06.2016 01:28 12,6 C 96 % 1011,1 hPa 0,0 l/m 6,0 km/h (2 Bft) SW 232 0 min 0,000 mm 0,0 UV-I 0 W/m 12,0 C 12,6 C 8,0 km/h (2 Bft) 100,00 %
01.06.2016 01:29 12,6 C 96 % 1011,1 hPa 0,0 l/m 3,0 km/h (1 Bft) SW 217 0 min 0,000 mm 0,0 UV-I 0 W/m 12,0 C 12,6 C 4,8 km/h (1 Bft) 100,00 %
01.06.2016 01:30 12,5 C 96 % 1011,1 hPa 0,0 l/m 7,4 km/h (2 Bft) SW 221 0 min 0,000 mm 0,0 UV-I 0 W/m 11,9 C 11,9 C 11,3 km/h (2 Bft) 100,00 %
01.06.2016 01:31 12,5 C 96 % 1011,1 hPa 0,0 l/m 5,1 km/h (1 Bft) W-SW 238 0 min 0,000 mm 0,0 UV-I 0 W/m 11,9 C 12,5 C 9,7 km/h (2 Bft) 100,00 %
01.06.2016 01:32 12,6 C 96 % 1011,1 hPa 0,0 l/m 6,6 km/h (2 Bft) SW 236 0 min 0,000 mm 0,0 UV-I 0 W/m 12,0 C 12,5 C 9,7 km/h (2 Bft) 100,00 %
01.06.2016 01:33 12,6 C 96 % 1011,1 hPa 0,0 l/m 6,9 km/h (2 Bft) S-SW 200 0 min 0,000 mm 0,0 UV-I 0 W/m 12,0 C 12,3 C 11,3 km/h (2 Bft) 100,00 %
01.06.2016 01:34 12,6 C 96 % 1011,1 hPa 0,0 l/m 5,8 km/h (2 Bft) SW 219 0 min 0,000 mm 0,0 UV-I 0 W/m 12,0 C 12,6 C 8,0 km/h (2 Bft) 100,00 %
01.06.2016 01:35 12,5 C 96 % 1011,1 hPa 0,0 l/m 6,3 km/h (2 Bft) SW 229 0 min 0,000 mm 0,0 UV-I 0 W/m 11,9 C 12,5 C 9,7 km/h (2 Bft) 95,65 %
01.06.2016 01:36 12,5 C 96 % 1011,1 hPa 0,0 l/m 5,4 km/h (1 Bft) SW 230 0 min 0,000 mm 0,0 UV-I 0 W/m 11,9 C 12,5 C 8,0 km/h (2 Bft) 100,00 %
01.06.2016 01:37 12,6 C 96 % 1011,0 hPa 0,0 l/m 5,2 km/h (1 Bft) W-SW 242 0 min 0,000 mm 0,0 UV-I 0 W/m 12,0 C 12,6 C 8,0 km/h (2 Bft) 100,00 %
01.06.2016 01:38 12,5 C 96 % 1011,1 hPa 0,0 l/m 4,4 km/h (1 Bft) SW 229 0 min 0,000 mm 0,0 UV-I 0 W/m 11,9 C 12,5 C 6,4 km/h (2 Bft) 95,83 %
01.06.2016 01:39 12,6 C 96 % 1011,0 hPa 0,0 l/m 5,3 km/h (1 Bft) SW 236 0 min 0,000 mm 0,0 UV-I 0 W/m 12,0 C 12,6 C 8,0 km/h (2 Bft) 95,65 %
01.06.2016 01:40 12,6 C 96 % 1011,0 hPa 0,0 l/m 5,0 km/h (1 Bft) S-SW 198 0 min 0,000 mm 0,0 UV-I 0 W/m 12,0 C 12,6 C 8,0 km/h (2 Bft) 100,00 %
01.06.2016 01:41 12,6 C 96 % 1011,0 hPa 0,0 l/m 4,8 km/h (1 Bft) S-SW 207 0 min 0,000 mm 0,0 UV-I 0 W/m 12,0 C 12,6 C 8,0 km/h (2 Bft) 95,65 %
01.06.2016 01:42 12,6 C 96 % 1011,0 hPa 0,0 l/m 6,9 km/h (2 Bft) S-SW 194 0 min 0,000 mm 0,0 UV-I 0 W/m 12,0 C 12,3 C 8,0 km/h (2 Bft) 100,00 %
01.06.2016 01:43 12,6 C 96 % 1011,0 hPa 0,0 l/m 5,2 km/h (1 Bft) S-SW 198 0 min 0,000 mm 0,0 UV-I 0 W/m 12,0 C 12,6 C 8,0 km/h (2 Bft) 100,00 %
01.06.2016 01:44 12,6 C 96 % 1011,0 hPa 0,0 l/m 5,3 km/h (1 Bft) S-SW 209 0 min 0,000 mm 0,0 UV-I 0 W/m 12,0 C 12,6 C 8,0 km/h (2 Bft) 100,00 %
01.06.2016 01:45 12,6 C 96 % 1011,0 hPa 0,0 l/m 6,0 km/h (2 Bft) SW 219 0 min 0,000 mm 0,0 UV-I 0 W/m 12,0 C 12,6 C 8,0 km/h (2 Bft) 100,00 %
01.06.2016 01:46 12,6 C 96 % 1011,0 hPa 0,0 l/m 3,8 km/h (1 Bft) W-SW 238 0 min 0,000 mm 0,0 UV-I 0 W/m 12,0 C 12,6 C 4,8 km/h (1 Bft) 95,65 %
01.06.2016 01:47 12,6 C 96 % 1011,0 hPa 0,0 l/m 4,1 km/h (1 Bft) SW 232 0 min 0,000 mm 0,0 UV-I 0 W/m 12,0 C 12,6 C 6,4 km/h (2 Bft) 100,00 %
01.06.2016 01:48 12,6 C 96 % 1011,0 hPa 0,0 l/m 3,1 km/h (1 Bft) SW 232 0 min 0,000 mm 0,0 UV-I 0 W/m 12,0 C 12,6 C 4,8 km/h (1 Bft) 100,00 %
01.06.2016 01:49 12,6 C 96 % 1011,0 hPa 0,0 l/m 3,2 km/h (1 Bft) SW 232 0 min 0,000 mm 0,0 UV-I 0 W/m 12,0 C 12,6 C 4,8 km/h (1 Bft) 100,00 %
01.06.2016 01:50 12,6 C 96 % 1011,0 hPa 0,0 l/m 2,4 km/h (1 Bft) SW 232 0 min 0,000 mm 0,0 UV-I 0 W/m 12,0 C 12,6 C 3,2 km/h (1 Bft) 100,00 %
01.06.2016 01:51 12,6 C 96 % 1011,0 hPa 0,0 l/m 4,3 km/h (1 Bft) S-SW 196 0 min 0,000 mm 0,0 UV-I 0 W/m 12,0 C 12,6 C 6,4 km/h (2 Bft) 100,00 %
01.06.2016 01:52 12,6 C 96 % 1011,0 hPa 0,0 l/m 5,9 km/h (2 Bft) S-SW 207 0 min 0,000 mm 0,0 UV-I 0 W/m 12,0 C 12,6 C 6,4 km/h (2 Bft) 95,65 %
01.06.2016 01:53 12,6 C 96 % 1011,0 hPa 0,0 l/m 4,3 km/h (1 Bft) S-SW 202 0 min 0,000 mm 0,0 UV-I 0 W/m 12,0 C 12,6 C 6,4 km/h (2 Bft) 100,00 %
01.06.2016 01:54 12,6 C 96 % 1011,0 hPa 0,0 l/m 4,8 km/h (1 Bft) S-SW 211 0 min 0,000 mm 0,0 UV-I 0 W/m 12,0 C 12,6 C 9,7 km/h (2 Bft) 100,00 %
01.06.2016 01:55 12,6 C 96 % 1011,0 hPa 0,0 l/m 6,7 km/h (2 Bft) S-SW 208 0 min 0,000 mm 0,0 UV-I 0 W/m 12,0 C 12,4 C 9,7 km/h (2 Bft) 100,00 %
01.06.2016 01:56 12,6 C 96 % 1011,0 hPa 0,0 l/m 5,3 km/h (1 Bft) S-SW 200 0 min 0,000 mm 0,0 UV-I 0 W/m 12,0 C 12,6 C 8,0 km/h (2 Bft) 100,00 %
01.06.2016 01:57 12,6 C 96 % 1010,9 hPa 0,0 l/m 4,2 km/h (1 Bft) SW 214 0 min 0,000 mm 0,0 UV-I 0 W/m 12,0 C 12,6 C 6,4 km/h (2 Bft) 100,00 %
01.06.2016 01:58 12,6 C 96 % 1010,9 hPa 0,0 l/m 4,4 km/h (1 Bft) SW 215 0 min 0,000 mm 0,0 UV-I 0 W/m 12,0 C 12,6 C 6,4 km/h (2 Bft) 95,65 %
01.06.2016 01:59 12,6 C 96 % 1010,9 hPa 0,2 l/m 3,2 km/h (1 Bft) S-SW 194 0 min 0,000 mm 0,0 UV-I 0 W/m 12,0 C 12,6 C 4,8 km/h (1 Bft) 100,00 %
01.06.2016 02:00 12,6 C 96 % 1010,9 hPa 0,0 l/m 4,3 km/h (1 Bft) S-SW 202 0 min 0,000 mm 0,0 UV-I 0 W/m 12,0 C 12,6 C 8,0 km/h (2 Bft) 95,65 %
01.06.2016 02:01 12,6 C 96 % 1010,9 hPa 0,0 l/m 7,8 km/h (2 Bft) S 174 0 min 0,000 mm 0,0 UV-I 0 W/m 12,0 C 11,7 C 11,3 km/h (2 Bft) 100,00 %
01.06.2016 02:02 12,6 C 96 % 1010,9 hPa 0,0 l/m 7,4 km/h (2 Bft) S 183 0 min 0,000 mm 0,0 UV-I 0 W/m 12,0 C 12,0 C 9,7 km/h (2 Bft) 96,15 %
01.06.2016 02:03 12,6 C 96 % 1010,9 hPa 0,2 l/m 6,6 km/h (2 Bft) S 189 0 min 0,000 mm 0,0 UV-I 0 W/m 12,0 C 12,5 C 8,0 km/h (2 Bft) 100,00 %
01.06.2016 02:04 12,6 C 96 % 1010,9 hPa 0,0 l/m 8,9 km/h (2 Bft) S-SW 202 0 min 0,000 mm 0,0 UV-I 0 W/m 12,0 C 11,1 C 11,3 km/h (2 Bft) 91,30 %
01.06.2016 02:05 12,6 C 96 % 1010,9 hPa 0,0 l/m 7,9 km/h (2 Bft) S-SW 195 0 min 0,000 mm 0,0 UV-I 0 W/m 12,0 C 11,6 C 12,9 km/h (3 Bft) 95,83 %
01.06.2016 02:06 12,6 C 96 % 1010,9 hPa 0,0 l/m 6,0 km/h (2 Bft) S-SW 205 0 min 0,000 mm 0,0 UV-I 0 W/m 12,0 C 12,6 C 9,7 km/h (2 Bft) 100,00 %
01.06.2016 02:07 12,6 C 96 % 1010,9 hPa 0,2 l/m 5,0 km/h (1 Bft) S-SW 194 0 min 0,000 mm 0,0 UV-I 0 W/m 12,0 C 12,6 C 6,4 km/h (2 Bft) 100,00 %
01.06.2016 02:08 12,6 C 96 % 1010,9 hPa 0,0 l/m 4,3 km/h (1 Bft) S-SW 204 0 min 0,000 mm 0,0 UV-I 0 W/m 12,0 C 12,6 C 6,4 km/h (2 Bft) 100,00 %
01.06.2016 02:09 12,6 C 96 % 1010,9 hPa 0,0 l/m 5,4 km/h (1 Bft) S 191 0 min 0,000 mm 0,0 UV-I 0 W/m 12,0 C 12,6 C 11,3 km/h (2 Bft) 100,00 %
01.06.2016 02:10 12,6 C 96 % 1010,9 hPa 0,2 l/m 6,7 km/h (2 Bft) S-SW 193 0 min 0,000 mm 0,0 UV-I 0 W/m 12,0 C 12,4 C 11,3 km/h (2 Bft) 100,00 %
01.06.2016 02:11 12,6 C 96 % 1010,9 hPa 0,0 l/m 5,2 km/h (1 Bft) S-SO 158 0 min 0,000 mm 0,0 UV-I 0 W/m 12,0 C 12,6 C 8,0 km/h (2 Bft) 95,65 %
01.06.2016 02:12 12,5 C 96 % 1010,9 hPa 0,0 l/m 7,4 km/h (2 Bft) SW 216 0 min 0,000 mm 0,0 UV-I 0 W/m 11,9 C 11,9 C 14,5 km/h (3 Bft) 100,00 %
01.06.2016 02:13 12,5 C 96 % 1010,9 hPa 0,0 l/m 9,1 km/h (2 Bft) S-SO 168 0 min 0,000 mm 0,0 UV-I 0 W/m 11,9 C 10,8 C 11,3 km/h (2 Bft) 100,00 %
01.06.2016 02:14 12,5 C 96 % 1010,9 hPa 0,2 l/m 7,6 km/h (2 Bft) S 173 0 min 0,000 mm 0,0 UV-I 0 W/m 11,9 C 11,7 C 11,3 km/h (2 Bft) 100,00 %
01.06.2016 02:15 12,5 C 96 % 1010,9 hPa 0,0 l/m 6,6 km/h (2 Bft) S-SW 197 0 min 0,000 mm 0,0 UV-I 0 W/m 11,9 C 12,4 C 12,9 km/h (3 Bft) 95,65 %
01.06.2016 02:16 12,5 C 96 % 1010,9 hPa 0,0 l/m 11,3 km/h (2 Bft) SW 216 0 min 0,000 mm 0,0 UV-I 0 W/m 11,9 C 9,7 C 14,5 km/h (3 Bft) 100,00 %
01.06.2016 02:17 12,5 C 96 % 1010,8 hPa 0,0 l/m 7,8 km/h (2 Bft) S-SW 209 0 min 0,000 mm 0,0 UV-I 0 W/m 11,9 C 11,6 C 11,3 km/h (2 Bft) 95,65 %
01.06.2016 02:18 12,5 C 96 % 1010,8 hPa 0,0 l/m 9,7 km/h (2 Bft) S 176 0 min 0,000 mm 0,0 UV-I 0 W/m 11,9 C 10,5 C 12,9 km/h (3 Bft) 100,00 %
01.06.2016 02:19 12,5 C 96 % 1010,9 hPa 0,0 l/m 7,8 km/h (2 Bft) S-SW 213 0 min 0,000 mm 0,0 UV-I 0 W/m 11,9 C 11,6 C 9,7 km/h (2 Bft) 100,00 %
01.06.2016 02:20 12,5 C 96 % 1010,9 hPa 0,0 l/m 7,4 km/h (2 Bft) S 189 0 min 0,000 mm 0,0 UV-I 0 W/m 11,9 C 11,9 C 11,3 km/h (2 Bft) 100,00 %
01.06.2016 02:21 12,5 C 96 % 1010,9 hPa 0,0 l/m 7,4 km/h (2 Bft) S 188 0 min 0,000 mm 0,0 UV-I 0 W/m 11,9 C 11,9 C 9,7 km/h (2 Bft) 100,00 %
01.06.2016 02:22 12,5 C 96 % 1010,9 hPa 0,0 l/m 5,5 km/h (1 Bft) SW 227 0 min 0,000 mm 0,0 UV-I 0 W/m 11,9 C 12,5 C 8,0 km/h (2 Bft) 95,65 %
01.06.2016 02:23 12,5 C 96 % 1010,9 hPa 0,0 l/m 5,6 km/h (1 Bft) SW 236 0 min 0,000 mm 0,0 UV-I 0 W/m 11,9 C 12,5 C 12,9 km/h (3 Bft) 100,00 %
01.06.2016 02:24 12,4 C 96 % 1010,9 hPa 0,2 l/m 6,8 km/h (2 Bft) S-SW 200 0 min 0,000 mm 0,0 UV-I 0 W/m 11,8 C 12,1 C 11,3 km/h (2 Bft) 91,30 %
01.06.2016 02:25 12,4 C 96 % 1010,9 hPa 0,0 l/m 9,6 km/h (2 Bft) W-SW 250 0 min 0,000 mm 0,0 UV-I 0 W/m 11,8 C 10,5 C 16,1 km/h (3 Bft) 100,00 %
01.06.2016 02:26 12,4 C 96 % 1010,9 hPa 0,0 l/m 8,9 km/h (2 Bft) S 186 0 min 0,000 mm 0,0 UV-I 0 W/m 11,8 C 10,8 C 12,9 km/h (3 Bft) 95,65 %
01.06.2016 02:27 12,4 C 96 % 1010,9 hPa 0,0 l/m 10,9 km/h (2 Bft) S-SW 208 0 min 0,000 mm 0,0 UV-I 0 W/m 11,8 C 9,8 C 14,5 km/h (3 Bft) 95,83 %
01.06.2016 02:28 12,4 C 96 % 1010,9 hPa 0,0 l/m 6,9 km/h (2 Bft) S-SO 167 0 min 0,000 mm 0,0 UV-I 0 W/m 11,8 C 12,1 C 9,7 km/h (2 Bft) 100,00 %
01.06.2016 02:29 12,4 C 96 % 1010,9 hPa 0,0 l/m 6,3 km/h (2 Bft) S-SW 207 0 min 0,000 mm 0,0 UV-I 0 W/m 11,8 C 12,4 C 8,0 km/h (2 Bft) 95,83 %
01.06.2016 02:30 12,5 C 96 % 1010,9 hPa 0,0 l/m 8,0 km/h (2 Bft) S-SW 209 0 min 0,000 mm 0,0 UV-I 0 W/m 11,9 C 11,5 C 11,3 km/h (2 Bft) 95,65 %
01.06.2016 02:31 12,4 C 96 % 1010,9 hPa 0,0 l/m 7,4 km/h (2 Bft) SW 232 0 min 0,000 mm 0,0 UV-I 0 W/m 11,8 C 11,7 C 11,3 km/h (2 Bft) 95,83 %
01.06.2016 02:32 12,4 C 96 % 1010,9 hPa 0,0 l/m 9,7 km/h (2 Bft) SW 215 0 min 0,000 mm 0,0 UV-I 0 W/m 11,8 C 10,4 C 17,7 km/h (3 Bft) 95,65 %
01.06.2016 02:33 12,4 C 96 % 1010,8 hPa 0,0 l/m 6,8 km/h (2 Bft) S-SW 199 0 min 0,000 mm 0,0 UV-I 0 W/m 11,8 C 12,1 C 9,7 km/h (2 Bft) 95,83 %
01.06.2016 02:34 12,4 C 96 % 1010,8 hPa 0,0 l/m 5,1 km/h (1 Bft) S-SW 211 0 min 0,000 mm 0,0 UV-I 0 W/m 11,8 C 12,4 C 8,0 km/h (2 Bft) 95,65 %
01.06.2016 02:35 12,5 C 96 % 1010,8 hPa 0,0 l/m 10,3 km/h (2 Bft) S-SW 205 0 min 0,000 mm 0,0 UV-I 0 W/m 11,9 C 10,2 C 12,9 km/h (3 Bft) 95,83 %
01.06.2016 02:36 12,4 C 96 % 1010,8 hPa 0,0 l/m 9,7 km/h (2 Bft) S 175 0 min 0,000 mm 0,0 UV-I 0 W/m 11,8 C 10,4 C 11,3 km/h (2 Bft) 91,30 %
01.06.2016 02:37 12,5 C 96 % 1010,7 hPa 0,2 l/m 7,8 km/h (2 Bft) W-SW 244 0 min 0,000 mm 0,0 UV-I 0 W/m 11,9 C 11,6 C 14,5 km/h (3 Bft) 100,00 %
01.06.2016 02:38 12,5 C 96 % 1010,7 hPa 0,0 l/m 6,6 km/h (2 Bft) S-SW 208 0 min 0,000 mm 0,0 UV-I 0 W/m 11,9 C 12,4 C 12,9 km/h (3 Bft) 95,65 %
01.06.2016 02:39 12,5 C 96 % 1010,8 hPa 0,0 l/m 6,8 km/h (2 Bft) S-SW 205 0 min 0,000 mm 0,0 UV-I 0 W/m 11,9 C 12,2 C 9,7 km/h (2 Bft) 100,00 %
01.06.2016 02:40 12,4 C 96 % 1010,7 hPa 0,0 l/m 5,8 km/h (2 Bft) W-SW 240 0 min 0,000 mm 0,0 UV-I 0 W/m 11,8 C 12,4 C 9,7 km/h (2 Bft) 93,33 %
01.06.2016 02:41 12,5 C 96 % 1010,8 hPa 0,0 l/m 3,6 km/h (1 Bft) S 188 0 min 0,000 mm 0,0 UV-I 0 W/m 11,9 C 12,5 C 4,8 km/h (1 Bft) 95,65 %
01.06.2016 02:42 12,5 C 96 % 1010,8 hPa 0,0 l/m 8,4 km/h (2 Bft) W-SW 241 0 min 0,000 mm 0,0 UV-I 0 W/m 11,9 C 11,2 C 11,3 km/h (2 Bft) 95,83 %
01.06.2016 02:43 12,4 C 96 % 1010,8 hPa 0,0 l/m 4,8 km/h (1 Bft) S-SW 211 0 min 0,000 mm 0,0 UV-I 0 W/m 11,8 C 12,4 C 6,4 km/h (2 Bft) 100,00 %
01.06.2016 02:44 12,4 C 96 % 1010,8 hPa 0,0 l/m 4,7 km/h (1 Bft) W-SW 237 0 min 0,000 mm 0,0 UV-I 0 W/m 11,8 C 12,4 C 8,0 km/h (2 Bft) 95,83 %
01.06.2016 02:45 12,5 C 96 % 1010,8 hPa 0,0 l/m 4,3 km/h (1 Bft) S 175 0 min 0,000 mm 0,0 UV-I 0 W/m 11,9 C 12,5 C 8,0 km/h (2 Bft) 95,65 %
01.06.2016 02:46 12,5 C 96 % 1010,8 hPa 0,2 l/m 4,8 km/h (1 Bft) SW 234 0 min 0,000 mm 0,0 UV-I 0 W/m 11,9 C 12,5 C 6,4 km/h (2 Bft) 100,00 %
01.06.2016 02:47 12,5 C 96 % 1010,8 hPa 0,0 l/m 4,9 km/h (1 Bft) S-SW 192 0 min 0,000 mm 0,0 UV-I 0 W/m 11,9 C 12,5 C 6,4 km/h (2 Bft) 91,30 %
01.06.2016 02:48 12,5 C 96 % 1010,8 hPa 0,0 l/m 4,4 km/h (1 Bft) S-SW 200 0 min 0,000 mm 0,0 UV-I 0 W/m 11,9 C 12,5 C 6,4 km/h (2 Bft) 100,00 %
01.06.2016 02:49 12,5 C 96 % 1010,8 hPa 0,0 l/m 3,8 km/h (1 Bft) S-SW 192 0 min 0,000 mm 0,0 UV-I 0 W/m 11,9 C 12,5 C 6,4 km/h (2 Bft) 100,00 %
01.06.2016 02:50 12,5 C 96 % 1010,9 hPa 0,0 l/m 2,7 km/h (1 Bft) S 191 0 min 0,000 mm 0,0 UV-I 0 W/m 11,9 C 12,5 C 4,8 km/h (1 Bft) 95,83 %
01.06.2016 02:51 12,5 C 96 % 1010,8 hPa 0,0 l/m 5,8 km/h (2 Bft) S-SW 212 0 min 0,000 mm 0,0 UV-I 0 W/m 11,9 C 12,5 C 8,0 km/h (2 Bft) 95,65 %
01.06.2016 02:52 12,5 C 96 % 1010,8 hPa 0,0 l/m 7,3 km/h (2 Bft) S 188 0 min 0,000 mm 0,0 UV-I 0 W/m 11,9 C 11,9 C 9,7 km/h (2 Bft) 96,30 %
01.06.2016 02:53 12,6 C 96 % 1010,8 hPa 0,2 l/m 4,6 km/h (1 Bft) SW 215 0 min 0,000 mm 0,0 UV-I 0 W/m 12,0 C 12,6 C 8,0 km/h (2 Bft) 95,65 %
01.06.2016 02:54 12,5 C 96 % 1010,8 hPa 0,0 l/m 6,2 km/h (2 Bft) S-SW 198 0 min 0,000 mm 0,0 UV-I 0 W/m 11,9 C 12,5 C 9,7 km/h (2 Bft) 91,67 %
01.06.2016 02:55 12,5 C 96 % 1010,8 hPa 0,0 l/m 7,3 km/h (2 Bft) SW 225 0 min 0,000 mm 0,0 UV-I 0 W/m 11,9 C 11,9 C 11,3 km/h (2 Bft) 92,31 %
01.06.2016 02:56 12,6 C 96 % 1010,8 hPa 0,0 l/m 7,3 km/h (2 Bft) S 184 0 min 0,000 mm 0,0 UV-I 0 W/m 12,0 C 12,0 C 9,7 km/h (2 Bft) 100,00 %
01.06.2016 02:57 12,6 C 96 % 1010,8 hPa 0,0 l/m 5,5 km/h (1 Bft) S-SW 209 0 min 0,000 mm 0,0 UV-I 0 W/m 12,0 C 12,6 C 8,0 km/h (2 Bft) 100,00 %
01.06.2016 02:58 12,6 C 96 % 1010,8 hPa 0,0 l/m 3,6 km/h (1 Bft) W-SW 241 0 min 0,000 mm 0,0 UV-I 0 W/m 12,0 C 12,6 C 4,8 km/h (1 Bft) 95,83 %
01.06.2016 02:59 12,6 C 96 % 1010,8 hPa 0,2 l/m 6,2 km/h (2 Bft) S 182 0 min 0,000 mm 0,0 UV-I 0 W/m 12,0 C 12,6 C 9,7 km/h (2 Bft) 95,65 %
01.06.2016 03:00 12,6 C 96 % 1010,8 hPa 0,0 l/m 6,8 km/h (2 Bft) S-SW 205 0 min 0,000 mm 0,0 UV-I 0 W/m 12,0 C 12,4 C 11,3 km/h (2 Bft) 95,83 %
01.06.2016 03:01 12,6 C 96 % 1010,8 hPa 0,0 l/m 7,1 km/h (2 Bft) S-SW 204 0 min 0,000 mm 0,0 UV-I 0 W/m 12,0 C 12,2 C 11,3 km/h (2 Bft) 100,00 %
01.06.2016 03:02 12,6 C 96 % 1010,8 hPa 0,0 l/m 10,0 km/h (2 Bft) SW 227 0 min 0,000 mm 0,0 UV-I 0 W/m 12,0 C 10,5 C 11,3 km/h (2 Bft) 100,00 %
01.06.2016 03:03 12,6 C 96 % 1010,7 hPa 0,0 l/m 8,0 km/h (2 Bft) S-SW 203 0 min 0,000 mm 0,0 UV-I 0 W/m 12,0 C 11,6 C 11,3 km/h (2 Bft) 97,14 %
01.06.2016 03:04 12,6 C 96 % 1010,7 hPa 0,0 l/m 7,1 km/h (2 Bft) S-SW 193 0 min 0,000 mm 0,0 UV-I 0 W/m 12,0 C 12,2 C 9,7 km/h (2 Bft) 100,00 %
01.06.2016 03:05 12,6 C 96 % 1010,7 hPa 0,0 l/m 5,0 km/h (1 Bft) S-SO 165 0 min 0,000 mm 0,0 UV-I 0 W/m 12,0 C 12,6 C 6,4 km/h (2 Bft) 100,00 %
01.06.2016 03:06 12,6 C 96 % 1010,7 hPa 0,0 l/m 8,5 km/h (2 Bft) S 177 0 min 0,000 mm 0,0 UV-I 0 W/m 12,0 C 11,3 C 12,9 km/h (3 Bft) 95,65 %
01.06.2016 03:07 12,6 C 96 % 1010,7 hPa 0,0 l/m 6,8 km/h (2 Bft) S-SW 202 0 min 0,000 mm 0,0 UV-I 0 W/m 12,0 C 12,4 C 8,0 km/h (2 Bft) 95,83 %
01.06.2016 03:08 12,6 C 96 % 1010,7 hPa 0,2 l/m 6,0 km/h (2 Bft) S-SW 205 0 min 0,000 mm 0,0 UV-I 0 W/m 12,0 C 12,6 C 8,0 km/h (2 Bft) 100,00 %
01.06.2016 03:09 12,6 C 96 % 1010,7 hPa 0,0 l/m 8,0 km/h (2 Bft) S 171 0 min 0,000 mm 0,0 UV-I 0 W/m 12,0 C 11,6 C 11,3 km/h (2 Bft) 100,00 %
01.06.2016 03:10 12,6 C 96 % 1010,7 hPa 0,0 l/m 7,4 km/h (2 Bft) S 178 0 min 0,000 mm 0,0 UV-I 0 W/m 12,0 C 12,0 C 9,7 km/h (2 Bft) 100,00 %
01.06.2016 03:11 12,6 C 96 % 1010,7 hPa 0,0 l/m 8,3 km/h (2 Bft) S-SW 209 0 min 0,000 mm 0,0 UV-I 0 W/m 12,0 C 11,4 C 12,9 km/h (3 Bft) 96,30 %
01.06.2016 03:12 12,6 C 96 % 1010,7 hPa 0,0 l/m 6,4 km/h (2 Bft) S-SW 205 0 min 0,000 mm 0,0 UV-I 0 W/m 12,0 C 12,6 C 9,7 km/h (2 Bft) 100,00 %
01.06.2016 03:13 12,6 C 96 % 1010,7 hPa 0,2 l/m 6,6 km/h (2 Bft) S-SW 198 0 min 0,000 mm 0,0 UV-I 0 W/m 12,0 C 12,5 C 8,0 km/h (2 Bft) 100,00 %
01.06.2016 03:14 12,6 C 96 % 1010,7 hPa 0,0 l/m 7,5 km/h (2 Bft) S-SW 204 0 min 0,000 mm 0,0 UV-I 0 W/m 12,0 C 11,9 C 11,3 km/h (2 Bft) 100,00 %
01.06.2016 03:15 12,6 C 96 % 1010,7 hPa 0,0 l/m 4,9 km/h (1 Bft) S-SW 194 0 min 0,000 mm 0,0 UV-I 0 W/m 12,0 C 12,6 C 6,4 km/h (2 Bft) 100,00 %
01.06.2016 03:16 12,6 C 96 % 1010,7 hPa 0,0 l/m 4,5 km/h (1 Bft) S-SW 199 0 min 0,000 mm 0,0 UV-I 0 W/m 12,0 C 12,6 C 6,4 km/h (2 Bft) 100,00 %
01.06.2016 03:17 12,6 C 96 % 1010,7 hPa 0,0 l/m 8,7 km/h (2 Bft) S-SW 199 0 min 0,000 mm 0,0 UV-I 0 W/m 12,0 C 11,2 C 14,5 km/h (3 Bft) 100,00 %
01.06.2016 03:18 12,6 C 96 % 1010,6 hPa 0,0 l/m 6,8 km/h (2 Bft) S 191 0 min 0,000 mm 0,0 UV-I 0 W/m 12,0 C 12,4 C 8,0 km/h (2 Bft) 100,00 %
01.06.2016 03:19 12,6 C 96 % 1010,7 hPa 0,2 l/m 6,8 km/h (2 Bft) SW 235 0 min 0,000 mm 0,0 UV-I 0 W/m 12,0 C 12,4 C 9,7 km/h (2 Bft) 100,00 %
01.06.2016 03:20 12,6 C 96 % 1010,7 hPa 0,0 l/m 6,2 km/h (2 Bft) S-SW 194 0 min 0,000 mm 0,0 UV-I 0 W/m 12,0 C 12,6 C 8,0 km/h (2 Bft) 100,00 %
01.06.2016 03:21 12,6 C 96 % 1010,7 hPa 0,0 l/m 4,8 km/h (1 Bft) S-SW 209 0 min 0,000 mm 0,0 UV-I 0 W/m 12,0 C 12,6 C 8,0 km/h (2 Bft) 95,83 %
01.06.2016 03:22 12,6 C 96 % 1010,7 hPa 0,0 l/m 7,3 km/h (2 Bft) SW 226 0 min 0,000 mm 0,0 UV-I 0 W/m 12,0 C 12,0 C 11,3 km/h (2 Bft) 100,00 %
01.06.2016 03:23 12,6 C 96 % 1010,7 hPa 0,0 l/m 7,3 km/h (2 Bft) S-SW 208 0 min 0,000 mm 0,0 UV-I 0 W/m 12,0 C 12,0 C 9,7 km/h (2 Bft) 100,00 %
01.06.2016 03:24 12,6 C 96 % 1010,6 hPa 0,0 l/m 6,4 km/h (2 Bft) S-SW 194 0 min 0,000 mm 0,0 UV-I 0 W/m 12,0 C 12,6 C 9,7 km/h (2 Bft) 100,00 %
01.06.2016 03:25 12,6 C 96 % 1010,6 hPa 0,0 l/m 6,0 km/h (2 Bft) S 184 0 min 0,000 mm 0,0 UV-I 0 W/m 12,0 C 12,6 C 9,7 km/h (2 Bft) 100,00 %
01.06.2016 03:26 12,6 C 96 % 1010,6 hPa 0,2 l/m 4,4 km/h (1 Bft) S-SW 208 0 min 0,000 mm 0,0 UV-I 0 W/m 12,0 C 12,6 C 6,4 km/h (2 Bft) 93,33 %
01.06.2016 03:27 12,6 C 96 % 1010,6 hPa 0,0 l/m 6,8 km/h (2 Bft) S-SW 212 0 min 0,000 mm 0,0 UV-I 0 W/m 12,0 C 12,4 C 8,0 km/h (2 Bft) 100,00 %
01.06.2016 03:28 12,6 C 97 % 1010,7 hPa 0,0 l/m 5,6 km/h (1 Bft) S 181 0 min 0,000 mm 0,0 UV-I 0 W/m 12,1 C 12,6 C 8,0 km/h (2 Bft) 100,00 %
01.06.2016 03:29 12,6 C 96 % 1010,6 hPa 0,0 l/m 8,7 km/h (2 Bft) SW 217 0 min 0,000 mm 0,0 UV-I 0 W/m 12,0 C 11,2 C 14,5 km/h (3 Bft) 100,00 %
01.06.2016 03:30 12,6 C 96 % 1010,6 hPa 0,0 l/m 6,2 km/h (2 Bft) S-SW 196 0 min 0,000 mm 0,0 UV-I 0 W/m 12,0 C 12,6 C 9,7 km/h (2 Bft) 100,00 %
01.06.2016 03:31 12,6 C 96 % 1010,6 hPa 0,0 l/m 7,9 km/h (2 Bft) S-SW 192 0 min 0,000 mm 0,0 UV-I 0 W/m 12,0 C 11,6 C 11,3 km/h (2 Bft) 100,00 %
01.06.2016 03:32 12,6 C 96 % 1010,6 hPa 0,0 l/m 5,9 km/h (2 Bft) S 180 0 min 0,000 mm 0,0 UV-I 0 W/m 12,0 C 12,6 C 8,0 km/h (2 Bft) 100,00 %
01.06.2016 03:33 12,6 C 96 % 1010,6 hPa 0,0 l/m 5,3 km/h (1 Bft) SW 228 0 min 0,000 mm 0,0 UV-I 0 W/m 12,0 C 12,6 C 8,0 km/h (2 Bft) 100,00 %
01.06.2016 03:34 12,6 C 96 % 1010,6 hPa 0,0 l/m 5,6 km/h (1 Bft) SW 235 0 min 0,000 mm 0,0 UV-I 0 W/m 12,0 C 12,6 C 8,0 km/h (2 Bft) 100,00 %
01.06.2016 03:35 12,6 C 96 % 1010,6 hPa 0,0 l/m 6,6 km/h (2 Bft) SW 221 0 min 0,000 mm 0,0 UV-I 0 W/m 12,0 C 12,5 C 9,7 km/h (2 Bft) 100,00 %
01.06.2016 03:36 12,6 C 96 % 1010,6 hPa 0,0 l/m 5,0 km/h (1 Bft) S-SW 192 0 min 0,000 mm 0,0 UV-I 0 W/m 12,0 C 12,6 C 9,7 km/h (2 Bft) 100,00 %
01.06.2016 03:37 12,6 C 96 % 1010,6 hPa 0,0 l/m 3,2 km/h (1 Bft) SW 227 0 min 0,000 mm 0,0 UV-I 0 W/m 12,0 C 12,6 C 4,8 km/h (1 Bft) 100,00 %
01.06.2016 03:38 12,6 C 96 % 1010,5 hPa 0,2 l/m 5,0 km/h (1 Bft) SW 231 0 min 0,000 mm 0,0 UV-I 0 W/m 12,0 C 12,6 C 9,7 km/h (2 Bft) 100,00 %
01.06.2016 03:39 12,6 C 96 % 1010,5 hPa 0,0 l/m 7,2 km/h (2 Bft) W-SW 253 0 min 0,000 mm 0,0 UV-I 0 W/m 12,0 C 12,1 C 9,7 km/h (2 Bft) 100,00 %
01.06.2016 03:40 12,6 C 96 % 1010,5 hPa 0,0 l/m 8,8 km/h (2 Bft) S-SW 202 0 min 0,000 mm 0,0 UV-I 0 W/m 12,0 C 11,1 C 12,9 km/h (3 Bft) 96,55 %
01.06.2016 03:41 12,6 C 96 % 1010,5 hPa 0,0 l/m 8,1 km/h (2 Bft) S-SW 200 0 min 0,000 mm 0,0 UV-I 0 W/m 12,0 C 11,5 C 12,9 km/h (3 Bft) 100,00 %
01.06.2016 03:42 12,6 C 96 % 1010,5 hPa 0,0 l/m 7,0 km/h (2 Bft) W-SW 238 0 min 0,000 mm 0,0 UV-I 0 W/m 12,0 C 12,2 C 12,9 km/h (3 Bft) 100,00 %
01.06.2016 03:43 12,6 C 96 % 1010,5 hPa 0,0 l/m 8,4 km/h (2 Bft) SW 216 0 min 0,000 mm 0,0 UV-I 0 W/m 12,0 C 11,3 C 11,3 km/h (2 Bft) 100,00 %
01.06.2016 03:44 12,6 C 96 % 1010,5 hPa 0,0 l/m 6,7 km/h (2 Bft) S-SW 210 0 min 0,000 mm 0,0 UV-I 0 W/m 12,0 C 12,4 C 9,7 km/h (2 Bft) 100,00 %
01.06.2016 03:45 12,6 C 96 % 1010,5 hPa 0,0 l/m 5,0 km/h (1 Bft) SW 219 0 min 0,000 mm 0,0 UV-I 0 W/m 12,0 C 12,6 C 9,7 km/h (2 Bft) 100,00 %
01.06.2016 03:46 12,7 C 96 % 1010,5 hPa 0,0 l/m 8,0 km/h (2 Bft) S-SW 198 0 min 0,000 mm 0,0 UV-I 0 W/m 12,1 C 11,7 C 9,7 km/h (2 Bft) 100,00 %
01.06.2016 03:47 12,7 C 96 % 1010,5 hPa 0,0 l/m 5,5 km/h (1 Bft) S 187 0 min 0,000 mm 0,0 UV-I 0 W/m 12,1 C 12,7 C 9,7 km/h (2 Bft) 100,00 %
01.06.2016 03:48 12,6 C 96 % 1010,5 hPa 0,0 l/m 6,8 km/h (2 Bft) SW 221 0 min 0,000 mm 0,0 UV-I 0 W/m 12,0 C 12,4 C 8,0 km/h (2 Bft) 100,00 %
01.06.2016 03:49 12,6 C 96 % 1010,5 hPa 0,0 l/m 7,6 km/h (2 Bft) W-SW 242 0 min 0,000 mm 0,0 UV-I 0 W/m 12,0 C 11,8 C 12,9 km/h (3 Bft) 100,00 %
01.06.2016 03:50 12,7 C 96 % 1010,5 hPa 0,0 l/m 9,3 km/h (2 Bft) SW 230 0 min 0,000 mm 0,0 UV-I 0 W/m 12,1 C 10,9 C 12,9 km/h (3 Bft) 100,00 %
01.06.2016 03:51 12,7 C 96 % 1010,5 hPa 0,0 l/m 5,7 km/h (1 Bft) W-SW 242 0 min 0,000 mm 0,0 UV-I 0 W/m 12,1 C 12,7 C 8,0 km/h (2 Bft) 100,00 %
01.06.2016 03:52 12,7 C 96 % 1010,5 hPa 0,0 l/m 7,5 km/h (2 Bft) SW 225 0 min 0,000 mm 0,0 UV-I 0 W/m 12,1 C 12,0 C 11,3 km/h (2 Bft) 100,00 %
01.06.2016 03:53 12,7 C 96 % 1010,5 hPa 0,0 l/m 6,1 km/h (2 Bft) SW 227 0 min 0,000 mm 0,0 UV-I 0 W/m 12,1 C 12,7 C 8,0 km/h (2 Bft) 100,00 %
01.06.2016 03:54 12,7 C 96 % 1010,5 hPa 0,0 l/m 7,8 km/h (2 Bft) SW 236 0 min 0,000 mm 0,0 UV-I 0 W/m 12,1 C 11,8 C 11,3 km/h (2 Bft) 96,15 %
01.06.2016 03:55 12,7 C 96 % 1010,5 hPa 0,0 l/m 6,2 km/h (2 Bft) W-SW 240 0 min 0,000 mm 0,0 UV-I 0 W/m 12,1 C 12,7 C 9,7 km/h (2 Bft) 100,00 %
01.06.2016 03:56 12,7 C 96 % 1010,4 hPa 0,0 l/m 7,5 km/h (2 Bft) SW 229 0 min 0,000 mm 0,0 UV-I 0 W/m 12,1 C 12,0 C 11,3 km/h (2 Bft) 100,00 %
01.06.2016 03:57 12,7 C 96 % 1010,4 hPa 0,0 l/m 8,8 km/h (2 Bft) S-SW 211 0 min 0,000 mm 0,0 UV-I 0 W/m 12,1 C 11,2 C 12,9 km/h (3 Bft) 100,00 %
01.06.2016 03:58 12,7 C 96 % 1010,4 hPa 0,0 l/m 10,3 km/h (2 Bft) W-SW 245 0 min 0,000 mm 0,0 UV-I 0 W/m 12,1 C 10,4 C 14,5 km/h (3 Bft) 100,00 %
01.06.2016 03:59 12,7 C 96 % 1010,4 hPa 0,0 l/m 9,5 km/h (2 Bft) W-SW 238 0 min 0,000 mm 0,0 UV-I 0 W/m 12,1 C 10,8 C 14,5 km/h (3 Bft) 100,00 %
01.06.2016 04:00 12,7 C 96 % 1010,4 hPa 0,2 l/m 8,5 km/h (2 Bft) SW 230 0 min 0,000 mm 0,0 UV-I 0 W/m 12,1 C 11,4 C 11,3 km/h (2 Bft) 100,00 %
01.06.2016 04:03 12,7 C 96 % 1010,4 hPa 0,0 l/m 9,3 km/h (2 Bft) SW 225 0 min 0,000 mm 0,0 UV-I 0 W/m 12,1 C 10,9 C 14,5 km/h (3 Bft) 100,00 %
01.06.2016 04:04 12,7 C 96 % 1010,4 hPa 0,0 l/m 8,8 km/h (2 Bft) W-SW 244 0 min 0,000 mm 0,0 UV-I 0 W/m 12,1 C 11,2 C 12,9 km/h (3 Bft) 100,00 %
01.06.2016 04:05 12,7 C 96 % 1010,4 hPa 0,0 l/m 9,0 km/h (2 Bft) S-SW 212 0 min 0,000 mm 0,0 UV-I 0 W/m 12,1 C 11,1 C 14,5 km/h (3 Bft) 100,00 %
01.06.2016 04:06 12,7 C 96 % 1010,4 hPa 0,0 l/m 7,1 km/h (2 Bft) S-SW 210 0 min 0,000 mm 0,0 UV-I 0 W/m 12,1 C 12,3 C 8,0 km/h (2 Bft) 95,83 %
01.06.2016 04:07 12,7 C 96 % 1010,3 hPa 0,0 l/m 5,6 km/h (1 Bft) S-SW 213 0 min 0,000 mm 0,0 UV-I 0 W/m 12,1 C 12,7 C 9,7 km/h (2 Bft) 95,65 %
01.06.2016 04:08 12,7 C 96 % 1010,3 hPa 0,0 l/m 5,7 km/h (1 Bft) W-SW 239 0 min 0,000 mm 0,0 UV-I 0 W/m 12,1 C 12,7 C 9,7 km/h (2 Bft) 100,00 %
01.06.2016 04:09 12,7 C 96 % 1010,3 hPa 0,0 l/m 8,7 km/h (2 Bft) SW 226 0 min 0,000 mm 0,0 UV-I 0 W/m 12,1 C 11,3 C 12,9 km/h (3 Bft) 96,55 %
01.06.2016 04:10 12,7 C 96 % 1010,3 hPa 0,0 l/m 11,1 km/h (2 Bft) W-SW 254 0 min 0,000 mm 0,0 UV-I 0 W/m 12,1 C 10,0 C 14,5 km/h (3 Bft) 100,00 %
01.06.2016 04:11 12,7 C 96 % 1010,3 hPa 0,2 l/m 8,7 km/h (2 Bft) SW 221 0 min 0,000 mm 0,0 UV-I 0 W/m 12,1 C 11,3 C 12,9 km/h (3 Bft) 100,00 %
01.06.2016 04:12 12,7 C 96 % 1010,3 hPa 0,0 l/m 11,4 km/h (2 Bft) SW 219 0 min 0,000 mm 0,0 UV-I 0 W/m 12,1 C 9,9 C 16,1 km/h (3 Bft) 100,00 %
01.06.2016 04:13 12,7 C 96 % 1010,3 hPa 0,0 l/m 7,4 km/h (2 Bft) SW 230 0 min 0,000 mm 0,0 UV-I 0 W/m 12,1 C 12,1 C 9,7 km/h (2 Bft) 100,00 %
01.06.2016 04:14 12,7 C 96 % 1010,3 hPa 0,0 l/m 12,5 km/h (3 Bft) SW 221 0 min 0,000 mm 0,0 UV-I 0 W/m 12,1 C 9,4 C 17,7 km/h (3 Bft) 95,83 %
01.06.2016 04:15 12,7 C 96 % 1010,3 hPa 0,0 l/m 7,4 km/h (2 Bft) W-SW 252 0 min 0,000 mm 0,0 UV-I 0 W/m 12,1 C 12,1 C 11,3 km/h (2 Bft) 100,00 %
01.06.2016 04:16 12,7 C 96 % 1010,3 hPa 0,0 l/m 5,8 km/h (2 Bft) W-SW 242 0 min 0,000 mm 0,0 UV-I 0 W/m 12,1 C 12,7 C 8,0 km/h (2 Bft) 100,00 %
01.06.2016 04:17 12,7 C 96 % 1010,3 hPa 0,0 l/m 7,0 km/h (2 Bft) W-SW 246 0 min 0,000 mm 0,0 UV-I 0 W/m 12,1 C 12,3 C 11,3 km/h (2 Bft) 100,00 %
01.06.2016 04:18 12,7 C 96 % 1010,3 hPa 0,2 l/m 10,3 km/h (2 Bft) SW 227 0 min 0,000 mm 0,0 UV-I 0 W/m 12,1 C 10,4 C 16,1 km/h (3 Bft) 100,00 %
01.06.2016 04:19 12,7 C 96 % 1010,3 hPa 0,0 l/m 9,3 km/h (2 Bft) W-SW 252 0 min 0,000 mm 0,0 UV-I 0 W/m 12,1 C 10,9 C 12,9 km/h (3 Bft) 100,00 %
01.06.2016 04:20 12,7 C 96 % 1010,2 hPa 0,0 l/m 7,5 km/h (2 Bft) SW 225 0 min 0,000 mm 0,0 UV-I 0 W/m 12,1 C 12,0 C 11,3 km/h (2 Bft) 100,00 %
01.06.2016 04:21 12,7 C 96 % 1010,2 hPa 0,0 l/m 9,9 km/h (2 Bft) SW 234 0 min 0,000 mm 0,0 UV-I 0 W/m 12,1 C 10,6 C 14,5 km/h (3 Bft) 100,00 %
01.06.2016 04:22 12,7 C 96 % 1010,2 hPa 0,0 l/m 8,1 km/h (2 Bft) W-SW 250 0 min 0,000 mm 0,0 UV-I 0 W/m 12,1 C 11,6 C 9,7 km/h (2 Bft) 95,83 %
01.06.2016 04:23 12,7 C 96 % 1010,2 hPa 0,0 l/m 8,9 km/h (2 Bft) SW 231 0 min 0,000 mm 0,0 UV-I 0 W/m 12,1 C 11,2 C 11,3 km/h (2 Bft) 100,00 %
01.06.2016 04:24 12,7 C 96 % 1010,2 hPa 0,0 l/m 7,6 km/h (2 Bft) W-SW 252 0 min 0,000 mm 0,0 UV-I 0 W/m 12,1 C 11,9 C 11,3 km/h (2 Bft) 85,71 %
01.06.2016 04:25 12,7 C 96 % 1010,2 hPa 0,0 l/m 9,6 km/h (2 Bft) SW 220 0 min 0,000 mm 0,0 UV-I 0 W/m 12,1 C 10,8 C 12,9 km/h (3 Bft) 100,00 %
01.06.2016 04:26 12,7 C 96 % 1010,2 hPa 0,0 l/m 7,2 km/h (2 Bft) W-SW 239 0 min 0,000 mm 0,0 UV-I 0 W/m 12,1 C 12,2 C 11,3 km/h (2 Bft) 92,31 %
01.06.2016 04:27 12,7 C 96 % 1010,2 hPa 0,2 l/m 6,0 km/h (2 Bft) S-SW 213 0 min 0,000 mm 0,0 UV-I 0 W/m 12,1 C 12,7 C 9,7 km/h (2 Bft) 100,00 %
01.06.2016 04:28 12,7 C 96 % 1010,1 hPa 0,0 l/m 5,7 km/h (1 Bft) SW 219 0 min 0,000 mm 0,0 UV-I 0 W/m 12,1 C 12,7 C 8,0 km/h (2 Bft) 91,30 %
01.06.2016 04:29 12,7 C 96 % 1010,1 hPa 0,0 l/m 6,9 km/h (2 Bft) W-SW 241 0 min 0,000 mm 0,0 UV-I 0 W/m 12,1 C 12,4 C 11,3 km/h (2 Bft) 91,67 %
01.06.2016 04:30 12,7 C 96 % 1010,1 hPa 0,0 l/m 6,0 km/h (2 Bft) S-SW 212 0 min 0,000 mm 0,0 UV-I 0 W/m 12,1 C 12,7 C 9,7 km/h (2 Bft) 100,00 %
01.06.2016 04:31 12,7 C 96 % 1010,1 hPa 0,0 l/m 6,0 km/h (2 Bft) S 188 0 min 0,000 mm 0,0 UV-I 0 W/m 12,1 C 12,7 C 9,7 km/h (2 Bft) 91,67 %
01.06.2016 04:32 12,6 C 96 % 1010,1 hPa 0,0 l/m 7,0 km/h (2 Bft) S-SW 194 0 min 0,000 mm 0,0 UV-I 0 W/m 12,0 C 12,2 C 11,3 km/h (2 Bft) 100,00 %
01.06.2016 04:33 12,7 C 96 % 1010,1 hPa 0,0 l/m 5,4 km/h (1 Bft) S-SW 207 0 min 0,000 mm 0,0 UV-I 0 W/m 12,1 C 12,7 C 6,4 km/h (2 Bft) 91,67 %
01.06.2016 04:34 12,7 C 96 % 1010,1 hPa 0,0 l/m 10,0 km/h (2 Bft) SW 223 0 min 0,000 mm 0,0 UV-I 0 W/m 12,1 C 10,6 C 14,5 km/h (3 Bft) 100,00 %
01.06.2016 04:35 12,6 C 96 % 1010,1 hPa 0,0 l/m 9,7 km/h (2 Bft) S 173 0 min 0,000 mm 0,0 UV-I 0 W/m 12,0 C 10,6 C 14,5 km/h (3 Bft) 96,30 %
01.06.2016 04:36 12,6 C 96 % 1010,2 hPa 0,0 l/m 6,8 km/h (2 Bft) S 180 0 min 0,000 mm 0,0 UV-I 0 W/m 12,0 C 12,4 C 9,7 km/h (2 Bft) 95,65 %
01.06.2016 04:37 12,6 C 96 % 1010,2 hPa 0,0 l/m 9,4 km/h (2 Bft) S-SW 200 0 min 0,000 mm 0,0 UV-I 0 W/m 12,0 C 10,8 C 16,1 km/h (3 Bft) 100,00 %
01.06.2016 04:38 12,6 C 96 % 1010,1 hPa 0,0 l/m 8,9 km/h (2 Bft) SW 214 0 min 0,000 mm 0,0 UV-I 0 W/m 12,0 C 11,1 C 12,9 km/h (3 Bft) 96,15 %
01.06.2016 04:39 12,6 C 96 % 1010,1 hPa 0,0 l/m 8,4 km/h (2 Bft) W-SW 238 0 min 0,000 mm 0,0 UV-I 0 W/m 12,0 C 11,3 C 11,3 km/h (2 Bft) 100,00 %
01.06.2016 04:40 12,7 C 96 % 1010,1 hPa 0,0 l/m 8,0 km/h (2 Bft) S-SW 211 0 min 0,000 mm 0,0 UV-I 0 W/m 12,1 C 11,7 C 11,3 km/h (2 Bft) 95,65 %
01.06.2016 04:41 12,6 C 96 % 1010,1 hPa 0,0 l/m 9,2 km/h (2 Bft) S 179 0 min 0,000 mm 0,0 UV-I 0 W/m 12,0 C 10,9 C 14,5 km/h (3 Bft) 100,00 %
01.06.2016 04:42 12,6 C 96 % 1010,1 hPa 0,0 l/m 8,9 km/h (2 Bft) SW 225 0 min 0,000 mm 0,0 UV-I 0 W/m 12,0 C 11,1 C 11,3 km/h (2 Bft) 95,65 %
01.06.2016 04:43 12,6 C 96 % 1010,1 hPa 0,0 l/m 5,5 km/h (1 Bft) SW 236 0 min 0,000 mm 0,0 UV-I 0 W/m 12,0 C 12,6 C 8,0 km/h (2 Bft) 95,83 %
01.06.2016 04:44 12,7 C 96 % 1010,1 hPa 0,0 l/m 9,8 km/h (2 Bft) S-SW 209 0 min 0,000 mm 0,0 UV-I 0 W/m 12,1 C 10,7 C 14,5 km/h (3 Bft) 100,00 %
01.06.2016 04:45 12,6 C 96 % 1010,1 hPa 0,0 l/m 11,1 km/h (2 Bft) S-SW 200 0 min 0,000 mm 0,0 UV-I 0 W/m 12,0 C 9,9 C 16,1 km/h (3 Bft) 95,65 %
01.06.2016 04:46 12,7 C 96 % 1010,1 hPa 0,0 l/m 8,0 km/h (2 Bft) SW 218 0 min 0,000 mm 0,0 UV-I 0 W/m 12,1 C 11,7 C 12,9 km/h (3 Bft) 100,00 %
01.06.2016 04:47 12,6 C 96 % 1010,1 hPa 0,0 l/m 10,0 km/h (2 Bft) S 186 0 min 0,000 mm 0,0 UV-I 0 W/m 12,0 C 10,5 C 12,9 km/h (3 Bft) 91,30 %
01.06.2016 04:48 12,7 C 96 % 1010,0 hPa 0,0 l/m 9,7 km/h (2 Bft) SW 229 0 min 0,000 mm 0,0 UV-I 0 W/m 12,1 C 10,7 C 12,9 km/h (3 Bft) 100,00 %
01.06.2016 04:49 12,7 C 96 % 1010,0 hPa 0,0 l/m 11,4 km/h (2 Bft) S-SW 213 0 min 0,000 mm 0,0 UV-I 0 W/m 12,1 C 9,9 C 12,9 km/h (3 Bft) 92,86 %
01.06.2016 04:50 12,7 C 96 % 1010,0 hPa 0,0 l/m 9,8 km/h (2 Bft) S-SW 195 0 min 0,000 mm 0,0 UV-I 0 W/m 12,1 C 10,7 C 14,5 km/h (3 Bft) 100,00 %
01.06.2016 04:51 12,6 C 96 % 1010,0 hPa 0,0 l/m 12,1 km/h (2 Bft) SW 229 0 min 0,000 mm 0,0 UV-I 0 W/m 12,0 C 9,5 C 16,1 km/h (3 Bft) 96,15 %
01.06.2016 04:52 12,7 C 96 % 1010,0 hPa 0,0 l/m 10,3 km/h (2 Bft) SW 217 0 min 0,000 mm 0,0 UV-I 0 W/m 12,1 C 10,4 C 19,3 km/h (3 Bft) 100,00 %
01.06.2016 04:53 12,7 C 96 % 1010,0 hPa 0,0 l/m 11,5 km/h (2 Bft) S 189 0 min 0,000 mm 0,0 UV-I 0 W/m 12,1 C 9,8 C 16,1 km/h (3 Bft) 95,65 %
01.06.2016 04:54 12,7 C 96 % 1010,0 hPa 0,0 l/m 11,1 km/h (2 Bft) S 189 0 min 0,000 mm 0,0 UV-I 0 W/m 12,1 C 10,0 C 14,5 km/h (3 Bft) 91,67 %
01.06.2016 04:55 12,6 C 96 % 1010,1 hPa 0,0 l/m 11,6 km/h (2 Bft) SW 217 0 min 0,000 mm 0,0 UV-I 0 W/m 12,0 C 9,7 C 14,5 km/h (3 Bft) 100,00 %
01.06.2016 04:56 12,7 C 96 % 1010,1 hPa 0,0 l/m 9,9 km/h (2 Bft) SW 233 0 min 0,000 mm 0,0 UV-I 0 W/m 12,1 C 10,6 C 12,9 km/h (3 Bft) 92,59 %
01.06.2016 04:57 12,7 C 96 % 1010,1 hPa 0,0 l/m 9,9 km/h (2 Bft) SW 236 0 min 0,000 mm 0,0 UV-I 0 W/m 12,1 C 10,6 C 12,9 km/h (3 Bft) 100,00 %
01.06.2016 04:58 12,7 C 96 % 1010,0 hPa 0,0 l/m 7,8 km/h (2 Bft) W-SW 248 0 min 0,000 mm 0,0 UV-I 0 W/m 12,1 C 11,8 C 9,7 km/h (2 Bft) 100,00 %
01.06.2016 04:59 12,7 C 96 % 1010,1 hPa 0,0 l/m 11,7 km/h (2 Bft) W-SW 238 0 min 0,000 mm 0,0 UV-I 0 W/m 12,1 C 9,8 C 16,1 km/h (3 Bft) 100,00 %
01.06.2016 05:00 12,7 C 96 % 1010,1 hPa 0,0 l/m 10,5 km/h (2 Bft) S-SW 209 0 min 0,000 mm 0,0 UV-I 0 W/m 12,1 C 10,3 C 14,5 km/h (3 Bft) 100,00 %
01.06.2016 05:01 12,7 C 96 % 1010,1 hPa 0,0 l/m 12,2 km/h (2 Bft) SW 236 0 min 0,000 mm 0,0 UV-I 0 W/m 12,1 C 9,5 C 19,3 km/h (3 Bft) 100,00 %
01.06.2016 05:02 12,7 C 96 % 1010,1 hPa 0,0 l/m 11,1 km/h (2 Bft) W 261 0 min 0,000 mm 0,0 UV-I 0 W/m 12,1 C 10,0 C 17,7 km/h (3 Bft) 100,00 %
01.06.2016 05:03 12,7 C 96 % 1010,1 hPa 0,0 l/m 12,2 km/h (2 Bft) SW 225 0 min 0,000 mm 0,0 UV-I 0 W/m 12,1 C 9,5 C 16,1 km/h (3 Bft) 95,83 %
01.06.2016 05:04 12,6 C 96 % 1010,1 hPa 0,0 l/m 8,5 km/h (2 Bft) W-SW 241 0 min 0,000 mm 0,0 UV-I 0 W/m 12,0 C 11,3 C 14,5 km/h (3 Bft) 95,65 %
01.06.2016 05:05 12,7 C 96 % 1010,1 hPa 0,0 l/m 10,4 km/h (2 Bft) S-SW 205 0 min 0,000 mm 0,0 UV-I 0 W/m 12,1 C 10,4 C 14,5 km/h (3 Bft) 100,00 %
01.06.2016 05:06 12,6 C 96 % 1010,1 hPa 0,0 l/m 11,0 km/h (2 Bft) W-SW 248 0 min 0,000 mm 0,0 UV-I 0 W/m 12,0 C 10,0 C 16,1 km/h (3 Bft) 100,00 %
01.06.2016 05:07 12,6 C 96 % 1010,0 hPa 0,0 l/m 8,8 km/h (2 Bft) SW 223 0 min 0,000 mm 0,0 UV-I 0 W/m 12,0 C 11,1 C 11,3 km/h (2 Bft) 95,83 %
01.06.2016 05:08 12,6 C 96 % 1010,1 hPa 0,0 l/m 9,7 km/h (2 Bft) W-SW 240 0 min 0,000 mm 0,0 UV-I 0 W/m 12,0 C 10,6 C 14,5 km/h (3 Bft) 96,15 %
01.06.2016 05:09 12,6 C 96 % 1010,1 hPa 0,0 l/m 11,8 km/h (2 Bft) SW 221 0 min 0,000 mm 0,0 UV-I 0 W/m 12,0 C 9,6 C 19,3 km/h (3 Bft) 100,00 %
01.06.2016 05:10 12,6 C 96 % 1010,0 hPa 0,0 l/m 11,6 km/h (2 Bft) W-SW 254 0 min 0,000 mm 0,0 UV-I 0 W/m 12,0 C 9,7 C 19,3 km/h (3 Bft) 100,00 %
01.06.2016 05:11 12,6 C 96 % 1010,1 hPa 0,0 l/m 8,9 km/h (2 Bft) W-SW 237 0 min 0,000 mm 0,0 UV-I 0 W/m 12,0 C 11,1 C 12,9 km/h (3 Bft) 100,00 %
01.06.2016 05:12 12,6 C 96 % 1010,1 hPa 0,0 l/m 15,0 km/h (3 Bft) SW 226 0 min 0,000 mm 0,0 UV-I 0 W/m 12,0 C 8,3 C 19,3 km/h (3 Bft) 100,00 %
01.06.2016 05:13 12,6 C 96 % 1010,1 hPa 0,0 l/m 14,6 km/h (3 Bft) SW 236 0 min 0,000 mm 0,0 UV-I 0 W/m 12,0 C 8,4 C 19,3 km/h (3 Bft) 100,00 %
01.06.2016 05:14 12,6 C 96 % 1010,2 hPa 0,0 l/m 9,4 km/h (2 Bft) SW 228 0 min 0,000 mm 0,0 UV-I 0 W/m 12,0 C 10,8 C 12,9 km/h (3 Bft) 100,00 %
01.06.2016 05:15 12,6 C 96 % 1010,2 hPa 0,2 l/m 15,0 km/h (3 Bft) W-SW 250 0 min 0,000 mm 0,0 UV-I 0 W/m 12,0 C 8,3 C 20,9 km/h (4 Bft) 100,00 %
01.06.2016 05:16 12,6 C 96 % 1010,2 hPa 0,0 l/m 15,1 km/h (3 Bft) SW 223 0 min 0,000 mm 0,0 UV-I 0 W/m 12,0 C 8,2 C 19,3 km/h (3 Bft) 100,00 %
01.06.2016 05:17 12,6 C 95 % 1010,2 hPa 0,0 l/m 13,9 km/h (3 Bft) S-SW 204 0 min 0,000 mm 0,0 UV-I 0 W/m 11,8 C 8,7 C 17,7 km/h (3 Bft) 95,83 %
01.06.2016 05:18 12,6 C 95 % 1010,2 hPa 0,0 l/m 16,7 km/h (3 Bft) SW 228 0 min 0,000 mm 0,0 UV-I 2 W/m 11,8 C 7,7 C 24,1 km/h (4 Bft) 100,00 %
01.06.2016 05:19 12,6 C 95 % 1010,2 hPa 0,0 l/m 15,3 km/h (3 Bft) W-SW 254 0 min 0,000 mm 0,0 UV-I 5 W/m 11,8 C 8,2 C 25,7 km/h (4 Bft) 100,00 %
01.06.2016 05:20 12,6 C 95 % 1010,2 hPa 0,0 l/m 14,4 km/h (3 Bft) W-SW 238 0 min 0,000 mm 0,0 UV-I 5 W/m 11,8 C 8,5 C 19,3 km/h (3 Bft) 100,00 %
01.06.2016 05:21 12,6 C 95 % 1010,2 hPa 0,0 l/m 15,3 km/h (3 Bft) W-SW 238 0 min 0,000 mm 0,0 UV-I 5 W/m 11,8 C 8,2 C 19,3 km/h (3 Bft) 100,00 %
01.06.2016 05:22 12,6 C 95 % 1010,2 hPa 0,0 l/m 8,9 km/h (2 Bft) W-SW 240 0 min 0,000 mm 0,0 UV-I 7 W/m 11,8 C 11,1 C 19,3 km/h (3 Bft) 100,00 %
01.06.2016 05:23 12,6 C 95 % 1010,1 hPa 0,0 l/m 11,7 km/h (2 Bft) SW 236 0 min 0,000 mm 0,0 UV-I 8 W/m 11,8 C 9,6 C 17,7 km/h (3 Bft) 100,00 %
01.06.2016 05:24 12,6 C 95 % 1010,1 hPa 0,0 l/m 11,3 km/h (2 Bft) W-SW 248 0 min 0,000 mm 0,0 UV-I 9 W/m 11,8 C 9,8 C 17,7 km/h (3 Bft) 100,00 %
01.06.2016 05:25 12,6 C 95 % 1010,1 hPa 0,0 l/m 13,1 km/h (3 Bft) SW 229 0 min 0,000 mm 0,0 UV-I 9 W/m 11,8 C 9,0 C 17,7 km/h (3 Bft) 100,00 %
01.06.2016 05:26 12,7 C 95 % 1010,1 hPa 0,0 l/m 13,0 km/h (3 Bft) SW 227 0 min 0,000 mm 0,0 UV-I 9 W/m 11,9 C 9,2 C 19,3 km/h (3 Bft) 91,67 %
01.06.2016 05:27 12,7 C 95 % 1010,1 hPa 0,0 l/m 12,9 km/h (3 Bft) SW 223 0 min 0,000 mm 0,0 UV-I 11 W/m 11,9 C 9,2 C 19,3 km/h (3 Bft) 95,65 %
01.06.2016 05:28 12,6 C 95 % 1010,1 hPa 0,0 l/m 13,3 km/h (3 Bft) SW 225 0 min 0,000 mm 0,0 UV-I 11 W/m 11,8 C 9,0 C 20,9 km/h (4 Bft) 95,83 %
01.06.2016 05:29 12,6 C 95 % 1010,2 hPa 0,0 l/m 12,1 km/h (2 Bft) SW 229 0 min 0,000 mm 0,0 UV-I 11 W/m 11,8 C 9,5 C 16,1 km/h (3 Bft) 100,00 %
01.06.2016 05:30 12,6 C 95 % 1010,1 hPa 0,0 l/m 10,7 km/h (2 Bft) SW 229 0 min 0,000 mm 0,0 UV-I 11 W/m 11,8 C 10,1 C 16,1 km/h (3 Bft) 100,00 %
01.06.2016 05:31 12,6 C 95 % 1010,2 hPa 0,0 l/m 11,8 km/h (2 Bft) W-SW 250 0 min 0,000 mm 0,0 UV-I 12 W/m 11,8 C 9,6 C 19,3 km/h (3 Bft) 100,00 %
01.06.2016 05:32 12,6 C 95 % 1010,2 hPa 0,0 l/m 11,3 km/h (2 Bft) SW 234 0 min 0,000 mm 0,0 UV-I 12 W/m 11,8 C 9,8 C 16,1 km/h (3 Bft) 100,00 %
01.06.2016 05:33 12,7 C 95 % 1010,2 hPa 0,0 l/m 13,4 km/h (3 Bft) SW 229 0 min 0,000 mm 0,0 UV-I 11 W/m 11,9 C 9,0 C 17,7 km/h (3 Bft) 95,65 %
01.06.2016 05:34 12,7 C 95 % 1010,2 hPa 0,0 l/m 11,1 km/h (2 Bft) SW 223 0 min 0,000 mm 0,0 UV-I 11 W/m 11,9 C 10,0 C 17,7 km/h (3 Bft) 100,00 %
01.06.2016 05:35 12,7 C 95 % 1010,2 hPa 0,0 l/m 14,3 km/h (3 Bft) SW 230 0 min 0,000 mm 0,0 UV-I 11 W/m 11,9 C 8,7 C 20,9 km/h (4 Bft) 100,00 %
01.06.2016 05:36 12,7 C 95 % 1010,2 hPa 0,0 l/m 12,5 km/h (3 Bft) SW 217 0 min 0,000 mm 0,0 UV-I 11 W/m 11,9 C 9,4 C 19,3 km/h (3 Bft) 100,00 %
01.06.2016 05:37 12,6 C 95 % 1010,2 hPa 0,0 l/m 8,6 km/h (2 Bft) SW 231 0 min 0,000 mm 0,0 UV-I 10 W/m 11,8 C 11,2 C 14,5 km/h (3 Bft) 100,00 %
01.06.2016 05:38 12,6 C 95 % 1010,2 hPa 0,0 l/m 6,9 km/h (2 Bft) SW 228 0 min 0,000 mm 0,0 UV-I 9 W/m 11,8 C 12,3 C 9,7 km/h (2 Bft) 100,00 %
01.06.2016 05:39 12,6 C 95 % 1010,2 hPa 0,0 l/m 10,1 km/h (2 Bft) W-SW 237 0 min 0,000 mm 0,0 UV-I 9 W/m 11,8 C 10,4 C 14,5 km/h (3 Bft) 100,00 %
01.06.2016 05:40 12,6 C 95 % 1010,2 hPa 0,0 l/m 7,7 km/h (2 Bft) S-SW 194 0 min 0,000 mm 0,0 UV-I 9 W/m 11,8 C 11,8 C 9,7 km/h (2 Bft) 100,00 %
01.06.2016 05:41 12,6 C 95 % 1010,2 hPa 0,0 l/m 7,2 km/h (2 Bft) SW 228 0 min 0,000 mm 0,0 UV-I 9 W/m 11,8 C 12,1 C 11,3 km/h (2 Bft) 100,00 %
01.06.2016 05:42 12,6 C 95 % 1010,2 hPa 0,0 l/m 5,8 km/h (2 Bft) SW 217 0 min 0,000 mm 0,0 UV-I 9 W/m 11,8 C 12,6 C 9,7 km/h (2 Bft) 100,00 %
01.06.2016 05:43 12,6 C 95 % 1010,2 hPa 0,0 l/m 12,3 km/h (3 Bft) SW 231 0 min 0,000 mm 0,0 UV-I 8 W/m 11,8 C 9,4 C 16,1 km/h (3 Bft) 100,00 %
01.06.2016 05:44 12,6 C 95 % 1010,2 hPa 0,0 l/m 9,4 km/h (2 Bft) W-SW 257 0 min 0,000 mm 0,0 UV-I 7 W/m 11,8 C 10,8 C 14,5 km/h (3 Bft) 100,00 %
01.06.2016 05:45 12,6 C 95 % 1010,2 hPa 0,0 l/m 9,1 km/h (2 Bft) SW 223 0 min 0,000 mm 0,0 UV-I 7 W/m 11,8 C 10,9 C 11,3 km/h (2 Bft) 100,00 %
01.06.2016 05:46 12,6 C 95 % 1010,2 hPa 0,0 l/m 9,4 km/h (2 Bft) S-SW 213 0 min 0,000 mm 0,0 UV-I 7 W/m 11,8 C 10,8 C 17,7 km/h (3 Bft) 100,00 %
01.06.2016 05:47 12,6 C 95 % 1010,2 hPa 0,0 l/m 9,4 km/h (2 Bft) W-SW 240 0 min 0,000 mm 0,0 UV-I 7 W/m 11,8 C 10,8 C 16,1 km/h (3 Bft) 100,00 %
01.06.2016 05:48 12,6 C 95 % 1010,3 hPa 0,0 l/m 6,7 km/h (2 Bft) S 186 0 min 0,000 mm 0,0 UV-I 7 W/m 11,8 C 12,4 C 11,3 km/h (2 Bft) 100,00 %
01.06.2016 05:49 12,6 C 95 % 1010,2 hPa 0,0 l/m 7,7 km/h (2 Bft) S-SW 200 0 min 0,000 mm 0,0 UV-I 8 W/m 11,8 C 11,8 C 11,3 km/h (2 Bft) 100,00 %
01.06.2016 05:50 12,6 C 95 % 1010,3 hPa 0,0 l/m 8,8 km/h (2 Bft) W-SW 247 0 min 0,000 mm 0,0 UV-I 9 W/m 11,8 C 11,1 C 14,5 km/h (3 Bft) 100,00 %
01.06.2016 05:51 12,6 C 95 % 1010,2 hPa 0,0 l/m 10,8 km/h (2 Bft) SW 215 0 min 0,000 mm 0,0 UV-I 9 W/m 11,8 C 10,1 C 14,5 km/h (3 Bft) 100,00 %
01.06.2016 05:52 12,6 C 95 % 1010,3 hPa 0,0 l/m 9,3 km/h (2 Bft) SW 218 0 min 0,000 mm 0,0 UV-I 9 W/m 11,8 C 10,8 C 14,5 km/h (3 Bft) 100,00 %
01.06.2016 05:53 12,6 C 95 % 1010,2 hPa 0,0 l/m 10,1 km/h (2 Bft) SW 235 0 min 0,000 mm 0,0 UV-I 9 W/m 11,8 C 10,4 C 14,5 km/h (3 Bft) 100,00 %
01.06.2016 05:54 12,6 C 95 % 1010,2 hPa 0,0 l/m 9,8 km/h (2 Bft) W-SW 243 0 min 0,000 mm 0,0 UV-I 10 W/m 11,8 C 10,6 C 14,5 km/h (3 Bft) 100,00 %
01.06.2016 05:55 12,7 C 95 % 1010,3 hPa 0,0 l/m 10,8 km/h (2 Bft) W-SW 245 0 min 0,000 mm 0,0 UV-I 11 W/m 11,9 C 10,2 C 17,7 km/h (3 Bft) 100,00 %
01.06.2016 05:56 12,7 C 95 % 1010,3 hPa 0,0 l/m 8,9 km/h (2 Bft) SW 215 0 min 0,000 mm 0,0 UV-I 9 W/m 11,9 C 11,2 C 14,5 km/h (3 Bft) 95,83 %
01.06.2016 05:57 12,6 C 95 % 1010,3 hPa 0,0 l/m 13,0 km/h (3 Bft) W-SW 244 0 min 0,000 mm 0,0 UV-I 9 W/m 11,8 C 9,1 C 16,1 km/h (3 Bft) 100,00 %
01.06.2016 05:58 12,6 C 95 % 1010,3 hPa 0,0 l/m 9,2 km/h (2 Bft) W-SW 245 0 min 0,000 mm 0,0 UV-I 9 W/m 11,8 C 10,9 C 14,5 km/h (3 Bft) 100,00 %
01.06.2016 05:59 12,7 C 95 % 1010,3 hPa 0,0 l/m 8,0 km/h (2 Bft) SW 229 0 min 0,000 mm 0,0 UV-I 8 W/m 11,9 C 11,7 C 12,9 km/h (3 Bft) 100,00 %
01.06.2016 06:00 12,6 C 95 % 1010,3 hPa 0,0 l/m 7,3 km/h (2 Bft) SW 214 0 min 0,000 mm 0,0 UV-I 7 W/m 11,8 C 12,0 C 12,9 km/h (3 Bft) 100,00 %
01.06.2016 06:01 12,6 C 95 % 1010,3 hPa 0,0 l/m 12,7 km/h (3 Bft) SW 227 0 min 0,000 mm 0,0 UV-I 7 W/m 11,8 C 9,2 C 16,1 km/h (3 Bft) 100,00 %
01.06.2016 06:02 12,6 C 95 % 1010,3 hPa 0,0 l/m 8,7 km/h (2 Bft) SW 231 0 min 0,000 mm 0,0 UV-I 7 W/m 11,8 C 11,2 C 11,3 km/h (2 Bft) 100,00 %
01.06.2016 06:03 12,6 C 95 % 1010,3 hPa 0,0 l/m 12,2 km/h (2 Bft) W-SW 240 0 min 0,000 mm 0,0 UV-I 7 W/m 11,8 C 9,4 C 16,1 km/h (3 Bft) 100,00 %
01.06.2016 06:04 12,7 C 95 % 1010,3 hPa 0,0 l/m 10,2 km/h (2 Bft) SW 229 0 min 0,000 mm 0,0 UV-I 7 W/m 11,9 C 10,5 C 12,9 km/h (3 Bft) 100,00 %
01.06.2016 06:05 12,7 C 95 % 1010,3 hPa 0,0 l/m 9,0 km/h (2 Bft) SW 218 0 min 0,000 mm 0,0 UV-I 7 W/m 11,9 C 11,1 C 11,3 km/h (2 Bft) 100,00 %
01.06.2016 06:06 12,6 C 95 % 1010,3 hPa 0,0 l/m 9,9 km/h (2 Bft) W-SW 251 0 min 0,000 mm 0,0 UV-I 7 W/m 11,8 C 10,5 C 14,5 km/h (3 Bft) 100,00 %
01.06.2016 06:07 12,6 C 95 % 1010,2 hPa 0,0 l/m 9,1 km/h (2 Bft) SW 229 0 min 0,000 mm 0,0 UV-I 7 W/m 11,8 C 10,9 C 16,1 km/h (3 Bft) 100,00 %
01.06.2016 06:08 12,6 C 95 % 1010,3 hPa 0,0 l/m 11,2 km/h (2 Bft) SW 216 0 min 0,000 mm 0,0 UV-I 7 W/m 11,8 C 9,9 C 16,1 km/h (3 Bft) 100,00 %
01.06.2016 06:09 12,6 C 95 % 1010,3 hPa 0,0 l/m 8,9 km/h (2 Bft) W-SW 243 0 min 0,000 mm 0,0 UV-I 7 W/m 11,8 C 11,1 C 14,5 km/h (3 Bft) 100,00 %
01.06.2016 06:10 12,6 C 95 % 1010,3 hPa 0,0 l/m 11,0 km/h (2 Bft) SW 229 0 min 0,000 mm 0,0 UV-I 7 W/m 11,8 C 10,0 C 16,1 km/h (3 Bft) 95,83 %
01.06.2016 06:11 12,6 C 94 % 1010,2 hPa 0,0 l/m 9,9 km/h (2 Bft) SW 223 0 min 0,000 mm 0,0 UV-I 7 W/m 11,7 C 10,5 C 14,5 km/h (3 Bft) 100,00 %
01.06.2016 06:12 12,6 C 94 % 1010,2 hPa 0,0 l/m 13,1 km/h (3 Bft) SW 228 0 min 0,000 mm 0,0 UV-I 8 W/m 11,7 C 9,0 C 17,7 km/h (3 Bft) 100,00 %
01.06.2016 06:13 12,6 C 94 % 1010,3 hPa 0,0 l/m 8,1 km/h (2 Bft) W-SW 242 0 min 0,000 mm 0,0 UV-I 9 W/m 11,7 C 11,5 C 11,3 km/h (2 Bft) 100,00 %
01.06.2016 06:14 12,6 C 94 % 1010,3 hPa 0,0 l/m 10,5 km/h (2 Bft) SW 236 0 min 0,000 mm 0,0 UV-I 9 W/m 11,7 C 10,2 C 16,1 km/h (3 Bft) 100,00 %
01.06.2016 06:15 12,6 C 94 % 1010,3 hPa 0,0 l/m 11,0 km/h (2 Bft) W-SW 238 0 min 0,000 mm 0,0 UV-I 11 W/m 11,7 C 10,0 C 14,5 km/h (3 Bft) 100,00 %
01.06.2016 06:16 12,6 C 94 % 1010,3 hPa 0,0 l/m 10,1 km/h (2 Bft) W-SW 246 0 min 0,000 mm 0,0 UV-I 11 W/m 11,7 C 10,4 C 16,1 km/h (3 Bft) 100,00 %
01.06.2016 06:17 12,6 C 94 % 1010,3 hPa 0,0 l/m 10,1 km/h (2 Bft) W-SW 238 0 min 0,000 mm 0,0 UV-I 12 W/m 11,7 C 10,4 C 14,5 km/h (3 Bft) 100,00 %
01.06.2016 06:18 12,6 C 94 % 1010,2 hPa 0,0 l/m 7,1 km/h (2 Bft) W-SW 237 0 min 0,000 mm 0,0 UV-I 12 W/m 11,7 C 12,2 C 12,9 km/h (3 Bft) 100,00 %
01.06.2016 06:19 12,6 C 94 % 1010,3 hPa 0,0 l/m 10,7 km/h (2 Bft) W-SW 245 0 min 0,000 mm 0,0 UV-I 12 W/m 11,7 C 10,1 C 16,1 km/h (3 Bft) 100,00 %
01.06.2016 06:20 12,6 C 94 % 1010,3 hPa 0,0 l/m 11,3 km/h (2 Bft) S-SW 211 0 min 0,000 mm 0,0 UV-I 12 W/m 11,7 C 9,8 C 16,1 km/h (3 Bft) 100,00 %
01.06.2016 06:21 12,6 C 94 % 1010,3 hPa 0,0 l/m 14,3 km/h (3 Bft) W-SW 243 0 min 0,000 mm 0,0 UV-I 14 W/m 11,7 C 8,6 C 17,7 km/h (3 Bft) 100,00 %
01.06.2016 06:22 12,6 C 94 % 1010,2 hPa 0,0 l/m 15,0 km/h (3 Bft) SW 223 0 min 0,000 mm 0,0 UV-I 13 W/m 11,7 C 8,3 C 19,3 km/h (3 Bft) 91,30 %
01.06.2016 06:23 12,6 C 94 % 1010,2 hPa 0,0 l/m 12,3 km/h (3 Bft) W-SW 258 0 min 0,000 mm 0,0 UV-I 12 W/m 11,7 C 9,4 C 16,1 km/h (3 Bft) 100,00 %
01.06.2016 06:24 12,6 C 94 % 1010,2 hPa 0,0 l/m 12,3 km/h (3 Bft) W-SW 241 0 min 0,000 mm 0,0 UV-I 12 W/m 11,7 C 9,4 C 16,1 km/h (3 Bft) 95,65 %
01.06.2016 06:25 12,6 C 94 % 1010,2 hPa 0,0 l/m 9,7 km/h (2 Bft) SW 217 0 min 0,000 mm 0,0 UV-I 12 W/m 11,7 C 10,6 C 14,5 km/h (3 Bft) 100,00 %
01.06.2016 06:26 12,6 C 94 % 1010,3 hPa 0,0 l/m 11,7 km/h (2 Bft) SW 229 0 min 0,000 mm 0,0 UV-I 12 W/m 11,7 C 9,6 C 16,1 km/h (3 Bft) 95,65 %
01.06.2016 06:27 12,6 C 94 % 1010,2 hPa 0,0 l/m 8,4 km/h (2 Bft) SW 217 0 min 0,000 mm 0,0 UV-I 16 W/m 11,7 C 11,3 C 14,5 km/h (3 Bft) 100,00 %
01.06.2016 06:28 12,6 C 94 % 1010,2 hPa 0,0 l/m 12,1 km/h (2 Bft) W-SW 246 0 min 0,000 mm 0,0 UV-I 16 W/m 11,7 C 9,5 C 17,7 km/h (3 Bft) 95,65 %
01.06.2016 06:29 12,6 C 94 % 1010,2 hPa 0,0 l/m 12,8 km/h (3 Bft) SW 228 0 min 0,000 mm 0,0 UV-I 16 W/m 11,7 C 9,2 C 17,7 km/h (3 Bft) 100,00 %
01.06.2016 06:30 12,6 C 94 % 1010,2 hPa 0,0 l/m 10,2 km/h (2 Bft) W 263 0 min 0,000 mm 0,0 UV-I 16 W/m 11,7 C 10,4 C 14,5 km/h (3 Bft) 95,65 %
01.06.2016 06:31 12,6 C 94 % 1010,2 hPa 0,0 l/m 11,9 km/h (2 Bft) W-SW 248 0 min 0,000 mm 0,0 UV-I 18 W/m 11,7 C 9,6 C 17,7 km/h (3 Bft) 96,30 %
01.06.2016 06:32 12,6 C 94 % 1010,3 hPa 0,0 l/m 14,4 km/h (3 Bft) W-SW 244 0 min 0,000 mm 0,0 UV-I 18 W/m 11,7 C 8,5 C 19,3 km/h (3 Bft) 100,00 %
01.06.2016 06:33 12,6 C 94 % 1010,2 hPa 0,0 l/m 11,3 km/h (2 Bft) S-SW 198 0 min 0,000 mm 0,0 UV-I 19 W/m 11,7 C 9,8 C 16,1 km/h (3 Bft) 95,83 %
01.06.2016 06:34 12,6 C 94 % 1010,2 hPa 0,0 l/m 10,5 km/h (2 Bft) SW 218 0 min 0,000 mm 0,0 UV-I 18 W/m 11,7 C 10,2 C 12,9 km/h (3 Bft) 100,00 %
01.06.2016 06:35 12,6 C 94 % 1010,3 hPa 0,0 l/m 10,7 km/h (2 Bft) W 260 0 min 0,000 mm 0,0 UV-I 18 W/m 11,7 C 10,1 C 16,1 km/h (3 Bft) 91,67 %
01.06.2016 06:36 12,6 C 94 % 1010,2 hPa 0,0 l/m 8,3 km/h (2 Bft) W-SW 238 0 min 0,000 mm 0,0 UV-I 19 W/m 11,7 C 11,4 C 12,9 km/h (3 Bft) 100,00 %
01.06.2016 06:37 12,6 C 94 % 1010,2 hPa 0,0 l/m 8,9 km/h (2 Bft) SW 215 0 min 0,000 mm 0,0 UV-I 18 W/m 11,7 C 11,1 C 12,9 km/h (3 Bft) 96,15 %
01.06.2016 06:38 12,6 C 94 % 1010,2 hPa 0,0 l/m 10,5 km/h (2 Bft) SW 224 0 min 0,000 mm 0,0 UV-I 18 W/m 11,7 C 10,2 C 16,1 km/h (3 Bft) 95,83 %
01.06.2016 06:39 12,6 C 94 % 1010,3 hPa 0,0 l/m 8,0 km/h (2 Bft) W-SW 246 0 min 0,000 mm 0,0 UV-I 20 W/m 11,7 C 11,6 C 11,3 km/h (2 Bft) 100,00 %
01.06.2016 06:40 12,6 C 94 % 1010,3 hPa 0,0 l/m 10,6 km/h (2 Bft) W-SW 239 0 min 0,000 mm 0,0 UV-I 22 W/m 11,7 C 10,2 C 16,1 km/h (3 Bft) 91,67 %
01.06.2016 06:41 12,6 C 94 % 1010,3 hPa 0,0 l/m 8,9 km/h (2 Bft) SW 229 0 min 0,000 mm 0,0 UV-I 23 W/m 11,7 C 11,1 C 16,1 km/h (3 Bft) 100,00 %
01.06.2016 06:42 12,6 C 94 % 1010,2 hPa 0,0 l/m 8,2 km/h (2 Bft) W-SW 242 0 min 0,000 mm 0,0 UV-I 24 W/m 11,7 C 11,5 C 11,3 km/h (2 Bft) 95,83 %
01.06.2016 06:43 12,6 C 94 % 1010,3 hPa 0,0 l/m 10,8 km/h (2 Bft) SW 229 0 min 0,000 mm 0,0 UV-I 25 W/m 11,7 C 10,1 C 16,1 km/h (3 Bft) 100,00 %
01.06.2016 06:44 12,6 C 94 % 1010,3 hPa 0,0 l/m 10,5 km/h (2 Bft) SW 224 0 min 0,000 mm 0,0 UV-I 25 W/m 11,7 C 10,2 C 14,5 km/h (3 Bft) 95,83 %
01.06.2016 06:45 12,6 C 94 % 1010,3 hPa 0,0 l/m 9,2 km/h (2 Bft) W-SW 252 0 min 0,000 mm 0,0 UV-I 27 W/m 11,7 C 10,9 C 12,9 km/h (3 Bft) 95,65 %
01.06.2016 06:46 12,6 C 94 % 1010,3 hPa 0,0 l/m 8,1 km/h (2 Bft) SW 219 0 min 0,000 mm 0,0 UV-I 28 W/m 11,7 C 11,5 C 11,3 km/h (2 Bft) 100,00 %
01.06.2016 06:47 12,6 C 94 % 1010,3 hPa 0,0 l/m 9,8 km/h (2 Bft) W-SW 253 0 min 0,000 mm 0,0 UV-I 28 W/m 11,7 C 10,6 C 12,9 km/h (3 Bft) 95,65 %
01.06.2016 06:48 12,6 C 94 % 1010,3 hPa 0,0 l/m 10,6 km/h (2 Bft) SW 233 0 min 0,000 mm 0,0 UV-I 28 W/m 11,7 C 10,2 C 14,5 km/h (3 Bft) 100,00 %
01.06.2016 06:49 12,6 C 94 % 1010,3 hPa 0,0 l/m 10,3 km/h (2 Bft) SW 229 0 min 0,000 mm 0,0 UV-I 30 W/m 11,7 C 10,3 C 16,1 km/h (3 Bft) 96,15 %
01.06.2016 06:50 12,6 C 94 % 1010,3 hPa 0,0 l/m 12,3 km/h (3 Bft) W-SW 244 0 min 0,000 mm 0,0 UV-I 32 W/m 11,7 C 9,4 C 17,7 km/h (3 Bft) 100,00 %
01.06.2016 06:51 12,6 C 94 % 1010,3 hPa 0,0 l/m 10,9 km/h (2 Bft) SW 234 0 min 0,000 mm 0,0 UV-I 34 W/m 11,7 C 10,0 C 16,1 km/h (3 Bft) 95,65 %
01.06.2016 06:52 12,6 C 94 % 1010,3 hPa 0,0 l/m 11,0 km/h (2 Bft) SW 226 0 min 0,000 mm 0,0 UV-I 36 W/m 11,7 C 10,0 C 19,3 km/h (3 Bft) 95,83 %
01.06.2016 06:53 12,6 C 94 % 1010,3 hPa 0,0 l/m 11,1 km/h (2 Bft) W-SW 252 0 min 0,000 mm 0,0 UV-I 38 W/m 11,7 C 9,9 C 14,5 km/h (3 Bft) 100,00 %
01.06.2016 06:54 12,6 C 94 % 1010,3 hPa 0,0 l/m 9,0 km/h (2 Bft) S-SW 207 0 min 0,000 mm 0,0 UV-I 40 W/m 11,7 C 11,0 C 12,9 km/h (3 Bft) 95,83 %
01.06.2016 06:55 12,6 C 94 % 1010,3 hPa 0,0 l/m 9,9 km/h (2 Bft) SW 227 0 min 0,000 mm 0,0 UV-I 40 W/m 11,7 C 10,5 C 12,9 km/h (3 Bft) 100,00 %
01.06.2016 06:56 12,6 C 94 % 1010,3 hPa 0,0 l/m 9,9 km/h (2 Bft) W-SW 240 0 min 0,000 mm 0,0 UV-I 39 W/m 11,7 C 10,5 C 14,5 km/h (3 Bft) 100,00 %
01.06.2016 06:57 12,6 C 94 % 1010,3 hPa 0,0 l/m 7,3 km/h (2 Bft) SW 232 0 min 0,000 mm 0,0 UV-I 38 W/m 11,7 C 12,0 C 11,3 km/h (2 Bft) 91,67 %
01.06.2016 06:58 12,6 C 95 % 1010,3 hPa 0,0 l/m 7,1 km/h (2 Bft) W-SW 242 0 min 0,000 mm 0,0 UV-I 37 W/m 11,8 C 12,2 C 11,3 km/h (2 Bft) 100,00 %
01.06.2016 06:59 12,6 C 95 % 1010,4 hPa 0,0 l/m 7,0 km/h (2 Bft) S-SW 208 0 min 0,000 mm 0,0 UV-I 36 W/m 11,8 C 12,2 C 8,0 km/h (2 Bft) 100,00 %
01.06.2016 07:00 12,6 C 95 % 1010,4 hPa 0,0 l/m 10,5 km/h (2 Bft) SW 236 0 min 0,025 mm 0,0 UV-I 35 W/m 11,8 C 10,2 C 20,9 km/h (4 Bft) 96,15 %
01.06.2016 07:01 12,6 C 95 % 1010,3 hPa 0,0 l/m 12,9 km/h (3 Bft) W-SW 247 0 min 0,000 mm 0,0 UV-I 35 W/m 11,8 C 9,1 C 20,9 km/h (4 Bft) 100,00 %
01.06.2016 07:02 12,6 C 95 % 1010,4 hPa 0,0 l/m 8,5 km/h (2 Bft) SW 232 0 min 0,000 mm 0,0 UV-I 33 W/m 11,8 C 11,3 C 16,1 km/h (3 Bft) 100,00 %
01.06.2016 07:03 12,6 C 94 % 1010,4 hPa 0,0 l/m 8,2 km/h (2 Bft) W-SW 240 0 min 0,000 mm 0,0 UV-I 33 W/m 11,7 C 11,5 C 14,5 km/h (3 Bft) 100,00 %
01.06.2016 07:04 12,6 C 95 % 1010,4 hPa 0,0 l/m 9,9 km/h (2 Bft) W 266 0 min 0,000 mm 0,0 UV-I 33 W/m 11,8 C 10,5 C 14,5 km/h (3 Bft) 100,00 %
01.06.2016 07:05 12,6 C 95 % 1010,4 hPa 0,0 l/m 8,0 km/h (2 Bft) SW 216 0 min 0,000 mm 0,0 UV-I 33 W/m 11,8 C 11,6 C 11,3 km/h (2 Bft) 100,00 %
01.06.2016 07:06 12,6 C 95 % 1010,5 hPa 0,0 l/m 12,7 km/h (3 Bft) W-SW 239 0 min 0,000 mm 0,0 UV-I 33 W/m 11,8 C 9,2 C 17,7 km/h (3 Bft) 95,65 %
01.06.2016 07:07 12,6 C 95 % 1010,5 hPa 0,0 l/m 7,4 km/h (2 Bft) W-SW 242 0 min 0,000 mm 0,0 UV-I 33 W/m 11,8 C 12,0 C 9,7 km/h (2 Bft) 100,00 %
01.06.2016 07:08 12,6 C 95 % 1010,5 hPa 0,0 l/m 6,0 km/h (2 Bft) W 259 0 min 0,000 mm 0,0 UV-I 32 W/m 11,8 C 12,6 C 8,0 km/h (2 Bft) 100,00 %
01.06.2016 07:09 12,6 C 95 % 1010,5 hPa 0,0 l/m 6,2 km/h (2 Bft) SW 221 0 min 0,000 mm 0,0 UV-I 32 W/m 11,8 C 12,6 C 8,0 km/h (2 Bft) 95,83 %
01.06.2016 07:10 12,6 C 95 % 1010,5 hPa 0,0 l/m 7,2 km/h (2 Bft) W-SW 243 0 min 0,000 mm 0,0 UV-I 32 W/m 11,8 C 12,1 C 9,7 km/h (2 Bft) 100,00 %
01.06.2016 07:11 12,6 C 95 % 1010,5 hPa 0,0 l/m 7,4 km/h (2 Bft) W-SW 243 0 min 0,000 mm 0,0 UV-I 33 W/m 11,8 C 12,0 C 9,7 km/h (2 Bft) 100,00 %
01.06.2016 07:12 12,6 C 95 % 1010,5 hPa 0,0 l/m 4,6 km/h (1 Bft) W-SW 248 0 min 0,000 mm 0,0 UV-I 33 W/m 11,8 C 12,6 C 8,0 km/h (2 Bft) 100,00 %
01.06.2016 07:13 12,6 C 95 % 1010,5 hPa 0,0 l/m 4,0 km/h (1 Bft) W-SW 246 0 min 0,000 mm 0,0 UV-I 35 W/m 11,8 C 12,6 C 6,4 km/h (2 Bft) 100,00 %
01.06.2016 07:14 12,6 C 95 % 1010,5 hPa 0,0 l/m 6,3 km/h (2 Bft) SW 236 0 min 0,000 mm 0,0 UV-I 37 W/m 11,8 C 12,6 C 11,3 km/h (2 Bft) 100,00 %
01.06.2016 07:15 12,6 C 95 % 1010,5 hPa 0,0 l/m 8,5 km/h (2 Bft) W-SW 240 0 min 0,000 mm 0,0 UV-I 37 W/m 11,8 C 11,3 C 11,3 km/h (2 Bft) 95,83 %
01.06.2016 07:16 12,6 C 95 % 1010,5 hPa 0,0 l/m 8,2 km/h (2 Bft) W-SW 254 0 min 0,000 mm 0,0 UV-I 37 W/m 11,8 C 11,5 C 12,9 km/h (3 Bft) 100,00 %
01.06.2016 07:17 12,6 C 95 % 1010,5 hPa 0,0 l/m 8,4 km/h (2 Bft) W-SW 237 0 min 0,000 mm 0,0 UV-I 38 W/m 11,8 C 11,3 C 12,9 km/h (3 Bft) 95,83 %
01.06.2016 07:18 12,6 C 95 % 1010,4 hPa 0,0 l/m 8,8 km/h (2 Bft) W-SW 247 0 min 0,000 mm 0,0 UV-I 39 W/m 11,8 C 11,1 C 14,5 km/h (3 Bft) 96,15 %
01.06.2016 07:19 12,6 C 95 % 1010,5 hPa 0,0 l/m 9,5 km/h (2 Bft) W-SW 248 0 min 0,000 mm 0,0 UV-I 39 W/m 11,8 C 10,7 C 12,9 km/h (3 Bft) 100,00 %
01.06.2016 07:20 12,6 C 95 % 1010,4 hPa 0,0 l/m 9,4 km/h (2 Bft) W-SW 248 0 min 0,000 mm 0,0 UV-I 41 W/m 11,8 C 10,8 C 12,9 km/h (3 Bft) 100,00 %
01.06.2016 07:21 12,6 C 95 % 1010,5 hPa 0,0 l/m 7,8 km/h (2 Bft) SW 236 0 min 0,000 mm 0,0 UV-I 44 W/m 11,8 C 11,7 C 12,9 km/h (3 Bft) 100,00 %
01.06.2016 07:22 12,6 C 95 % 1010,5 hPa 0,0 l/m 8,3 km/h (2 Bft) SW 221 0 min 0,000 mm 0,0 UV-I 48 W/m 11,8 C 11,4 C 12,9 km/h (3 Bft) 100,00 %
01.06.2016 07:23 12,6 C 95 % 1010,5 hPa 0,0 l/m 9,3 km/h (2 Bft) W-SW 252 0 min 0,000 mm 0,0 UV-I 52 W/m 11,8 C 10,8 C 14,5 km/h (3 Bft) 96,15 %
01.06.2016 07:24 12,6 C 95 % 1010,4 hPa 0,0 l/m 9,5 km/h (2 Bft) W-SW 258 0 min 0,000 mm 0,0 UV-I 51 W/m 11,8 C 10,7 C 12,9 km/h (3 Bft) 100,00 %
01.06.2016 07:25 12,6 C 95 % 1010,4 hPa 0,0 l/m 8,2 km/h (2 Bft) SW 234 0 min 0,000 mm 0,0 UV-I 47 W/m 11,8 C 11,5 C 14,5 km/h (3 Bft) 95,65 %
01.06.2016 07:26 12,6 C 95 % 1010,5 hPa 0,0 l/m 8,1 km/h (2 Bft) W-SW 238 0 min 0,000 mm 0,0 UV-I 43 W/m 11,8 C 11,5 C 12,9 km/h (3 Bft) 100,00 %
01.06.2016 07:27 12,6 C 95 % 1010,4 hPa 0,0 l/m 6,8 km/h (2 Bft) W-SW 256 0 min 0,000 mm 0,0 UV-I 44 W/m 11,8 C 12,4 C 12,9 km/h (3 Bft) 100,00 %
01.06.2016 07:28 12,7 C 95 % 1010,5 hPa 0,0 l/m 8,0 km/h (2 Bft) SW 215 0 min 0,000 mm 0,0 UV-I 48 W/m 11,9 C 11,7 C 11,3 km/h (2 Bft) 100,00 %
01.06.2016 07:29 12,7 C 95 % 1010,4 hPa 0,0 l/m 7,9 km/h (2 Bft) W 259 0 min 0,000 mm 0,0 UV-I 50 W/m 11,9 C 11,7 C 9,7 km/h (2 Bft) 100,00 %
01.06.2016 07:30 12,7 C 95 % 1010,5 hPa 0,0 l/m 8,0 km/h (2 Bft) W-SW 252 0 min 0,000 mm 0,0 UV-I 51 W/m 11,9 C 11,7 C 12,9 km/h (3 Bft) 100,00 %
01.06.2016 07:31 12,7 C 95 % 1010,4 hPa 0,0 l/m 8,0 km/h (2 Bft) W-SW 250 0 min 0,000 mm 0,0 UV-I 49 W/m 11,9 C 11,7 C 11,3 km/h (2 Bft) 100,00 %
01.06.2016 07:32 12,7 C 95 % 1010,5 hPa 0,0 l/m 7,4 km/h (2 Bft) W-SW 244 0 min 0,000 mm 0,0 UV-I 49 W/m 11,9 C 12,1 C 9,7 km/h (2 Bft) 100,00 %
01.06.2016 07:33 12,7 C 95 % 1010,5 hPa 0,0 l/m 8,0 km/h (2 Bft) W 259 0 min 0,000 mm 0,0 UV-I 50 W/m 11,9 C 11,7 C 11,3 km/h (2 Bft) 100,00 %
01.06.2016 07:34 12,7 C 95 % 1010,5 hPa 0,0 l/m 8,0 km/h (2 Bft) SW 231 0 min 0,000 mm 0,0 UV-I 51 W/m 11,9 C 11,7 C 11,3 km/h (2 Bft) 100,00 %
01.06.2016 07:35 12,7 C 95 % 1010,5 hPa 0,0 l/m 6,2 km/h (2 Bft) W-SW 239 0 min 0,000 mm 0,0 UV-I 47 W/m 11,9 C 12,7 C 9,7 km/h (2 Bft) 100,00 %
01.06.2016 07:36 12,7 C 95 % 1010,5 hPa 0,0 l/m 6,3 km/h (2 Bft) S-SW 198 0 min 0,000 mm 0,0 UV-I 44 W/m 11,9 C 12,7 C 9,7 km/h (2 Bft) 100,00 %
01.06.2016 07:37 12,7 C 95 % 1010,5 hPa 0,0 l/m 8,3 km/h (2 Bft) W-SW 257 0 min 0,000 mm 0,0 UV-I 44 W/m 11,9 C 11,5 C 11,3 km/h (2 Bft) 100,00 %
01.06.2016 07:38 12,7 C 95 % 1010,5 hPa 0,0 l/m 8,3 km/h (2 Bft) W 263 0 min 0,000 mm 0,0 UV-I 43 W/m 11,9 C 11,5 C 11,3 km/h (2 Bft) 100,00 %
01.06.2016 07:39 12,7 C 95 % 1010,5 hPa 0,0 l/m 7,2 km/h (2 Bft) W-SW 246 0 min 0,000 mm 0,0 UV-I 41 W/m 11,9 C 12,2 C 11,3 km/h (2 Bft) 100,00 %
01.06.2016 07:40 12,7 C 95 % 1010,5 hPa 0,0 l/m 5,7 km/h (1 Bft) W 260 0 min 0,000 mm 0,0 UV-I 38 W/m 11,9 C 12,7 C 11,3 km/h (2 Bft) 95,65 %
01.06.2016 07:41 12,7 C 95 % 1010,5 hPa 0,0 l/m 5,3 km/h (1 Bft) SW 235 0 min 0,000 mm 0,0 UV-I 36 W/m 11,9 C 12,7 C 8,0 km/h (2 Bft) 100,00 %
01.06.2016 07:42 12,7 C 95 % 1010,5 hPa 0,0 l/m 5,8 km/h (2 Bft) W-SW 249 0 min 0,000 mm 0,0 UV-I 33 W/m 11,9 C 12,7 C 8,0 km/h (2 Bft) 100,00 %
01.06.2016 07:43 12,7 C 95 % 1010,6 hPa 0,0 l/m 4,2 km/h (1 Bft) W 261 0 min 0,000 mm 0,0 UV-I 32 W/m 11,9 C 12,7 C 6,4 km/h (2 Bft) 100,00 %
01.06.2016 07:44 12,7 C 95 % 1010,6 hPa 0,0 l/m 3,9 km/h (1 Bft) W-SW 254 0 min 0,000 mm 0,0 UV-I 31 W/m 11,9 C 12,7 C 6,4 km/h (2 Bft) 100,00 %
01.06.2016 07:45 12,7 C 95 % 1010,6 hPa 0,0 l/m 9,0 km/h (2 Bft) W-SW 244 0 min 0,000 mm 0,0 UV-I 30 W/m 11,9 C 11,1 C 11,3 km/h (2 Bft) 100,00 %
01.06.2016 07:46 12,7 C 95 % 1010,6 hPa 0,0 l/m 5,8 km/h (2 Bft) W-SW 247 0 min 0,000 mm 0,0 UV-I 29 W/m 11,9 C 12,7 C 9,7 km/h (2 Bft) 100,00 %
01.06.2016 07:47 12,7 C 95 % 1010,6 hPa 0,0 l/m 5,2 km/h (1 Bft) SW 228 0 min 0,000 mm 0,0 UV-I 28 W/m 11,9 C 12,7 C 6,4 km/h (2 Bft) 100,00 %
01.06.2016 07:48 12,7 C 95 % 1010,6 hPa 0,0 l/m 4,6 km/h (1 Bft) W-SW 242 0 min 0,000 mm 0,0 UV-I 26 W/m 11,9 C 12,7 C 6,4 km/h (2 Bft) 95,65 %
01.06.2016 07:49 12,7 C 95 % 1010,6 hPa 0,0 l/m 6,0 km/h (2 Bft) W-SW 246 0 min 0,000 mm 0,0 UV-I 25 W/m 11,9 C 12,7 C 8,0 km/h (2 Bft) 100,00 %
01.06.2016 07:50 12,7 C 95 % 1010,5 hPa 0,0 l/m 6,8 km/h (2 Bft) W 275 0 min 0,000 mm 0,0 UV-I 25 W/m 11,9 C 12,5 C 11,3 km/h (2 Bft) 100,00 %
01.06.2016 07:51 12,7 C 95 % 1010,6 hPa 0,0 l/m 5,0 km/h (1 Bft) SW 226 0 min 0,000 mm 0,0 UV-I 26 W/m 11,9 C 12,7 C 8,0 km/h (2 Bft) 100,00 %
01.06.2016 07:52 12,7 C 95 % 1010,5 hPa 0,0 l/m 5,4 km/h (1 Bft) SW 228 0 min 0,000 mm 0,0 UV-I 26 W/m 11,9 C 12,7 C 6,4 km/h (2 Bft) 100,00 %
01.06.2016 07:53 12,7 C 95 % 1010,5 hPa 0,0 l/m 6,6 km/h (2 Bft) SW 219 0 min 0,000 mm 0,0 UV-I 26 W/m 11,9 C 12,6 C 9,7 km/h (2 Bft) 100,00 %
01.06.2016 07:54 12,7 C 95 % 1010,5 hPa 0,0 l/m 7,0 km/h (2 Bft) S-SW 213 0 min 0,000 mm 0,0 UV-I 26 W/m 11,9 C 12,3 C 9,7 km/h (2 Bft) 100,00 %
01.06.2016 07:55 12,7 C 95 % 1010,5 hPa 0,0 l/m 4,7 km/h (1 Bft) SW 229 0 min 0,000 mm 0,0 UV-I 26 W/m 11,9 C 12,7 C 9,7 km/h (2 Bft) 91,67 %
01.06.2016 07:56 12,7 C 95 % 1010,5 hPa 0,0 l/m 2,8 km/h (1 Bft) SW 227 0 min 0,000 mm 0,0 UV-I 29 W/m 11,9 C 12,7 C 6,4 km/h (2 Bft) 100,00 %
01.06.2016 07:57 12,7 C 95 % 1010,5 hPa 0,0 l/m 6,5 km/h (2 Bft) SW 221 0 min 0,000 mm 0,0 UV-I 31 W/m 11,9 C 12,7 C 8,0 km/h (2 Bft) 100,00 %
01.06.2016 07:58 12,7 C 95 % 1010,6 hPa 0,0 l/m 4,8 km/h (1 Bft) W-SW 242 0 min 0,000 mm 0,0 UV-I 32 W/m 11,9 C 12,7 C 6,4 km/h (2 Bft) 100,00 %
01.06.2016 07:59 12,7 C 95 % 1010,6 hPa 0,0 l/m 6,1 km/h (2 Bft) S-SW 209 0 min 0,000 mm 0,0 UV-I 32 W/m 11,9 C 12,7 C 8,0 km/h (2 Bft) 100,00 %
01.06.2016 08:00 12,7 C 95 % 1010,6 hPa 0,0 l/m 6,3 km/h (2 Bft) S-SW 192 0 min 0,000 mm 0,0 UV-I 33 W/m 11,9 C 12,7 C 11,3 km/h (2 Bft) 100,00 %
01.06.2016 08:01 12,7 C 95 % 1010,6 hPa 0,0 l/m 5,2 km/h (1 Bft) S-SW 209 0 min 0,026 mm 0,0 UV-I 34 W/m 11,9 C 12,7 C 8,0 km/h (2 Bft) 100,00 %
01.06.2016 08:02 12,7 C 95 % 1010,6 hPa 0,0 l/m 6,7 km/h (2 Bft) S 178 0 min 0,000 mm 0,0 UV-I 36 W/m 11,9 C 12,5 C 11,3 km/h (2 Bft) 100,00 %
01.06.2016 08:03 12,7 C 95 % 1010,6 hPa 0,0 l/m 4,7 km/h (1 Bft) S-SW 203 0 min 0,000 mm 0,0 UV-I 37 W/m 11,9 C 12,7 C 6,4 km/h (2 Bft) 100,00 %
01.06.2016 08:04 12,8 C 95 % 1010,5 hPa 0,0 l/m 4,8 km/h (1 Bft) SW 217 0 min 0,000 mm 0,0 UV-I 37 W/m 12,0 C 12,8 C 8,0 km/h (2 Bft) 100,00 %
01.06.2016 08:05 12,8 C 95 % 1010,6 hPa 0,0 l/m 5,2 km/h (1 Bft) S 189 0 min 0,000 mm 0,0 UV-I 37 W/m 12,0 C 12,8 C 8,0 km/h (2 Bft) 100,00 %
01.06.2016 08:06 12,8 C 95 % 1010,6 hPa 0,0 l/m 6,2 km/h (2 Bft) S-SW 207 0 min 0,000 mm 0,0 UV-I 36 W/m 12,0 C 12,8 C 9,7 km/h (2 Bft) 95,83 %
01.06.2016 08:07 12,8 C 95 % 1010,6 hPa 0,0 l/m 5,5 km/h (1 Bft) S-SW 198 0 min 0,000 mm 0,0 UV-I 33 W/m 12,0 C 12,8 C 9,7 km/h (2 Bft) 95,65 %
01.06.2016 08:08 12,8 C 95 % 1010,6 hPa 0,2 l/m 5,0 km/h (1 Bft) SW 217 0 min 0,000 mm 0,0 UV-I 33 W/m 12,0 C 12,8 C 8,0 km/h (2 Bft) 100,00 %
01.06.2016 08:09 12,8 C 95 % 1010,6 hPa 0,0 l/m 6,5 km/h (2 Bft) S-SW 195 0 min 0,000 mm 0,0 UV-I 33 W/m 12,0 C 12,8 C 9,7 km/h (2 Bft) 100,00 %
01.06.2016 08:10 12,8 C 95 % 1010,6 hPa 0,0 l/m 6,4 km/h (2 Bft) S-SW 207 0 min 0,000 mm 0,0 UV-I 33 W/m 12,0 C 12,8 C 8,0 km/h (2 Bft) 100,00 %
01.06.2016 08:11 12,8 C 95 % 1010,6 hPa 0,0 l/m 4,9 km/h (1 Bft) SW 217 0 min 0,000 mm 0,0 UV-I 33 W/m 12,0 C 12,8 C 8,0 km/h (2 Bft) 100,00 %
01.06.2016 08:12 12,8 C 95 % 1010,6 hPa 0,0 l/m 4,2 km/h (1 Bft) SW 224 0 min 0,000 mm 0,0 UV-I 33 W/m 12,0 C 12,8 C 6,4 km/h (2 Bft) 100,00 %
01.06.2016 08:13 12,8 C 95 % 1010,6 hPa 0,0 l/m 6,1 km/h (2 Bft) SW 227 0 min 0,000 mm 0,0 UV-I 35 W/m 12,0 C 12,8 C 8,0 km/h (2 Bft) 100,00 %
01.06.2016 08:14 12,8 C 95 % 1010,6 hPa 0,0 l/m 6,0 km/h (2 Bft) S-SW 204 0 min 0,000 mm 0,0 UV-I 36 W/m 12,0 C 12,8 C 8,0 km/h (2 Bft) 100,00 %
01.06.2016 08:15 12,8 C 95 % 1010,6 hPa 0,0 l/m 9,1 km/h (2 Bft) S 172 0 min 0,000 mm 0,0 UV-I 38 W/m 12,0 C 11,2 C 12,9 km/h (3 Bft) 100,00 %
01.06.2016 08:16 12,8 C 95 % 1010,6 hPa 0,2 l/m 6,4 km/h (2 Bft) S-SW 206 0 min 0,000 mm 0,0 UV-I 40 W/m 12,0 C 12,8 C 8,0 km/h (2 Bft) 100,00 %
01.06.2016 08:17 12,8 C 95 % 1010,6 hPa 0,0 l/m 6,6 km/h (2 Bft) SW 223 0 min 0,000 mm 0,0 UV-I 44 W/m 12,0 C 12,7 C 9,7 km/h (2 Bft) 100,00 %
01.06.2016 08:18 12,8 C 95 % 1010,6 hPa 0,0 l/m 9,0 km/h (2 Bft) S-SW 212 0 min 0,000 mm 0,0 UV-I 48 W/m 12,0 C 11,2 C 11,3 km/h (2 Bft) 100,00 %
01.06.2016 08:19 12,8 C 95 % 1010,6 hPa 0,0 l/m 7,1 km/h (2 Bft) S-SW 205 0 min 0,000 mm 0,0 UV-I 52 W/m 12,0 C 12,4 C 8,0 km/h (2 Bft) 100,00 %
01.06.2016 08:20 12,8 C 95 % 1010,6 hPa 0,0 l/m 4,6 km/h (1 Bft) S-SW 209 0 min 0,000 mm 0,0 UV-I 55 W/m 12,0 C 12,8 C 6,4 km/h (2 Bft) 100,00 %
01.06.2016 08:21 12,8 C 95 % 1010,6 hPa 0,0 l/m 4,6 km/h (1 Bft) S-SW 194 0 min 0,000 mm 0,0 UV-I 57 W/m 12,0 C 12,8 C 9,7 km/h (2 Bft) 100,00 %
01.06.2016 08:22 12,8 C 95 % 1010,6 hPa 0,0 l/m 6,4 km/h (2 Bft) W-SW 244 0 min 0,000 mm 0,0 UV-I 60 W/m 12,0 C 12,8 C 9,7 km/h (2 Bft) 91,30 %
01.06.2016 08:23 12,8 C 95 % 1010,7 hPa 0,0 l/m 5,6 km/h (1 Bft) W-SW 244 0 min 0,000 mm 0,0 UV-I 62 W/m 12,0 C 12,8 C 11,3 km/h (2 Bft) 95,83 %
01.06.2016 08:24 12,9 C 95 % 1010,6 hPa 0,2 l/m 5,6 km/h (1 Bft) SW 219 0 min 0,000 mm 0,0 UV-I 63 W/m 12,1 C 12,9 C 9,7 km/h (2 Bft) 95,65 %
01.06.2016 08:25 12,9 C 95 % 1010,7 hPa 0,0 l/m 5,6 km/h (1 Bft) SW 215 0 min 0,000 mm 0,0 UV-I 65 W/m 12,1 C 12,9 C 8,0 km/h (2 Bft) 91,67 %
01.06.2016 08:26 12,9 C 95 % 1010,7 hPa 0,0 l/m 6,4 km/h (2 Bft) W-SW 242 0 min 0,000 mm 0,0 UV-I 67 W/m 12,1 C 12,9 C 9,7 km/h (2 Bft) 91,30 %
01.06.2016 08:27 12,9 C 95 % 1010,7 hPa 0,0 l/m 4,9 km/h (1 Bft) SW 221 0 min 0,000 mm 0,0 UV-I 70 W/m 12,1 C 12,9 C 8,0 km/h (2 Bft) 100,00 %
01.06.2016 08:28 12,9 C 95 % 1010,7 hPa 0,0 l/m 5,9 km/h (2 Bft) W-SW 237 0 min 0,000 mm 0,0 UV-I 75 W/m 12,1 C 12,9 C 8,0 km/h (2 Bft) 91,30 %
01.06.2016 08:29 12,9 C 95 % 1010,7 hPa 0,2 l/m 5,2 km/h (1 Bft) SW 232 0 min 0,000 mm 0,0 UV-I 79 W/m 12,1 C 12,9 C 8,0 km/h (2 Bft) 91,67 %
01.06.2016 08:30 12,9 C 95 % 1010,7 hPa 0,0 l/m 5,1 km/h (1 Bft) SW 230 0 min 0,000 mm 0,0 UV-I 84 W/m 12,1 C 12,9 C 6,4 km/h (2 Bft) 100,00 %
01.06.2016 08:31 13,0 C 95 % 1010,7 hPa 0,0 l/m 4,8 km/h (1 Bft) SW 228 0 min 0,000 mm 0,0 UV-I 91 W/m 12,2 C 13,0 C 6,4 km/h (2 Bft) 91,67 %
01.06.2016 08:32 13,0 C 95 % 1010,7 hPa 0,0 l/m 6,0 km/h (2 Bft) SW 229 0 min 0,000 mm 0,0 UV-I 98 W/m 12,2 C 13,0 C 8,0 km/h (2 Bft) 100,00 %
01.06.2016 08:33 13,1 C 95 % 1010,7 hPa 0,0 l/m 4,7 km/h (1 Bft) SW 223 0 min 0,000 mm 0,0 UV-I 103 W/m 12,3 C 13,1 C 6,4 km/h (2 Bft) 95,83 %
01.06.2016 08:34 13,1 C 95 % 1010,6 hPa 0,2 l/m 4,2 km/h (1 Bft) W-SW 238 0 min 0,000 mm 0,0 UV-I 108 W/m 12,3 C 13,1 C 6,4 km/h (2 Bft) 100,00 %
01.06.2016 08:35 13,1 C 95 % 1010,6 hPa 0,0 l/m 7,7 km/h (2 Bft) W-SW 257 0 min 0,000 mm 0,4 UV-I 117 W/m 12,3 C 12,3 C 14,5 km/h (3 Bft) 95,83 %
01.06.2016 08:36 13,1 C 96 % 1010,6 hPa 0,0 l/m 5,1 km/h (1 Bft) W-SW 252 0 min 0,000 mm 0,5 UV-I 124 W/m 12,5 C 13,1 C 6,4 km/h (2 Bft) 100,00 %
01.06.2016 08:37 13,1 C 96 % 1010,7 hPa 0,0 l/m 7,8 km/h (2 Bft) SW 222 0 min 0,000 mm 0,5 UV-I 132 W/m 12,5 C 12,2 C 11,3 km/h (2 Bft) 96,15 %
01.06.2016 08:38 13,1 C 95 % 1010,7 hPa 0,0 l/m 7,0 km/h (2 Bft) SW 234 0 min 0,000 mm 0,5 UV-I 137 W/m 12,3 C 12,7 C 11,3 km/h (2 Bft) 100,00 %
01.06.2016 08:39 13,1 C 95 % 1010,7 hPa 0,0 l/m 6,8 km/h (2 Bft) W-SW 247 0 min 0,000 mm 0,6 UV-I 141 W/m 12,3 C 12,9 C 8,0 km/h (2 Bft) 92,31 %
01.06.2016 08:40 13,1 C 95 % 1010,6 hPa 0,0 l/m 6,6 km/h (2 Bft) SW 229 0 min 0,000 mm 0,6 UV-I 145 W/m 12,3 C 13,0 C 9,7 km/h (2 Bft) 95,83 %
01.06.2016 08:41 13,2 C 95 % 1010,6 hPa 0,2 l/m 7,6 km/h (2 Bft) W-SW 246 0 min 0,000 mm 0,6 UV-I 152 W/m 12,4 C 12,5 C 9,7 km/h (2 Bft) 100,00 %
01.06.2016 08:42 13,2 C 95 % 1010,7 hPa 0,0 l/m 8,9 km/h (2 Bft) W-SW 244 0 min 0,000 mm 0,6 UV-I 156 W/m 12,4 C 11,7 C 12,9 km/h (3 Bft) 95,83 %
01.06.2016 08:43 13,2 C 95 % 1010,7 hPa 0,0 l/m 9,1 km/h (2 Bft) SW 221 0 min 0,000 mm 0,7 UV-I 161 W/m 12,4 C 11,6 C 11,3 km/h (2 Bft) 95,65 %
01.06.2016 08:44 13,2 C 95 % 1010,7 hPa 0,0 l/m 8,4 km/h (2 Bft) W-SW 248 0 min 0,000 mm 0,7 UV-I 166 W/m 12,4 C 12,0 C 14,5 km/h (3 Bft) 95,83 %
01.06.2016 08:45 13,3 C 96 % 1010,7 hPa 0,0 l/m 7,4 km/h (2 Bft) W 265 0 min 0,000 mm 0,7 UV-I 173 W/m 12,7 C 12,7 C 11,3 km/h (2 Bft) 95,65 %
01.06.2016 08:46 13,2 C 95 % 1010,7 hPa 0,0 l/m 8,0 km/h (2 Bft) W-SW 238 0 min 0,000 mm 0,7 UV-I 178 W/m 12,4 C 12,2 C 11,3 km/h (2 Bft) 95,83 %
01.06.2016 08:47 13,3 C 95 % 1010,7 hPa 0,0 l/m 7,7 km/h (2 Bft) W-SW 244 0 min 0,000 mm 0,8 UV-I 187 W/m 12,5 C 12,5 C 11,3 km/h (2 Bft) 95,65 %
01.06.2016 08:48 13,3 C 95 % 1010,8 hPa 0,0 l/m 6,8 km/h (2 Bft) SW 235 0 min 0,000 mm 0,8 UV-I 196 W/m 12,5 C 13,1 C 14,5 km/h (3 Bft) 95,83 %
01.06.2016 08:49 13,3 C 95 % 1010,8 hPa 0,0 l/m 9,4 km/h (2 Bft) W 263 0 min 0,000 mm 0,8 UV-I 206 W/m 12,5 C 11,5 C 16,1 km/h (3 Bft) 96,15 %
01.06.2016 08:50 13,3 C 95 % 1010,8 hPa 0,0 l/m 10,0 km/h (2 Bft) W 271 0 min 0,000 mm 0,9 UV-I 218 W/m 12,5 C 11,2 C 12,9 km/h (3 Bft) 100,00 %
01.06.2016 08:51 13,4 C 95 % 1010,7 hPa 0,0 l/m 10,1 km/h (2 Bft) SW 226 0 min 0,000 mm 1,0 UV-I 233 W/m 12,6 C 11,3 C 14,5 km/h (3 Bft) 91,30 %
01.06.2016 08:52 13,4 C 95 % 1010,7 hPa 0,0 l/m 7,7 km/h (2 Bft) SW 223 0 min 0,000 mm 1,0 UV-I 246 W/m 12,6 C 12,6 C 11,3 km/h (2 Bft) 100,00 %
01.06.2016 08:53 13,4 C 95 % 1010,8 hPa 0,0 l/m 9,3 km/h (2 Bft) W-SW 257 0 min 0,000 mm 1,1 UV-I 256 W/m 12,6 C 11,7 C 12,9 km/h (3 Bft) 95,83 %
01.06.2016 08:54 13,4 C 95 % 1010,8 hPa 0,0 l/m 8,1 km/h (2 Bft) W-SW 240 0 min 0,000 mm 1,1 UV-I 263 W/m 12,6 C 12,4 C 12,9 km/h (3 Bft) 95,65 %
01.06.2016 08:55 13,5 C 94 % 1010,8 hPa 0,0 l/m 9,5 km/h (2 Bft) SW 229 0 min 0,000 mm 1,1 UV-I 267 W/m 12,6 C 11,7 C 11,3 km/h (2 Bft) 95,83 %
01.06.2016 08:56 13,6 C 95 % 1010,8 hPa 0,0 l/m 9,5 km/h (2 Bft) W-SW 237 0 min 0,000 mm 1,1 UV-I 271 W/m 12,8 C 11,8 C 12,9 km/h (3 Bft) 100,00 %
01.06.2016 08:57 13,6 C 95 % 1010,8 hPa 0,0 l/m 7,0 km/h (2 Bft) SW 217 0 min 0,000 mm 1,2 UV-I 275 W/m 12,8 C 13,2 C 11,3 km/h (2 Bft) 95,83 %
01.06.2016 08:58 13,6 C 95 % 1010,8 hPa 0,0 l/m 10,0 km/h (2 Bft) W-SW 256 0 min 0,000 mm 1,2 UV-I 282 W/m 12,8 C 11,6 C 16,1 km/h (3 Bft) 95,65 %
01.06.2016 08:59 13,7 C 95 % 1010,8 hPa 0,0 l/m 8,0 km/h (2 Bft) W-SW 240 0 min 0,000 mm 1,2 UV-I 291 W/m 12,9 C 12,7 C 12,9 km/h (3 Bft) 100,00 %
01.06.2016 09:00 13,7 C 95 % 1010,7 hPa 0,0 l/m 8,0 km/h (2 Bft) SW 225 0 min 0,076 mm 1,2 UV-I 287 W/m 12,9 C 12,7 C 16,1 km/h (3 Bft) 95,61 %
01.06.2016 09:05 13,9 C 95 % 1010,8 hPa 0,0 l/m 8,0 km/h (2 Bft) W-SW 247 0 min 0,000 mm 1,3 UV-I 291 W/m 13,1 C 12,9 C 14,5 km/h (3 Bft) 96,49 %
01.06.2016 09:10 13,8 C 93 % 1010,8 hPa 0,0 l/m 8,0 km/h (2 Bft) SW 225 0 min 0,000 mm 1,1 UV-I 237 W/m 12,7 C 12,8 C 16,1 km/h (3 Bft) 99,12 %
01.06.2016 09:15 13,9 C 94 % 1010,8 hPa 0,0 l/m 6,4 km/h (2 Bft) SW 225 0 min 0,000 mm 1,1 UV-I 222 W/m 12,9 C 13,9 C 12,9 km/h (3 Bft) 97,37 %
01.06.2016 09:20 13,9 C 94 % 1010,9 hPa 0,0 l/m 8,0 km/h (2 Bft) SW 225 0 min 0,000 mm 1,0 UV-I 211 W/m 12,9 C 12,9 C 14,5 km/h (3 Bft) 97,37 %
01.06.2016 09:25 14,0 C 94 % 1010,9 hPa 0,0 l/m 6,4 km/h (2 Bft) W-SW 247 0 min 0,000 mm 1,0 UV-I 201 W/m 13,0 C 14,0 C 11,3 km/h (2 Bft) 97,37 %
01.06.2016 09:30 14,0 C 93 % 1010,9 hPa 0,0 l/m 8,0 km/h (2 Bft) SW 225 0 min 0,000 mm 0,9 UV-I 173 W/m 12,9 C 13,1 C 14,5 km/h (3 Bft) 97,37 %
01.06.2016 09:34 13,9 C 93 % 1010,9 hPa 0,0 l/m 4,6 km/h (1 Bft) W-SW 258 0 min 0,000 mm 1,0 UV-I 216 W/m 12,8 C 13,9 C 6,4 km/h (2 Bft) 99,64 %
01.06.2016 09:35 14,0 C 93 % 1010,9 hPa 0,0 l/m 8,0 km/h (2 Bft) SW 229 0 min 0,000 mm 0,7 UV-I 135 W/m 12,9 C 13,1 C 14,5 km/h (3 Bft) 95,65 %
01.06.2016 09:36 13,9 C 93 % 1010,9 hPa 0,0 l/m 7,7 km/h (2 Bft) W 260 0 min 0,000 mm 0,7 UV-I 135 W/m 12,8 C 13,1 C 11,3 km/h (2 Bft) 100,00 %
01.06.2016 09:37 14,0 C 94 % 1010,9 hPa 0,0 l/m 7,9 km/h (2 Bft) W 273 0 min 0,000 mm 0,7 UV-I 131 W/m 13,0 C 13,1 C 11,3 km/h (2 Bft) 100,00 %
01.06.2016 09:38 14,0 C 93 % 1010,9 hPa 0,0 l/m 9,5 km/h (2 Bft) W 259 0 min 0,000 mm 0,7 UV-I 127 W/m 12,9 C 12,3 C 12,9 km/h (3 Bft) 100,00 %
01.06.2016 09:39 14,0 C 93 % 1010,9 hPa 0,0 l/m 8,2 km/h (2 Bft) SW 223 0 min 0,000 mm 0,7 UV-I 127 W/m 12,9 C 12,9 C 12,9 km/h (3 Bft) 100,00 %
01.06.2016 09:40 13,9 C 93 % 1010,8 hPa 0,0 l/m 3,2 km/h (1 Bft) W 274 0 min 0,000 mm 0,7 UV-I 125 W/m 12,8 C 13,9 C 4,8 km/h (1 Bft) 100,00 %
01.06.2016 09:41 14,0 C 94 % 1010,8 hPa 0,0 l/m 7,0 km/h (2 Bft) W-SW 252 0 min 0,000 mm 0,6 UV-I 123 W/m 13,0 C 13,6 C 12,9 km/h (3 Bft) 100,00 %
01.06.2016 09:42 13,9 C 94 % 1010,9 hPa 0,0 l/m 10,0 km/h (2 Bft) SW 225 0 min 0,000 mm 0,6 UV-I 122 W/m 12,9 C 11,9 C 14,5 km/h (3 Bft) 100,00 %
01.06.2016 09:45 14,0 C 94 % 1010,9 hPa 0,0 l/m 8,0 km/h (2 Bft) SW 225 0 min 0,000 mm 0,7 UV-I 130 W/m 13,0 C 13,1 C 14,5 km/h (3 Bft) 100,00 %
01.06.2016 09:50 14,0 C 93 % 1010,9 hPa 0,0 l/m 9,7 km/h (2 Bft) W-SW 247 0 min 0,000 mm 0,8 UV-I 146 W/m 12,9 C 12,2 C 14,5 km/h (3 Bft) 100,00 %
01.06.2016 09:55 14,1 C 92 % 1010,8 hPa 0,0 l/m 8,0 km/h (2 Bft) W-SW 247 0 min 0,000 mm 0,9 UV-I 166 W/m 12,8 C 13,2 C 14,5 km/h (3 Bft) 100,00 %
01.06.2016 10:00 14,1 C 93 % 1010,8 hPa 0,0 l/m 9,7 km/h (2 Bft) W-SW 247 0 min 0,102 mm 1,0 UV-I 179 W/m 13,0 C 12,3 C 16,1 km/h (3 Bft) 100,00 %
01.06.2016 10:05 14,2 C 92 % 1010,8 hPa 0,0 l/m 11,3 km/h (2 Bft) W-SW 247 0 min 0,000 mm 1,0 UV-I 173 W/m 12,9 C 11,6 C 24,1 km/h (4 Bft) 100,00 %
01.06.2016 10:10 14,2 C 91 % 1010,9 hPa 0,0 l/m 12,9 km/h (3 Bft) W-SW 247 0 min 0,000 mm 1,0 UV-I 178 W/m 12,8 C 11,0 C 19,3 km/h (3 Bft) 99,12 %
01.06.2016 10:15 14,2 C 90 % 1010,9 hPa 0,0 l/m 12,9 km/h (3 Bft) SW 225 0 min 0,000 mm 1,1 UV-I 186 W/m 12,6 C 11,0 C 22,5 km/h (4 Bft) 100,00 %
01.06.2016 10:20 14,3 C 90 % 1010,8 hPa 0,0 l/m 12,9 km/h (3 Bft) SW 225 0 min 0,000 mm 1,4 UV-I 236 W/m 12,7 C 11,1 C 24,1 km/h (4 Bft) 100,00 %
01.06.2016 10:25 14,4 C 88 % 1010,8 hPa 0,0 l/m 14,5 km/h (3 Bft) SW 225 0 min 0,000 mm 1,6 UV-I 255 W/m 12,4 C 10,6 C 27,4 km/h (4 Bft) 100,00 %
01.06.2016 10:30 14,5 C 88 % 1010,9 hPa 0,0 l/m 14,5 km/h (3 Bft) SW 225 0 min 0,000 mm 1,8 UV-I 279 W/m 12,5 C 10,8 C 27,4 km/h (4 Bft) 99,12 %
01.06.2016 10:35 14,6 C 88 % 1010,9 hPa 0,0 l/m 11,3 km/h (2 Bft) S-SW 202 0 min 0,000 mm 1,6 UV-I 261 W/m 12,6 C 12,1 C 20,9 km/h (4 Bft) 100,00 %
01.06.2016 10:40 14,6 C 87 % 1010,9 hPa 0,0 l/m 17,7 km/h (3 Bft) SW 225 0 min 0,000 mm 1,7 UV-I 266 W/m 12,5 C 9,9 C 29,0 km/h (5 Bft) 100,00 %
01.06.2016 10:45 14,6 C 88 % 1010,9 hPa 0,0 l/m 14,5 km/h (3 Bft) SW 225 0 min 0,000 mm 1,7 UV-I 272 W/m 12,6 C 10,9 C 29,0 km/h (5 Bft) 100,00 %
01.06.2016 10:50 14,7 C 89 % 1011,0 hPa 0,0 l/m 12,9 km/h (3 Bft) SW 225 0 min 0,000 mm 1,5 UV-I 229 W/m 12,9 C 11,6 C 22,5 km/h (4 Bft) 100,00 %
01.06.2016 10:51 14,7 C 89 % 1011,0 hPa 0,0 l/m 12,9 km/h (3 Bft) SW 230 0 min 0,000 mm 1,0 UV-I 167 W/m 12,9 C 11,6 C 16,1 km/h (3 Bft) 98,51 %
01.06.2016 10:52 14,7 C 88 % 1011,0 hPa 0,0 l/m 14,7 km/h (3 Bft) W-SW 246 0 min 0,000 mm 1,3 UV-I 207 W/m 12,7 C 10,9 C 19,3 km/h (3 Bft) 100,00 %
01.06.2016 10:53 14,7 C 88 % 1011,0 hPa 0,0 l/m 11,7 km/h (2 Bft) S-SW 192 0 min 0,000 mm 1,3 UV-I 204 W/m 12,7 C 12,0 C 16,1 km/h (3 Bft) 95,83 %
01.06.2016 10:54 14,7 C 88 % 1011,0 hPa 0,0 l/m 12,7 km/h (3 Bft) S-SW 205 0 min 0,000 mm 1,2 UV-I 192 W/m 12,7 C 11,7 C 19,3 km/h (3 Bft) 100,00 %
01.06.2016 10:55 14,7 C 87 % 1011,0 hPa 0,0 l/m 13,0 km/h (3 Bft) SW 223 0 min 0,000 mm 1,1 UV-I 173 W/m 12,6 C 11,5 C 17,7 km/h (3 Bft) 95,83 %
01.06.2016 10:56 14,7 C 87 % 1011,0 hPa 0,0 l/m 20,2 km/h (4 Bft) W-SW 241 0 min 0,000 mm 1,0 UV-I 161 W/m 12,6 C 9,3 C 24,1 km/h (4 Bft) 100,00 %
01.06.2016 10:57 14,7 C 87 % 1011,0 hPa 0,0 l/m 14,6 km/h (3 Bft) W-SW 246 0 min 0,000 mm 1,0 UV-I 156 W/m 12,6 C 11,0 C 22,5 km/h (4 Bft) 100,00 %
01.06.2016 10:58 14,6 C 87 % 1011,0 hPa 0,0 l/m 12,5 km/h (3 Bft) W-SW 242 0 min 0,000 mm 1,0 UV-I 153 W/m 12,5 C 11,6 C 20,9 km/h (4 Bft) 100,00 %
01.06.2016 10:59 14,6 C 87 % 1011,1 hPa 0,0 l/m 14,8 km/h (3 Bft) SW 226 0 min 0,000 mm 1,0 UV-I 145 W/m 12,5 C 10,8 C 24,1 km/h (4 Bft) 100,00 %
01.06.2016 11:00 14,6 C 87 % 1011,1 hPa 0,0 l/m 12,6 km/h (3 Bft) SW 225 0 min 0,000 mm 0,9 UV-I 138 W/m 12,5 C 11,6 C 17,7 km/h (3 Bft) 100,00 %
01.06.2016 11:01 14,6 C 87 % 1011,1 hPa 0,0 l/m 12,5 km/h (3 Bft) SW 229 0 min 0,127 mm 0,9 UV-I 141 W/m 12,5 C 11,6 C 17,7 km/h (3 Bft) 100,00 %
01.06.2016 11:02 14,6 C 87 % 1011,1 hPa 0,0 l/m 12,3 km/h (3 Bft) SW 223 0 min 0,000 mm 1,0 UV-I 155 W/m 12,5 C 11,7 C 20,9 km/h (4 Bft) 95,83 %
01.06.2016 11:03 14,6 C 88 % 1011,1 hPa 0,0 l/m 16,8 km/h (3 Bft) W-SW 257 0 min 0,000 mm 1,1 UV-I 168 W/m 12,6 C 10,1 C 22,5 km/h (4 Bft) 100,00 %
01.06.2016 11:04 14,6 C 88 % 1011,1 hPa 0,0 l/m 15,3 km/h (3 Bft) SW 230 0 min 0,000 mm 1,2 UV-I 174 W/m 12,6 C 10,6 C 22,5 km/h (4 Bft) 100,00 %
01.06.2016 11:05 14,5 C 87 % 1011,0 hPa 0,0 l/m 14,5 km/h (3 Bft) W-SW 250 0 min 0,000 mm 1,1 UV-I 166 W/m 12,4 C 10,8 C 20,9 km/h (4 Bft) 100,00 %
01.06.2016 11:06 14,5 C 87 % 1011,1 hPa 0,0 l/m 16,2 km/h (3 Bft) SW 217 0 min 0,000 mm 1,0 UV-I 153 W/m 12,4 C 10,2 C 20,9 km/h (4 Bft) 100,00 %
01.06.2016 11:07 14,4 C 87 % 1011,1 hPa 0,0 l/m 11,8 km/h (2 Bft) SW 222 0 min 0,000 mm 1,0 UV-I 148 W/m 12,3 C 11,7 C 20,9 km/h (4 Bft) 100,00 %
01.06.2016 11:08 14,4 C 87 % 1011,1 hPa 0,0 l/m 15,9 km/h (3 Bft) W-SW 245 0 min 0,000 mm 0,9 UV-I 147 W/m 12,3 C 10,2 C 20,9 km/h (4 Bft) 95,83 %
01.06.2016 11:09 14,4 C 87 % 1011,1 hPa 0,0 l/m 13,7 km/h (3 Bft) SW 229 0 min 0,000 mm 1,0 UV-I 150 W/m 12,3 C 10,9 C 20,9 km/h (4 Bft) 95,65 %
01.06.2016 11:10 14,4 C 88 % 1011,1 hPa 0,0 l/m 11,4 km/h (2 Bft) W 259 0 min 0,000 mm 1,0 UV-I 150 W/m 12,4 C 11,8 C 14,5 km/h (3 Bft) 100,00 %
01.06.2016 11:11 14,4 C 88 % 1011,1 hPa 0,0 l/m 12,9 km/h (3 Bft) W-SW 258 0 min 0,000 mm 1,0 UV-I 148 W/m 12,4 C 11,2 C 19,3 km/h (3 Bft) 100,00 %
01.06.2016 11:12 14,4 C 88 % 1011,1 hPa 0,0 l/m 15,7 km/h (3 Bft) W-SW 254 0 min 0,000 mm 1,0 UV-I 152 W/m 12,4 C 10,2 C 20,9 km/h (4 Bft) 100,00 %
01.06.2016 11:13 14,4 C 88 % 1011,2 hPa 0,0 l/m 17,0 km/h (3 Bft) W 261 0 min 0,000 mm 1,1 UV-I 158 W/m 12,4 C 9,8 C 25,7 km/h (4 Bft) 100,00 %
01.06.2016 11:14 14,4 C 87 % 1011,2 hPa 0,0 l/m 13,6 km/h (3 Bft) W-SW 246 0 min 0,000 mm 1,1 UV-I 156 W/m 12,3 C 11,0 C 17,7 km/h (3 Bft) 100,00 %
01.06.2016 11:15 14,4 C 87 % 1011,2 hPa 0,0 l/m 13,8 km/h (3 Bft) W-SW 250 0 min 0,000 mm 1,0 UV-I 148 W/m 12,3 C 10,9 C 22,5 km/h (4 Bft) 95,65 %
01.06.2016 11:16 14,4 C 88 % 1011,2 hPa 0,0 l/m 14,8 km/h (3 Bft) W 267 0 min 0,000 mm 0,9 UV-I 138 W/m 12,4 C 10,5 C 25,7 km/h (4 Bft) 100,00 %
01.06.2016 11:17 14,4 C 88 % 1011,2 hPa 0,0 l/m 11,1 km/h (2 Bft) SW 214 0 min 0,000 mm 0,9 UV-I 132 W/m 12,4 C 12,0 C 19,3 km/h (3 Bft) 95,65 %
01.06.2016 11:18 14,3 C 88 % 1011,2 hPa 0,0 l/m 13,5 km/h (3 Bft) SW 234 0 min 0,000 mm 0,8 UV-I 124 W/m 12,3 C 10,9 C 22,5 km/h (4 Bft) 100,00 %
01.06.2016 11:19 14,4 C 88 % 1011,2 hPa 0,0 l/m 8,6 km/h (2 Bft) SW 227 0 min 0,000 mm 0,8 UV-I 118 W/m 12,4 C 13,1 C 12,9 km/h (3 Bft) 100,00 %
01.06.2016 11:20 14,4 C 88 % 1011,2 hPa 0,0 l/m 12,1 km/h (2 Bft) SW 229 0 min 0,000 mm 0,7 UV-I 112 W/m 12,4 C 11,5 C 16,1 km/h (3 Bft) 100,00 %
01.06.2016 11:21 14,4 C 88 % 1011,2 hPa 0,0 l/m 10,7 km/h (2 Bft) SW 223 0 min 0,000 mm 0,7 UV-I 109 W/m 12,4 C 12,1 C 14,5 km/h (3 Bft) 95,65 %
01.06.2016 11:22 14,3 C 88 % 1011,2 hPa 0,0 l/m 10,5 km/h (2 Bft) W-SW 257 0 min 0,000 mm 0,7 UV-I 112 W/m 12,3 C 12,1 C 16,1 km/h (3 Bft) 100,00 %
01.06.2016 11:23 14,3 C 88 % 1011,2 hPa 0,0 l/m 9,4 km/h (2 Bft) W-NW 284 0 min 0,000 mm 0,8 UV-I 115 W/m 12,3 C 12,6 C 12,9 km/h (3 Bft) 100,00 %
01.06.2016 11:24 14,3 C 88 % 1011,2 hPa 0,0 l/m 11,1 km/h (2 Bft) SW 233 0 min 0,000 mm 0,8 UV-I 119 W/m 12,3 C 11,8 C 14,5 km/h (3 Bft) 100,00 %
01.06.2016 11:25 14,3 C 88 % 1011,2 hPa 0,0 l/m 10,9 km/h (2 Bft) S-SW 212 0 min 0,000 mm 0,8 UV-I 121 W/m 12,3 C 11,9 C 16,1 km/h (3 Bft) 100,00 %
01.06.2016 11:30 14,3 C 88 % 1011,2 hPa 0,0 l/m 12,9 km/h (3 Bft) W-SW 247 0 min 0,000 mm 0,8 UV-I 128 W/m 12,3 C 11,1 C 24,1 km/h (4 Bft) 99,12 %
01.06.2016 11:35 14,3 C 89 % 1011,3 hPa 0,0 l/m 12,9 km/h (3 Bft) W-SW 247 0 min 0,000 mm 1,0 UV-I 140 W/m 12,5 C 11,1 C 20,9 km/h (4 Bft) 100,00 %
01.06.2016 11:36 14,3 C 89 % 1011,3 hPa 0,0 l/m 12,6 km/h (3 Bft) W 272 0 min 0,000 mm 0,8 UV-I 128 W/m 12,5 C 11,2 C 14,5 km/h (3 Bft) 99,22 %
01.06.2016 11:37 14,3 C 89 % 1011,2 hPa 0,0 l/m 12,2 km/h (2 Bft) W-SW 244 0 min 0,000 mm 0,9 UV-I 137 W/m 12,5 C 11,4 C 16,1 km/h (3 Bft) 96,30 %
01.06.2016 11:38 14,3 C 89 % 1011,3 hPa 0,0 l/m 11,1 km/h (2 Bft) W-SW 238 0 min 0,000 mm 0,9 UV-I 140 W/m 12,5 C 11,8 C 16,1 km/h (3 Bft) 100,00 %
01.06.2016 11:39 14,3 C 89 % 1011,3 hPa 0,0 l/m 11,5 km/h (2 Bft) W-SW 245 0 min 0,000 mm 1,0 UV-I 141 W/m 12,5 C 11,7 C 16,1 km/h (3 Bft) 100,00 %
01.06.2016 11:40 14,3 C 89 % 1011,3 hPa 0,0 l/m 8,6 km/h (2 Bft) W-SW 248 0 min 0,000 mm 1,0 UV-I 141 W/m 12,5 C 13,0 C 12,9 km/h (3 Bft) 100,00 %
01.06.2016 11:41 14,3 C 89 % 1011,3 hPa 0,0 l/m 6,9 km/h (2 Bft) W-SW 253 0 min 0,000 mm 1,0 UV-I 144 W/m 12,5 C 14,0 C 11,3 km/h (2 Bft) 100,00 %
01.06.2016 11:42 14,3 C 89 % 1011,3 hPa 0,0 l/m 14,4 km/h (3 Bft) W-SW 253 0 min 0,000 mm 1,0 UV-I 149 W/m 12,5 C 10,6 C 17,7 km/h (3 Bft) 100,00 %
01.06.2016 11:43 14,3 C 89 % 1011,2 hPa 0,0 l/m 13,0 km/h (3 Bft) W-SW 244 0 min 0,000 mm 1,1 UV-I 151 W/m 12,5 C 11,1 C 17,7 km/h (3 Bft) 85,71 %
01.06.2016 11:44 14,3 C 89 % 1011,2 hPa 0,0 l/m 13,0 km/h (3 Bft) SW 219 0 min 0,000 mm 1,1 UV-I 150 W/m 12,5 C 11,1 C 16,1 km/h (3 Bft) 100,00 %
01.06.2016 11:45 14,3 C 89 % 1011,2 hPa 0,0 l/m 11,9 km/h (2 Bft) SW 222 0 min 0,000 mm 1,1 UV-I 146 W/m 12,5 C 11,5 C 16,1 km/h (3 Bft) 95,65 %
01.06.2016 11:46 14,4 C 89 % 1011,3 hPa 0,0 l/m 9,5 km/h (2 Bft) W-SW 237 0 min 0,000 mm 1,0 UV-I 137 W/m 12,6 C 12,7 C 12,9 km/h (3 Bft) 100,00 %
01.06.2016 11:47 14,4 C 90 % 1011,3 hPa 0,0 l/m 9,9 km/h (2 Bft) SW 220 0 min 0,000 mm 0,8 UV-I 127 W/m 12,8 C 12,5 C 14,5 km/h (3 Bft) 100,00 %
01.06.2016 11:48 14,4 C 90 % 1011,3 hPa 0,0 l/m 7,1 km/h (2 Bft) W-SW 242 0 min 0,000 mm 0,8 UV-I 121 W/m 12,8 C 14,0 C 9,7 km/h (2 Bft) 100,00 %
01.06.2016 11:49 14,4 C 89 % 1011,3 hPa 0,0 l/m 13,7 km/h (3 Bft) SW 221 0 min 0,000 mm 0,8 UV-I 121 W/m 12,6 C 10,9 C 20,9 km/h (4 Bft) 95,65 %
01.06.2016 11:50 14,3 C 89 % 1011,3 hPa 0,0 l/m 16,4 km/h (3 Bft) SW 221 0 min 0,000 mm 0,8 UV-I 124 W/m 12,5 C 9,9 C 20,9 km/h (4 Bft) 100,00 %
01.06.2016 11:51 14,3 C 88 % 1011,3 hPa 0,0 l/m 13,8 km/h (3 Bft) SW 229 0 min 0,000 mm 0,9 UV-I 129 W/m 12,3 C 10,8 C 17,7 km/h (3 Bft) 95,65 %
01.06.2016 11:52 14,3 C 88 % 1011,3 hPa 0,0 l/m 11,2 km/h (2 Bft) W-SW 240 0 min 0,000 mm 0,9 UV-I 132 W/m 12,3 C 11,8 C 17,7 km/h (3 Bft) 95,83 %
01.06.2016 11:53 14,3 C 88 % 1011,4 hPa 0,0 l/m 15,8 km/h (3 Bft) W-SW 250 0 min 0,000 mm 0,9 UV-I 136 W/m 12,3 C 10,1 C 20,9 km/h (4 Bft) 100,00 %
01.06.2016 11:54 14,3 C 88 % 1011,3 hPa 0,0 l/m 13,5 km/h (3 Bft) W-SW 256 0 min 0,000 mm 1,0 UV-I 146 W/m 12,3 C 10,9 C 20,9 km/h (4 Bft) 100,00 %
01.06.2016 11:55 14,3 C 89 % 1011,3 hPa 0,0 l/m 9,8 km/h (2 Bft) W 273 0 min 0,000 mm 1,1 UV-I 166 W/m 12,5 C 12,4 C 12,9 km/h (3 Bft) 95,83 %
01.06.2016 11:56 14,3 C 89 % 1011,3 hPa 0,0 l/m 11,7 km/h (2 Bft) SW 232 0 min 0,000 mm 1,3 UV-I 195 W/m 12,5 C 11,6 C 16,1 km/h (3 Bft) 100,00 %
01.06.2016 11:57 14,3 C 89 % 1011,3 hPa 0,0 l/m 11,0 km/h (2 Bft) W 263 0 min 0,000 mm 1,6 UV-I 221 W/m 12,5 C 11,9 C 16,1 km/h (3 Bft) 100,00 %
01.06.2016 11:58 14,3 C 89 % 1011,3 hPa 0,0 l/m 14,5 km/h (3 Bft) SW 225 0 min 0,000 mm 1,7 UV-I 234 W/m 12,5 C 10,5 C 20,9 km/h (4 Bft) 100,00 %
01.06.2016 11:59 14,4 C 89 % 1011,3 hPa 0,0 l/m 13,0 km/h (3 Bft) W-SW 240 0 min 0,000 mm 1,8 UV-I 240 W/m 12,6 C 11,2 C 17,7 km/h (3 Bft) 100,00 %
01.06.2016 12:00 14,4 C 89 % 1011,2 hPa 0,0 l/m 12,0 km/h (2 Bft) W-SW 252 0 min 0,101 mm 1,9 UV-I 254 W/m 12,6 C 11,6 C 20,9 km/h (4 Bft) 100,00 %
01.06.2016 12:01 14,4 C 89 % 1011,3 hPa 0,0 l/m 8,3 km/h (2 Bft) SW 228 0 min 0,000 mm 2,0 UV-I 269 W/m 12,6 C 13,3 C 12,9 km/h (3 Bft) 100,00 %
01.06.2016 12:02 14,4 C 89 % 1011,3 hPa 0,0 l/m 12,1 km/h (2 Bft) W-SW 240 0 min 0,000 mm 2,1 UV-I 283 W/m 12,6 C 11,5 C 16,1 km/h (3 Bft) 91,30 %
01.06.2016 12:03 14,5 C 89 % 1011,3 hPa 0,0 l/m 13,0 km/h (3 Bft) W-SW 257 0 min 0,000 mm 2,2 UV-I 294 W/m 12,7 C 11,3 C 17,7 km/h (3 Bft) 100,00 %
01.06.2016 12:04 14,6 C 89 % 1011,3 hPa 0,0 l/m 11,3 km/h (2 Bft) W-SW 242 0 min 0,000 mm 2,2 UV-I 300 W/m 12,8 C 12,1 C 19,3 km/h (3 Bft) 100,00 %
01.06.2016 12:05 14,6 C 89 % 1011,3 hPa 0,0 l/m 12,5 km/h (3 Bft) SW 222 0 min 0,000 mm 2,2 UV-I 301 W/m 12,8 C 11,6 C 19,3 km/h (3 Bft) 100,00 %
01.06.2016 12:06 14,6 C 89 % 1011,3 hPa 0,0 l/m 10,4 km/h (2 Bft) W-SW 240 0 min 0,000 mm 2,3 UV-I 303 W/m 12,8 C 12,5 C 16,1 km/h (3 Bft) 95,65 %
01.06.2016 12:07 14,7 C 89 % 1011,3 hPa 0,0 l/m 16,3 km/h (3 Bft) W-SW 248 0 min 0,000 mm 2,3 UV-I 312 W/m 12,9 C 10,4 C 20,9 km/h (4 Bft) 100,00 %
01.06.2016 12:08 14,7 C 89 % 1011,3 hPa 0,0 l/m 11,5 km/h (2 Bft) W-SW 242 0 min 0,000 mm 2,4 UV-I 323 W/m 12,9 C 12,1 C 14,5 km/h (3 Bft) 100,00 %
01.06.2016 12:09 14,8 C 88 % 1011,3 hPa 0,0 l/m 14,6 km/h (3 Bft) W 260 0 min 0,000 mm 2,5 UV-I 331 W/m 12,8 C 11,1 C 24,1 km/h (4 Bft) 100,00 %
01.06.2016 12:10 14,8 C 89 % 1011,3 hPa 0,0 l/m 10,0 km/h (2 Bft) W-SW 247 0 min 0,000 mm 2,5 UV-I 338 W/m 13,0 C 12,9 C 17,7 km/h (3 Bft) 95,65 %
01.06.2016 12:11 14,8 C 88 % 1011,3 hPa 0,0 l/m 11,2 km/h (2 Bft) SW 228 0 min 0,000 mm 2,5 UV-I 342 W/m 12,8 C 12,4 C 16,1 km/h (3 Bft) 100,00 %
01.06.2016 12:12 14,8 C 88 % 1011,3 hPa 0,0 l/m 10,6 km/h (2 Bft) W-SW 243 0 min 0,000 mm 2,6 UV-I 349 W/m 12,8 C 12,6 C 16,1 km/h (3 Bft) 95,65 %
01.06.2016 12:13 14,9 C 89 % 1011,3 hPa 0,0 l/m 7,2 km/h (2 Bft) W-SW 245 0 min 0,000 mm 2,6 UV-I 356 W/m 13,1 C 14,4 C 11,3 km/h (2 Bft) 95,83 %
01.06.2016 12:14 15,0 C 89 % 1011,2 hPa 0,0 l/m 12,6 km/h (3 Bft) W-SW 258 0 min 0,000 mm 2,7 UV-I 362 W/m 13,2 C 12,0 C 16,1 km/h (3 Bft) 100,00 %
01.06.2016 12:15 15,1 C 89 % 1011,3 hPa 0,0 l/m 10,5 km/h (2 Bft) SW 235 0 min 0,000 mm 2,7 UV-I 366 W/m 13,3 C 13,0 C 17,7 km/h (3 Bft) 100,00 %
01.06.2016 12:16 15,1 C 87 % 1011,2 hPa 0,0 l/m 11,6 km/h (2 Bft) SW 228 0 min 0,000 mm 2,6 UV-I 365 W/m 13,0 C 12,5 C 20,9 km/h (4 Bft) 100,00 %
01.06.2016 12:17 15,1 C 86 % 1011,3 hPa 0,0 l/m 8,2 km/h (2 Bft) W-SW 250 0 min 0,000 mm 2,6 UV-I 358 W/m 12,8 C 14,1 C 12,9 km/h (3 Bft) 100,00 %
01.06.2016 12:18 15,1 C 87 % 1011,3 hPa 0,0 l/m 11,4 km/h (2 Bft) SW 224 0 min 0,000 mm 2,7 UV-I 372 W/m 13,0 C 12,6 C 19,3 km/h (3 Bft) 100,00 %
01.06.2016 12:19 15,2 C 88 % 1011,3 hPa 0,0 l/m 11,5 km/h (2 Bft) S-SW 212 0 min 0,000 mm 2,8 UV-I 389 W/m 13,2 C 12,7 C 17,7 km/h (3 Bft) 95,65 %
01.06.2016 12:20 15,2 C 87 % 1011,3 hPa 0,0 l/m 10,3 km/h (2 Bft) SW 218 0 min 0,000 mm 2,8 UV-I 395 W/m 13,0 C 13,2 C 14,5 km/h (3 Bft) 100,00 %
01.06.2016 12:21 15,3 C 87 % 1011,3 hPa 0,0 l/m 8,9 km/h (2 Bft) S-SW 213 0 min 0,000 mm 2,9 UV-I 400 W/m 13,1 C 14,0 C 16,1 km/h (3 Bft) 95,65 %
01.06.2016 12:22 15,3 C 87 % 1011,3 hPa 0,0 l/m 10,4 km/h (2 Bft) S-SW 211 0 min 0,000 mm 3,0 UV-I 410 W/m 13,1 C 13,3 C 12,9 km/h (3 Bft) 95,83 %
01.06.2016 12:23 15,3 C 88 % 1011,3 hPa 0,0 l/m 16,8 km/h (3 Bft) W 259 0 min 0,000 mm 3,1 UV-I 426 W/m 13,3 C 11,0 C 27,4 km/h (4 Bft) 100,00 %
01.06.2016 12:24 15,4 C 87 % 1011,2 hPa 0,0 l/m 15,2 km/h (3 Bft) W-SW 254 0 min 0,000 mm 3,2 UV-I 445 W/m 13,2 C 11,6 C 19,3 km/h (3 Bft) 100,00 %
01.06.2016 12:25 15,4 C 87 % 1011,3 hPa 0,0 l/m 11,3 km/h (2 Bft) SW 234 0 min 0,000 mm 3,3 UV-I 453 W/m 13,2 C 13,0 C 17,7 km/h (3 Bft) 95,65 %
01.06.2016 12:26 15,4 C 87 % 1011,2 hPa 0,0 l/m 10,1 km/h (2 Bft) SW 221 0 min 0,000 mm 3,1 UV-I 441 W/m 13,2 C 13,5 C 12,9 km/h (3 Bft) 96,30 %
01.06.2016 12:27 15,5 C 87 % 1011,2 hPa 0,0 l/m 13,3 km/h (3 Bft) W 260 0 min 0,000 mm 2,9 UV-I 399 W/m 13,3 C 12,4 C 17,7 km/h (3 Bft) 95,65 %
01.06.2016 12:28 15,6 C 86 % 1011,3 hPa 0,0 l/m 7,6 km/h (2 Bft) W 260 0 min 0,000 mm 2,7 UV-I 393 W/m 13,3 C 14,9 C 12,9 km/h (3 Bft) 92,59 %
01.06.2016 12:29 15,6 C 87 % 1011,2 hPa 0,0 l/m 12,1 km/h (2 Bft) W-SW 241 0 min 0,000 mm 3,1 UV-I 444 W/m 13,4 C 12,9 C 20,9 km/h (4 Bft) 100,00 %
01.06.2016 12:30 15,6 C 86 % 1011,3 hPa 0,0 l/m 15,5 km/h (3 Bft) SW 215 0 min 0,000 mm 3,3 UV-I 470 W/m 13,3 C 11,8 C 20,9 km/h (4 Bft) 95,83 %
01.06.2016 12:31 15,6 C 86 % 1011,3 hPa 0,0 l/m 12,6 km/h (3 Bft) SW 230 1 min 0,000 mm 3,4 UV-I 494 W/m 13,3 C 12,7 C 19,3 km/h (3 Bft) 91,30 %
01.06.2016 12:32 15,6 C 85 % 1011,3 hPa 0,0 l/m 13,1 km/h (3 Bft) SW 234 1 min 0,000 mm 3,6 UV-I 520 W/m 13,1 C 12,6 C 22,5 km/h (4 Bft) 100,00 %
01.06.2016 12:33 15,6 C 86 % 1011,3 hPa 0,0 l/m 17,2 km/h (3 Bft) S-SW 206 1 min 0,000 mm 3,7 UV-I 528 W/m 13,3 C 11,3 C 22,5 km/h (4 Bft) 95,65 %
01.06.2016 12:34 15,6 C 85 % 1011,2 hPa 0,0 l/m 11,3 km/h (2 Bft) S 188 1 min 0,000 mm 3,6 UV-I 513 W/m 13,1 C 13,2 C 16,1 km/h (3 Bft) 100,00 %
01.06.2016 12:35 15,6 C 85 % 1011,2 hPa 0,0 l/m 13,8 km/h (3 Bft) W 271 1 min 0,000 mm 3,4 UV-I 491 W/m 13,1 C 12,3 C 20,9 km/h (4 Bft) 93,33 %
01.06.2016 12:36 15,7 C 86 % 1011,2 hPa 0,0 l/m 13,7 km/h (3 Bft) SW 233 0 min 0,000 mm 3,3 UV-I 486 W/m 13,4 C 12,5 C 19,3 km/h (3 Bft) 100,00 %
01.06.2016 12:37 15,8 C 87 % 1011,2 hPa 0,0 l/m 11,7 km/h (2 Bft) W-SW 248 0 min 0,000 mm 3,2 UV-I 469 W/m 13,6 C 13,3 C 16,1 km/h (3 Bft) 95,83 %
01.06.2016 12:38 15,8 C 86 % 1011,2 hPa 0,0 l/m 13,3 km/h (3 Bft) W-SW 237 0 min 0,000 mm 3,2 UV-I 444 W/m 13,5 C 12,7 C 20,9 km/h (4 Bft) 95,65 %
01.06.2016 12:39 15,8 C 86 % 1011,2 hPa 0,0 l/m 15,4 km/h (3 Bft) W 265 0 min 0,000 mm 3,4 UV-I 463 W/m 13,5 C 12,0 C 22,5 km/h (4 Bft) 95,83 %
01.06.2016 12:40 15,8 C 85 % 1011,2 hPa 0,0 l/m 16,4 km/h (3 Bft) W 269 1 min 0,000 mm 3,6 UV-I 504 W/m 13,3 C 11,7 C 22,5 km/h (4 Bft) 100,00 %
01.06.2016 12:41 15,9 C 85 % 1011,2 hPa 0,0 l/m 12,0 km/h (2 Bft) W-SW 252 1 min 0,000 mm 3,8 UV-I 535 W/m 13,4 C 13,3 C 16,1 km/h (3 Bft) 96,30 %
01.06.2016 12:42 15,9 C 85 % 1011,2 hPa 0,0 l/m 12,0 km/h (2 Bft) SW 232 1 min 0,000 mm 3,9 UV-I 539 W/m 13,4 C 13,3 C 22,5 km/h (4 Bft) 91,30 %
01.06.2016 12:43 15,9 C 85 % 1011,2 hPa 0,0 l/m 18,2 km/h (3 Bft) W-SW 239 1 min 0,000 mm 3,9 UV-I 538 W/m 13,4 C 11,4 C 22,5 km/h (4 Bft) 100,00 %
01.06.2016 12:44 16,0 C 85 % 1011,2 hPa 0,0 l/m 14,3 km/h (3 Bft) W-SW 243 1 min 0,000 mm 3,9 UV-I 535 W/m 13,5 C 12,6 C 20,9 km/h (4 Bft) 95,65 %
01.06.2016 12:45 16,1 C 86 % 1011,2 hPa 0,0 l/m 11,5 km/h (2 Bft) W-SW 246 1 min 0,000 mm 4,0 UV-I 539 W/m 13,8 C 13,7 C 19,3 km/h (3 Bft) 100,00 %
01.06.2016 12:46 16,2 C 85 % 1011,2 hPa 0,0 l/m 16,1 km/h (3 Bft) W 261 1 min 0,000 mm 4,0 UV-I 541 W/m 13,7 C 12,3 C 22,5 km/h (4 Bft) 95,65 %
01.06.2016 12:47 16,2 C 85 % 1011,2 hPa 0,0 l/m 18,4 km/h (3 Bft) SW 223 1 min 0,000 mm 4,0 UV-I 534 W/m 13,7 C 11,7 C 24,1 km/h (4 Bft) 100,00 %
01.06.2016 12:48 16,2 C 84 % 1011,2 hPa 0,0 l/m 14,9 km/h (3 Bft) W-SW 245 1 min 0,000 mm 4,0 UV-I 537 W/m 13,5 C 12,7 C 22,5 km/h (4 Bft) 95,65 %
01.06.2016 12:49 16,2 C 84 % 1011,2 hPa 0,0 l/m 14,3 km/h (3 Bft) W-SW 240 1 min 0,000 mm 4,1 UV-I 539 W/m 13,5 C 12,9 C 19,3 km/h (3 Bft) 100,00 %
01.06.2016 12:50 16,2 C 84 % 1011,2 hPa 0,0 l/m 11,3 km/h (2 Bft) SW 224 1 min 0,000 mm 4,1 UV-I 555 W/m 13,5 C 13,9 C 17,7 km/h (3 Bft) 95,65 %
01.06.2016 12:51 16,2 C 84 % 1011,2 hPa 0,0 l/m 16,6 km/h (3 Bft) SW 229 1 min 0,000 mm 4,2 UV-I 569 W/m 13,5 C 12,2 C 22,5 km/h (4 Bft) 95,83 %
01.06.2016 12:52 16,2 C 83 % 1011,2 hPa 0,0 l/m 20,5 km/h (4 Bft) SW 221 1 min 0,000 mm 4,2 UV-I 570 W/m 13,3 C 11,2 C 29,0 km/h (5 Bft) 100,00 %
01.06.2016 12:53 16,2 C 83 % 1011,2 hPa 0,0 l/m 16,2 km/h (3 Bft) SW 225 1 min 0,000 mm 4,1 UV-I 559 W/m 13,3 C 12,3 C 22,5 km/h (4 Bft) 100,00 %
01.06.2016 12:54 16,2 C 84 % 1011,3 hPa 0,0 l/m 12,5 km/h (3 Bft) W 265 1 min 0,000 mm 3,8 UV-I 496 W/m 13,5 C 13,5 C 16,1 km/h (3 Bft) 95,83 %
01.06.2016 12:55 16,3 C 84 % 1011,2 hPa 0,0 l/m 16,6 km/h (3 Bft) S-SW 201 0 min 0,000 mm 3,7 UV-I 483 W/m 13,6 C 12,3 C 22,5 km/h (4 Bft) 100,00 %
01.06.2016 12:56 16,3 C 84 % 1011,2 hPa 0,0 l/m 12,5 km/h (3 Bft) S-SW 205 0 min 0,000 mm 3,6 UV-I 474 W/m 13,6 C 13,6 C 22,5 km/h (4 Bft) 100,00 %
01.06.2016 12:57 16,3 C 83 % 1011,2 hPa 0,0 l/m 16,7 km/h (3 Bft) SW 222 0 min 0,000 mm 3,6 UV-I 472 W/m 13,4 C 12,3 C 20,9 km/h (4 Bft) 100,00 %
01.06.2016 12:58 16,3 C 84 % 1011,3 hPa 0,0 l/m 13,1 km/h (3 Bft) S 178 0 min 0,000 mm 3,7 UV-I 487 W/m 13,6 C 13,4 C 19,3 km/h (3 Bft) 100,00 %
01.06.2016 12:59 16,3 C 83 % 1011,3 hPa 0,0 l/m 19,0 km/h (3 Bft) W-SW 246 1 min 0,000 mm 3,8 UV-I 508 W/m 13,4 C 11,7 C 24,1 km/h (4 Bft) 95,65 %
01.06.2016 13:00 16,3 C 83 % 1011,2 hPa 0,0 l/m 15,8 km/h (3 Bft) SW 235 1 min 0,254 mm 3,8 UV-I 513 W/m 13,4 C 12,5 C 22,5 km/h (4 Bft) 100,00 %
01.06.2016 13:01 16,3 C 83 % 1011,2 hPa 0,0 l/m 19,2 km/h (3 Bft) SW 234 1 min 0,000 mm 3,9 UV-I 521 W/m 13,4 C 11,6 C 29,0 km/h (5 Bft) 100,00 %
01.06.2016 13:02 16,3 C 83 % 1011,2 hPa 0,0 l/m 18,0 km/h (3 Bft) S-SW 205 1 min 0,000 mm 4,0 UV-I 542 W/m 13,4 C 11,9 C 24,1 km/h (4 Bft) 100,00 %
01.06.2016 13:03 16,4 C 84 % 1011,2 hPa 0,0 l/m 12,6 km/h (3 Bft) S-SW 193 1 min 0,000 mm 4,1 UV-I 549 W/m 13,7 C 13,7 C 16,1 km/h (3 Bft) 100,00 %
01.06.2016 13:04 16,4 C 84 % 1011,2 hPa 0,0 l/m 14,5 km/h (3 Bft) SW 232 1 min 0,000 mm 4,0 UV-I 541 W/m 13,7 C 13,0 C 22,5 km/h (4 Bft) 100,00 %
01.06.2016 13:05 16,4 C 83 % 1011,2 hPa 0,0 l/m 13,0 km/h (3 Bft) W-SW 237 1 min 0,000 mm 4,0 UV-I 545 W/m 13,5 C 13,5 C 19,3 km/h (3 Bft) 100,00 %
01.06.2016 13:06 16,4 C 83 % 1011,2 hPa 0,0 l/m 11,4 km/h (2 Bft) W-SW 238 1 min 0,000 mm 4,0 UV-I 561 W/m 13,5 C 14,1 C 19,3 km/h (3 Bft) 95,83 %
01.06.2016 13:07 16,5 C 82 % 1011,2 hPa 0,0 l/m 10,5 km/h (2 Bft) S-SW 196 1 min 0,000 mm 3,8 UV-I 535 W/m 13,4 C 14,6 C 12,9 km/h (3 Bft) 100,00 %
01.06.2016 13:08 16,6 C 83 % 1011,2 hPa 0,0 l/m 14,0 km/h (3 Bft) W-SW 250 1 min 0,000 mm 3,7 UV-I 508 W/m 13,7 C 13,4 C 22,5 km/h (4 Bft) 100,00 %
01.06.2016 13:09 16,6 C 83 % 1011,3 hPa 0,0 l/m 15,6 km/h (3 Bft) S-SO 165 1 min 0,000 mm 3,9 UV-I 532 W/m 13,7 C 13,0 C 22,5 km/h (4 Bft) 95,65 %
01.06.2016 13:10 16,6 C 83 % 1011,3 hPa 0,0 l/m 14,6 km/h (3 Bft) SW 234 1 min 0,000 mm 3,8 UV-I 522 W/m 13,7 C 13,3 C 22,5 km/h (4 Bft) 100,00 %
01.06.2016 13:11 16,6 C 83 % 1011,2 hPa 0,0 l/m 13,2 km/h (3 Bft) W-SW 257 1 min 0,000 mm 4,0 UV-I 543 W/m 13,7 C 13,7 C 19,3 km/h (3 Bft) 100,00 %
01.06.2016 13:12 16,6 C 83 % 1011,2 hPa 0,0 l/m 16,8 km/h (3 Bft) S-SW 205 1 min 0,000 mm 4,2 UV-I 581 W/m 13,7 C 12,6 C 24,1 km/h (4 Bft) 100,00 %
01.06.2016 13:13 16,6 C 82 % 1011,2 hPa 0,0 l/m 14,9 km/h (3 Bft) W-SW 240 1 min 0,000 mm 4,1 UV-I 564 W/m 13,5 C 13,2 C 19,3 km/h (3 Bft) 100,00 %
01.06.2016 13:14 16,6 C 84 % 1011,2 hPa 0,0 l/m 11,6 km/h (2 Bft) SW 217 1 min 0,000 mm 4,2 UV-I 573 W/m 13,9 C 14,3 C 19,3 km/h (3 Bft) 91,30 %
01.06.2016 13:15 16,7 C 82 % 1011,2 hPa 0,0 l/m 17,4 km/h (3 Bft) S 184 1 min 0,000 mm 4,2 UV-I 568 W/m 13,6 C 12,6 C 22,5 km/h (4 Bft) 100,00 %
01.06.2016 13:16 16,7 C 82 % 1011,2 hPa 0,0 l/m 13,3 km/h (3 Bft) SW 230 1 min 0,000 mm 4,2 UV-I 582 W/m 13,6 C 13,8 C 19,3 km/h (3 Bft) 100,00 %
01.06.2016 13:17 16,7 C 81 % 1011,2 hPa 0,0 l/m 13,6 km/h (3 Bft) S 186 1 min 0,000 mm 3,9 UV-I 527 W/m 13,4 C 13,7 C 22,5 km/h (4 Bft) 100,00 %
01.06.2016 13:18 16,7 C 80 % 1011,2 hPa 0,0 l/m 15,4 km/h (3 Bft) S-SW 205 1 min 0,000 mm 3,8 UV-I 528 W/m 13,2 C 13,1 C 25,7 km/h (4 Bft) 95,65 %
01.06.2016 13:19 16,6 C 81 % 1011,2 hPa 0,0 l/m 18,0 km/h (3 Bft) S-SW 192 1 min 0,000 mm 4,0 UV-I 540 W/m 13,3 C 12,3 C 24,1 km/h (4 Bft) 100,00 %
01.06.2016 13:20 16,7 C 82 % 1011,2 hPa 0,0 l/m 10,3 km/h (2 Bft) W 267 1 min 0,000 mm 4,0 UV-I 540 W/m 13,6 C 14,9 C 14,5 km/h (3 Bft) 96,15 %
01.06.2016 13:21 16,7 C 84 % 1011,2 hPa 0,0 l/m 10,6 km/h (2 Bft) S 190 1 min 0,000 mm 4,2 UV-I 565 W/m 14,0 C 14,8 C 14,5 km/h (3 Bft) 100,00 %
01.06.2016 13:22 16,8 C 82 % 1011,2 hPa 0,0 l/m 10,4 km/h (2 Bft) SW 214 1 min 0,000 mm 4,1 UV-I 554 W/m 13,7 C 14,9 C 16,1 km/h (3 Bft) 100,00 %
01.06.2016 13:23 16,8 C 82 % 1011,2 hPa 0,0 l/m 12,2 km/h (2 Bft) S-SW 204 1 min 0,000 mm 4,0 UV-I 542 W/m 13,7 C 14,3 C 19,3 km/h (3 Bft) 95,83 %
01.06.2016 13:24 16,8 C 82 % 1011,2 hPa 0,0 l/m 10,7 km/h (2 Bft) S-SW 207 1 min 0,000 mm 4,0 UV-I 548 W/m 13,7 C 14,8 C 16,1 km/h (3 Bft) 91,30 %
01.06.2016 13:25 16,8 C 83 % 1011,2 hPa 0,0 l/m 13,0 km/h (3 Bft) W-SW 238 1 min 0,000 mm 4,0 UV-I 553 W/m 13,9 C 14,0 C 17,7 km/h (3 Bft) 100,00 %
01.06.2016 13:26 16,8 C 82 % 1011,2 hPa 0,0 l/m 11,6 km/h (2 Bft) W-SW 242 1 min 0,000 mm 4,0 UV-I 544 W/m 13,7 C 14,5 C 16,1 km/h (3 Bft) 95,65 %
01.06.2016 13:27 16,8 C 82 % 1011,2 hPa 0,0 l/m 9,0 km/h (2 Bft) SW 232 1 min 0,000 mm 3,8 UV-I 514 W/m 13,7 C 15,5 C 16,1 km/h (3 Bft) 100,00 %
01.06.2016 13:28 16,9 C 83 % 1011,2 hPa 0,0 l/m 12,7 km/h (3 Bft) S-SW 202 1 min 0,000 mm 3,8 UV-I 515 W/m 14,0 C 14,2 C 19,3 km/h (3 Bft) 95,65 %
01.06.2016 13:29 16,9 C 83 % 1011,2 hPa 0,0 l/m 15,7 km/h (3 Bft) SW 225 1 min 0,000 mm 3,8 UV-I 508 W/m 14,0 C 13,3 C 24,1 km/h (4 Bft) 100,00 %
01.06.2016 13:30 16,9 C 82 % 1011,2 hPa 0,0 l/m 14,6 km/h (3 Bft) S-SW 198 1 min 0,000 mm 3,7 UV-I 489 W/m 13,8 C 13,6 C 24,1 km/h (4 Bft) 100,00 %
01.06.2016 13:31 16,9 C 81 % 1011,2 hPa 0,0 l/m 21,1 km/h (4 Bft) SW 231 0 min 0,000 mm 3,6 UV-I 478 W/m 13,6 C 12,0 C 27,4 km/h (4 Bft) 96,15 %
01.06.2016 13:32 16,9 C 81 % 1011,2 hPa 0,0 l/m 18,1 km/h (3 Bft) SW 230 0 min 0,000 mm 3,6 UV-I 482 W/m 13,6 C 12,7 C 22,5 km/h (4 Bft) 91,67 %
01.06.2016 13:33 16,8 C 82 % 1011,2 hPa 0,0 l/m 18,3 km/h (3 Bft) W-SW 240 0 min 0,000 mm 3,5 UV-I 483 W/m 13,7 C 12,5 C 25,7 km/h (4 Bft) 95,65 %
01.06.2016 13:34 16,8 C 82 % 1011,2 hPa 0,0 l/m 17,5 km/h (3 Bft) SW 217 0 min 0,000 mm 3,4 UV-I 471 W/m 13,7 C 12,7 C 20,9 km/h (4 Bft) 95,83 %
01.06.2016 13:35 16,8 C 81 % 1011,2 hPa 0,0 l/m 12,8 km/h (3 Bft) W-SW 247 0 min 0,000 mm 3,4 UV-I 457 W/m 13,5 C 14,1 C 17,7 km/h (3 Bft) 95,65 %
01.06.2016 13:36 16,8 C 82 % 1011,2 hPa 0,0 l/m 11,5 km/h (2 Bft) W 263 0 min 0,000 mm 3,2 UV-I 448 W/m 13,7 C 14,5 C 16,1 km/h (3 Bft) 95,83 %
01.06.2016 13:37 16,9 C 82 % 1011,2 hPa 0,0 l/m 12,4 km/h (3 Bft) W-SW 244 0 min 0,000 mm 3,3 UV-I 461 W/m 13,8 C 14,3 C 19,3 km/h (3 Bft) 91,30 %
01.06.2016 13:38 16,9 C 82 % 1011,1 hPa 0,0 l/m 13,7 km/h (3 Bft) SW 231 0 min 0,000 mm 3,3 UV-I 465 W/m 13,8 C 13,9 C 20,9 km/h (4 Bft) 100,00 %
01.06.2016 13:39 16,9 C 82 % 1011,1 hPa 0,0 l/m 6,0 km/h (2 Bft) SW 230 0 min 0,000 mm 3,2 UV-I 430 W/m 13,8 C 16,9 C 12,9 km/h (3 Bft) 97,37 %
01.06.2016 13:40 17,0 C 83 % 1011,1 hPa 0,0 l/m 9,4 km/h (2 Bft) SW 219 0 min 0,000 mm 2,9 UV-I 388 W/m 14,1 C 15,6 C 14,5 km/h (3 Bft) 100,00 %
01.06.2016 13:41 17,1 C 82 % 1011,1 hPa 0,0 l/m 20,3 km/h (4 Bft) SW 235 0 min 0,000 mm 2,6 UV-I 359 W/m 14,0 C 12,4 C 27,4 km/h (4 Bft) 100,00 %
01.06.2016 13:42 17,0 C 80 % 1011,2 hPa 0,0 l/m 19,8 km/h (3 Bft) SW 223 0 min 0,000 mm 2,5 UV-I 335 W/m 13,5 C 12,4 C 24,1 km/h (4 Bft) 100,00 %
01.06.2016 13:43 16,9 C 79 % 1011,1 hPa 0,0 l/m 14,2 km/h (3 Bft) SO 142 0 min 0,000 mm 2,4 UV-I 323 W/m 13,2 C 13,7 C 19,3 km/h (3 Bft) 100,00 %
01.06.2016 13:44 16,8 C 80 % 1011,1 hPa 0,0 l/m 18,1 km/h (3 Bft) SW 223 0 min 0,000 mm 2,4 UV-I 328 W/m 13,3 C 12,5 C 25,7 km/h (4 Bft) 100,00 %
01.06.2016 13:45 16,7 C 81 % 1011,1 hPa 0,0 l/m 14,0 km/h (3 Bft) W-SW 241 0 min 0,000 mm 2,4 UV-I 327 W/m 13,4 C 13,6 C 19,3 km/h (3 Bft) 100,00 %
01.06.2016 13:46 16,7 C 81 % 1011,1 hPa 0,0 l/m 9,9 km/h (2 Bft) S-SO 160 0 min 0,000 mm 2,2 UV-I 308 W/m 13,4 C 15,0 C 16,1 km/h (3 Bft) 100,00 %
01.06.2016 13:47 16,6 C 81 % 1011,1 hPa 0,0 l/m 8,8 km/h (2 Bft) SW 228 0 min 0,000 mm 2,1 UV-I 292 W/m 13,3 C 15,4 C 14,5 km/h (3 Bft) 100,00 %
01.06.2016 13:48 16,6 C 82 % 1011,1 hPa 0,0 l/m 13,3 km/h (3 Bft) SW 230 0 min 0,000 mm 2,1 UV-I 285 W/m 13,5 C 13,7 C 17,7 km/h (3 Bft) 95,65 %
01.06.2016 13:49 16,6 C 82 % 1011,1 hPa 0,0 l/m 15,6 km/h (3 Bft) S-SW 210 0 min 0,000 mm 2,0 UV-I 278 W/m 13,5 C 13,0 C 22,5 km/h (4 Bft) 100,00 %
01.06.2016 13:50 16,5 C 81 % 1011,1 hPa 0,0 l/m 16,0 km/h (3 Bft) SW 234 0 min 0,000 mm 1,9 UV-I 269 W/m 13,2 C 12,7 C 22,5 km/h (4 Bft) 100,00 %
01.06.2016 13:51 16,5 C 82 % 1011,1 hPa 0,0 l/m 11,9 km/h (2 Bft) SW 228 0 min 0,000 mm 1,9 UV-I 261 W/m 13,4 C 14,0 C 19,3 km/h (3 Bft) 100,00 %
01.06.2016 13:52 16,5 C 82 % 1011,1 hPa 0,0 l/m 12,8 km/h (3 Bft) SW 219 0 min 0,000 mm 1,8 UV-I 252 W/m 13,4 C 13,7 C 17,7 km/h (3 Bft) 100,00 %
01.06.2016 13:53 16,4 C 82 % 1011,1 hPa 0,0 l/m 14,2 km/h (3 Bft) S-SW 209 0 min 0,000 mm 1,7 UV-I 241 W/m 13,3 C 13,1 C 19,3 km/h (3 Bft) 100,00 %
01.06.2016 13:54 16,4 C 82 % 1011,1 hPa 0,0 l/m 14,7 km/h (3 Bft) W-SW 254 0 min 0,000 mm 1,7 UV-I 234 W/m 13,3 C 13,0 C 19,3 km/h (3 Bft) 100,00 %
01.06.2016 13:55 16,4 C 82 % 1011,1 hPa 0,0 l/m 13,1 km/h (3 Bft) W-SW 246 0 min 0,000 mm 1,6 UV-I 228 W/m 13,3 C 13,5 C 16,1 km/h (3 Bft) 100,00 %
01.06.2016 13:56 16,4 C 83 % 1011,1 hPa 0,0 l/m 15,3 km/h (3 Bft) S-SW 207 0 min 0,000 mm 1,6 UV-I 224 W/m 13,5 C 12,8 C 22,5 km/h (4 Bft) 100,00 %
01.06.2016 13:57 16,4 C 83 % 1011,1 hPa 0,0 l/m 17,4 km/h (3 Bft) W-SW 237 0 min 0,000 mm 1,6 UV-I 220 W/m 13,5 C 12,2 C 24,1 km/h (4 Bft) 100,00 %
01.06.2016 13:58 16,4 C 81 % 1011,1 hPa 0,0 l/m 13,7 km/h (3 Bft) W-SW 237 0 min 0,000 mm 1,5 UV-I 213 W/m 13,1 C 13,3 C 24,1 km/h (4 Bft) 100,00 %
01.06.2016 13:59 16,4 C 81 % 1011,1 hPa 0,0 l/m 14,3 km/h (3 Bft) W-SW 241 0 min 0,000 mm 1,5 UV-I 208 W/m 13,1 C 13,1 C 22,5 km/h (4 Bft) 95,83 %
01.06.2016 14:00 16,4 C 82 % 1011,1 hPa 0,0 l/m 15,0 km/h (3 Bft) W-SW 238 0 min 0,254 mm 1,5 UV-I 205 W/m 13,3 C 12,9 C 19,3 km/h (3 Bft) 100,00 %
01.06.2016 14:01 16,3 C 82 % 1011,1 hPa 0,0 l/m 14,5 km/h (3 Bft) SW 232 0 min 0,000 mm 1,4 UV-I 201 W/m 13,2 C 12,9 C 20,9 km/h (4 Bft) 100,00 %
01.06.2016 14:02 16,3 C 82 % 1011,1 hPa 0,0 l/m 15,3 km/h (3 Bft) S-SW 196 0 min 0,000 mm 1,3 UV-I 193 W/m 13,2 C 12,7 C 20,9 km/h (4 Bft) 100,00 %
01.06.2016 14:03 16,3 C 81 % 1011,1 hPa 0,0 l/m 12,2 km/h (2 Bft) SW 222 0 min 0,000 mm 1,3 UV-I 189 W/m 13,0 C 13,7 C 17,7 km/h (3 Bft) 100,00 %
01.06.2016 14:04 16,3 C 81 % 1011,1 hPa 0,0 l/m 15,8 km/h (3 Bft) SW 233 0 min 0,000 mm 1,4 UV-I 196 W/m 13,0 C 12,5 C 24,1 km/h (4 Bft) 100,00 %
01.06.2016 14:05 16,3 C 82 % 1011,1 hPa 0,0 l/m 12,0 km/h (2 Bft) SW 224 0 min 0,000 mm 1,4 UV-I 200 W/m 13,2 C 13,8 C 16,1 km/h (3 Bft) 100,00 %
01.06.2016 14:06 16,3 C 81 % 1011,1 hPa 0,0 l/m 14,7 km/h (3 Bft) SW 230 0 min 0,000 mm 1,4 UV-I 202 W/m 13,0 C 12,9 C 24,1 km/h (4 Bft) 100,00 %
01.06.2016 14:07 16,3 C 82 % 1011,1 hPa 0,0 l/m 11,7 km/h (2 Bft) W-SW 237 0 min 0,000 mm 1,4 UV-I 202 W/m 13,2 C 13,9 C 17,7 km/h (3 Bft) 100,00 %
01.06.2016 14:08 16,3 C 82 % 1011,1 hPa 0,0 l/m 9,7 km/h (2 Bft) SW 219 0 min 0,000 mm 1,4 UV-I 200 W/m 13,2 C 14,7 C 14,5 km/h (3 Bft) 100,00 %
01.06.2016 14:09 16,3 C 83 % 1011,1 hPa 0,0 l/m 9,7 km/h (2 Bft) S 184 0 min 0,000 mm 1,4 UV-I 198 W/m 13,4 C 14,7 C 14,5 km/h (3 Bft) 100,00 %
01.06.2016 14:10 16,3 C 83 % 1011,1 hPa 0,0 l/m 8,1 km/h (2 Bft) S 186 0 min 0,000 mm 1,3 UV-I 190 W/m 13,4 C 15,4 C 12,9 km/h (3 Bft) 100,00 %
01.06.2016 14:11 16,3 C 82 % 1011,1 hPa 0,0 l/m 9,1 km/h (2 Bft) SW 221 0 min 0,000 mm 1,3 UV-I 187 W/m 13,2 C 14,9 C 14,5 km/h (3 Bft) 100,00 %
01.06.2016 14:12 16,3 C 82 % 1011,1 hPa 0,0 l/m 16,4 km/h (3 Bft) SW 225 0 min 0,000 mm 1,3 UV-I 187 W/m 13,2 C 12,4 C 24,1 km/h (4 Bft) 100,00 %
01.06.2016 14:13 16,2 C 82 % 1011,1 hPa 0,0 l/m 14,9 km/h (3 Bft) W 263 0 min 0,000 mm 1,3 UV-I 184 W/m 13,1 C 12,7 C 20,9 km/h (4 Bft) 100,00 %
01.06.2016 14:14 16,2 C 82 % 1011,1 hPa 0,0 l/m 10,8 km/h (2 Bft) SW 220 0 min 0,000 mm 1,2 UV-I 181 W/m 13,1 C 14,1 C 14,5 km/h (3 Bft) 91,67 %
01.06.2016 14:15 16,2 C 82 % 1011,0 hPa 0,0 l/m 14,9 km/h (3 Bft) W-SW 249 0 min 0,000 mm 1,2 UV-I 178 W/m 13,1 C 12,7 C 22,5 km/h (4 Bft) 100,00 %
01.06.2016 14:16 16,2 C 82 % 1011,0 hPa 0,0 l/m 15,5 km/h (3 Bft) SW 233 0 min 0,000 mm 1,2 UV-I 177 W/m 13,1 C 12,5 C 25,7 km/h (4 Bft) 95,83 %
01.06.2016 14:17 16,2 C 82 % 1011,0 hPa 0,0 l/m 17,8 km/h (3 Bft) SW 234 0 min 0,000 mm 1,2 UV-I 173 W/m 13,1 C 11,8 C 24,1 km/h (4 Bft) 95,65 %
01.06.2016 14:18 16,2 C 82 % 1011,1 hPa 0,0 l/m 18,2 km/h (3 Bft) SW 229 0 min 0,000 mm 1,2 UV-I 171 W/m 13,1 C 11,7 C 25,7 km/h (4 Bft) 100,00 %
01.06.2016 14:19 16,2 C 82 % 1011,0 hPa 0,0 l/m 15,8 km/h (3 Bft) W-SW 255 0 min 0,000 mm 1,1 UV-I 170 W/m 13,1 C 12,4 C 22,5 km/h (4 Bft) 91,30 %
01.06.2016 14:20 16,2 C 81 % 1010,9 hPa 0,0 l/m 17,1 km/h (3 Bft) W-SW 255 0 min 0,000 mm 1,1 UV-I 169 W/m 12,9 C 12,0 C 22,5 km/h (4 Bft) 100,00 %
01.06.2016 14:21 16,2 C 81 % 1011,0 hPa 0,0 l/m 14,6 km/h (3 Bft) W 264 0 min 0,000 mm 1,1 UV-I 172 W/m 12,9 C 12,8 C 22,5 km/h (4 Bft) 95,65 %
01.06.2016 14:22 16,1 C 81 % 1010,9 hPa 0,0 l/m 14,6 km/h (3 Bft) W-SW 255 0 min 0,000 mm 1,2 UV-I 175 W/m 12,8 C 12,6 C 19,3 km/h (3 Bft) 100,00 %
01.06.2016 14:23 16,1 C 82 % 1011,0 hPa 0,0 l/m 12,3 km/h (3 Bft) S-SW 213 0 min 0,000 mm 1,2 UV-I 180 W/m 13,0 C 13,4 C 17,7 km/h (3 Bft) 96,15 %
01.06.2016 14:24 16,1 C 82 % 1010,9 hPa 0,0 l/m 13,1 km/h (3 Bft) SW 225 0 min 0,000 mm 1,2 UV-I 185 W/m 13,0 C 13,1 C 19,3 km/h (3 Bft) 95,83 %
01.06.2016 14:25 16,1 C 82 % 1011,0 hPa 0,0 l/m 10,1 km/h (2 Bft) SW 232 0 min 0,000 mm 1,3 UV-I 190 W/m 13,0 C 14,3 C 12,9 km/h (3 Bft) 100,00 %
01.06.2016 14:26 16,1 C 83 % 1011,0 hPa 0,0 l/m 12,9 km/h (3 Bft) W-SW 240 0 min 0,000 mm 1,3 UV-I 195 W/m 13,2 C 13,2 C 16,1 km/h (3 Bft) 95,83 %
01.06.2016 14:27 16,1 C 83 % 1011,0 hPa 0,0 l/m 11,4 km/h (2 Bft) SW 221 0 min 0,000 mm 1,3 UV-I 197 W/m 13,2 C 13,8 C 16,1 km/h (3 Bft) 95,65 %
01.06.2016 14:28 16,1 C 83 % 1011,0 hPa 0,0 l/m 13,3 km/h (3 Bft) W-SW 244 0 min 0,000 mm 1,3 UV-I 194 W/m 13,2 C 13,1 C 19,3 km/h (3 Bft) 95,83 %
01.06.2016 14:29 16,1 C 81 % 1011,0 hPa 0,0 l/m 19,6 km/h (3 Bft) SW 235 0 min 0,000 mm 1,3 UV-I 188 W/m 12,8 C 11,3 C 27,4 km/h (4 Bft) 100,00 %
01.06.2016 14:30 16,1 C 81 % 1011,0 hPa 0,0 l/m 16,1 km/h (3 Bft) W-SW 240 0 min 0,000 mm 1,2 UV-I 176 W/m 12,8 C 12,2 C 22,5 km/h (4 Bft) 91,67 %
01.06.2016 14:31 16,1 C 81 % 1011,0 hPa 0,0 l/m 16,4 km/h (3 Bft) SW 230 0 min 0,000 mm 1,1 UV-I 167 W/m 12,8 C 12,1 C 22,5 km/h (4 Bft) 100,00 %
01.06.2016 14:32 16,1 C 82 % 1011,0 hPa 0,0 l/m 17,6 km/h (3 Bft) W-SW 237 0 min 0,000 mm 1,1 UV-I 160 W/m 13,0 C 11,8 C 27,4 km/h (4 Bft) 91,67 %
01.06.2016 14:33 16,1 C 82 % 1011,0 hPa 0,0 l/m 18,7 km/h (3 Bft) SW 218 0 min 0,000 mm 1,0 UV-I 151 W/m 13,0 C 11,5 C 29,0 km/h (5 Bft) 95,83 %
01.06.2016 14:34 16,1 C 82 % 1011,0 hPa 0,0 l/m 15,1 km/h (3 Bft) S-SW 208 0 min 0,000 mm 1,0 UV-I 149 W/m 13,0 C 12,5 C 19,3 km/h (3 Bft) 95,65 %
01.06.2016 14:35 16,0 C 82 % 1011,0 hPa 0,0 l/m 14,3 km/h (3 Bft) SW 223 0 min 0,000 mm 1,0 UV-I 143 W/m 12,9 C 12,6 C 22,5 km/h (4 Bft) 95,83 %
01.06.2016 14:36 16,0 C 83 % 1011,0 hPa 0,0 l/m 10,2 km/h (2 Bft) W-SW 240 0 min 0,000 mm 1,0 UV-I 141 W/m 13,1 C 14,1 C 16,1 km/h (3 Bft) 90,91 %
01.06.2016 14:37 15,9 C 84 % 1011,1 hPa 0,0 l/m 11,5 km/h (2 Bft) SW 229 0 min 0,000 mm 1,0 UV-I 138 W/m 13,2 C 13,5 C 16,1 km/h (3 Bft) 96,30 %
01.06.2016 14:38 15,9 C 84 % 1011,0 hPa 0,0 l/m 12,0 km/h (2 Bft) SW 229 0 min 0,000 mm 0,9 UV-I 134 W/m 13,2 C 13,3 C 16,1 km/h (3 Bft) 100,00 %
01.06.2016 14:39 15,9 C 84 % 1011,0 hPa 0,0 l/m 8,7 km/h (2 Bft) W-SW 240 0 min 0,000 mm 0,9 UV-I 129 W/m 13,2 C 14,7 C 11,3 km/h (2 Bft) 91,67 %
01.06.2016 14:40 15,9 C 84 % 1011,0 hPa 0,0 l/m 12,9 km/h (3 Bft) SW 230 0 min 0,000 mm 0,9 UV-I 126 W/m 13,2 C 13,0 C 20,9 km/h (4 Bft) 100,00 %
01.06.2016 14:41 15,9 C 84 % 1011,0 hPa 0,0 l/m 14,6 km/h (3 Bft) W-SW 254 0 min 0,000 mm 0,9 UV-I 122 W/m 13,2 C 12,4 C 20,9 km/h (4 Bft) 95,83 %
01.06.2016 14:42 15,8 C 83 % 1011,0 hPa 0,0 l/m 19,1 km/h (3 Bft) SW 227 0 min 0,000 mm 0,9 UV-I 117 W/m 12,9 C 11,0 C 27,4 km/h (4 Bft) 86,96 %
01.06.2016 14:43 15,8 C 82 % 1011,0 hPa 0,0 l/m 11,0 km/h (2 Bft) W-SW 244 0 min 0,000 mm 0,8 UV-I 114 W/m 12,7 C 13,6 C 20,9 km/h (4 Bft) 100,00 %
01.06.2016 14:44 15,8 C 83 % 1011,0 hPa 0,0 l/m 10,9 km/h (2 Bft) SW 224 0 min 0,000 mm 0,8 UV-I 111 W/m 12,9 C 13,6 C 17,7 km/h (3 Bft) 96,15 %
01.06.2016 14:45 15,8 C 83 % 1011,0 hPa 0,0 l/m 10,6 km/h (2 Bft) SW 230 0 min 0,000 mm 0,8 UV-I 108 W/m 12,9 C 13,7 C 17,7 km/h (3 Bft) 100,00 %
01.06.2016 14:46 15,8 C 83 % 1011,0 hPa 0,0 l/m 8,3 km/h (2 Bft) S-SW 202 0 min 0,000 mm 0,8 UV-I 106 W/m 12,9 C 14,8 C 14,5 km/h (3 Bft) 95,65 %
01.06.2016 14:47 15,8 C 83 % 1011,0 hPa 0,0 l/m 14,5 km/h (3 Bft) SW 232 0 min 0,000 mm 0,8 UV-I 104 W/m 12,9 C 12,3 C 19,3 km/h (3 Bft) 100,00 %
01.06.2016 14:48 15,8 C 83 % 1011,0 hPa 0,0 l/m 10,9 km/h (2 Bft) W 263 0 min 0,000 mm 0,7 UV-I 103 W/m 12,9 C 13,6 C 16,1 km/h (3 Bft) 91,30 %
01.06.2016 14:49 15,8 C 83 % 1011,0 hPa 0,0 l/m 10,4 km/h (2 Bft) SW 222 0 min 0,000 mm 0,7 UV-I 100 W/m 12,9 C 13,8 C 12,9 km/h (3 Bft) 95,83 %
01.06.2016 14:50 15,8 C 83 % 1011,0 hPa 0,0 l/m 11,7 km/h (2 Bft) SW 216 0 min 0,000 mm 0,7 UV-I 97 W/m 12,9 C 13,3 C 17,7 km/h (3 Bft) 100,00 %
01.06.2016 14:51 15,8 C 83 % 1011,1 hPa 0,0 l/m 7,4 km/h (2 Bft) SW 227 0 min 0,000 mm 0,7 UV-I 94 W/m 12,9 C 15,3 C 11,3 km/h (2 Bft) 100,00 %
01.06.2016 14:52 15,8 C 83 % 1011,1 hPa 0,0 l/m 8,2 km/h (2 Bft) SW 218 0 min 0,000 mm 0,6 UV-I 90 W/m 12,9 C 14,8 C 14,5 km/h (3 Bft) 100,00 %
01.06.2016 14:53 15,8 C 84 % 1011,1 hPa 0,0 l/m 9,3 km/h (2 Bft) SW 231 0 min 0,000 mm 0,6 UV-I 86 W/m 13,1 C 14,3 C 12,9 km/h (3 Bft) 96,15 %
01.06.2016 14:54 15,8 C 83 % 1011,1 hPa 0,0 l/m 11,3 km/h (2 Bft) W-SW 238 0 min 0,000 mm 0,6 UV-I 82 W/m 12,9 C 13,5 C 16,1 km/h (3 Bft) 100,00 %
01.06.2016 14:55 15,8 C 83 % 1011,1 hPa 0,0 l/m 10,5 km/h (2 Bft) SW 222 0 min 0,000 mm 0,6 UV-I 79 W/m 12,9 C 13,8 C 16,1 km/h (3 Bft) 91,30 %
01.06.2016 14:56 15,8 C 83 % 1011,1 hPa 0,0 l/m 12,3 km/h (3 Bft) S-SW 202 0 min 0,000 mm 0,5 UV-I 77 W/m 12,9 C 13,1 C 20,9 km/h (4 Bft) 100,00 %
01.06.2016 14:57 15,8 C 83 % 1011,1 hPa 0,0 l/m 8,6 km/h (2 Bft) W 281 0 min 0,000 mm 0,5 UV-I 76 W/m 12,9 C 14,6 C 12,9 km/h (3 Bft) 100,00 %
01.06.2016 14:58 15,8 C 83 % 1011,0 hPa 0,0 l/m 10,3 km/h (2 Bft) S-SW 211 0 min 0,000 mm 0,5 UV-I 76 W/m 12,9 C 13,9 C 14,5 km/h (3 Bft) 100,00 %
01.06.2016 14:59 15,8 C 83 % 1011,1 hPa 0,0 l/m 8,0 km/h (2 Bft) S 186 0 min 0,000 mm 0,5 UV-I 76 W/m 12,9 C 14,9 C 12,9 km/h (3 Bft) 100,00 %
01.06.2016 15:00 15,8 C 83 % 1011,0 hPa 0,0 l/m 5,6 km/h (1 Bft) SW 225 0 min 0,000 mm 0,5 UV-I 76 W/m 12,9 C 15,8 C 8,0 km/h (2 Bft) 100,00 %
01.06.2016 15:01 15,8 C 83 % 1011,0 hPa 0,0 l/m 5,8 km/h (2 Bft) W-SW 239 0 min 0,102 mm 0,5 UV-I 76 W/m 12,9 C 15,8 C 8,0 km/h (2 Bft) 100,00 %
01.06.2016 15:02 15,8 C 84 % 1011,1 hPa 0,0 l/m 6,9 km/h (2 Bft) SW 231 0 min 0,000 mm 0,5 UV-I 76 W/m 13,1 C 15,5 C 11,3 km/h (2 Bft) 100,00 %
01.06.2016 15:03 15,7 C 84 % 1011,0 hPa 0,0 l/m 11,3 km/h (2 Bft) W-SW 254 0 min 0,000 mm 0,5 UV-I 76 W/m 13,0 C 13,3 C 17,7 km/h (3 Bft) 100,00 %
01.06.2016 15:04 15,7 C 83 % 1011,0 hPa 0,0 l/m 9,0 km/h (2 Bft) W-SW 240 0 min 0,000 mm 0,5 UV-I 76 W/m 12,8 C 14,3 C 11,3 km/h (2 Bft) 95,83 %
01.06.2016 15:05 15,8 C 84 % 1011,0 hPa 0,0 l/m 5,8 km/h (2 Bft) W-SW 238 0 min 0,000 mm 0,5 UV-I 77 W/m 13,1 C 15,8 C 8,0 km/h (2 Bft) 100,00 %
01.06.2016 15:06 15,8 C 84 % 1011,0 hPa 0,0 l/m 6,0 km/h (2 Bft) SW 226 0 min 0,000 mm 0,5 UV-I 77 W/m 13,1 C 15,8 C 8,0 km/h (2 Bft) 100,00 %
01.06.2016 15:07 15,8 C 84 % 1011,0 hPa 0,0 l/m 7,4 km/h (2 Bft) W-SW 250 0 min 0,000 mm 0,5 UV-I 77 W/m 13,1 C 15,3 C 11,3 km/h (2 Bft) 100,00 %
01.06.2016 15:08 15,8 C 84 % 1011,0 hPa 0,0 l/m 6,2 km/h (2 Bft) SW 219 0 min 0,000 mm 0,5 UV-I 77 W/m 13,1 C 15,8 C 9,7 km/h (2 Bft) 96,15 %
01.06.2016 15:09 15,8 C 84 % 1011,0 hPa 0,0 l/m 5,4 km/h (1 Bft) SW 226 0 min 0,000 mm 0,5 UV-I 78 W/m 13,1 C 15,8 C 8,0 km/h (2 Bft) 100,00 %
01.06.2016 15:10 15,8 C 84 % 1011,0 hPa 0,0 l/m 8,9 km/h (2 Bft) SW 227 0 min 0,000 mm 0,5 UV-I 81 W/m 13,1 C 14,5 C 12,9 km/h (3 Bft) 100,00 %
01.06.2016 15:11 15,8 C 84 % 1011,0 hPa 0,0 l/m 8,4 km/h (2 Bft) W-SW 243 0 min 0,000 mm 0,5 UV-I 84 W/m 13,1 C 14,7 C 12,9 km/h (3 Bft) 100,00 %
01.06.2016 15:12 15,8 C 84 % 1011,0 hPa 0,0 l/m 9,0 km/h (2 Bft) W-SW 246 0 min 0,000 mm 0,6 UV-I 87 W/m 13,1 C 14,5 C 11,3 km/h (2 Bft) 100,00 %
01.06.2016 15:13 15,8 C 84 % 1011,0 hPa 0,0 l/m 11,5 km/h (2 Bft) W-SW 252 0 min 0,000 mm 0,6 UV-I 90 W/m 13,1 C 13,4 C 14,5 km/h (3 Bft) 95,83 %
01.06.2016 15:14 15,8 C 83 % 1011,0 hPa 0,0 l/m 9,5 km/h (2 Bft) SW 236 0 min 0,000 mm 0,6 UV-I 91 W/m 12,9 C 14,2 C 14,5 km/h (3 Bft) 100,00 %
01.06.2016 15:15 15,8 C 84 % 1011,0 hPa 0,0 l/m 9,1 km/h (2 Bft) SW 231 0 min 0,000 mm 0,6 UV-I 93 W/m 13,1 C 14,4 C 12,9 km/h (3 Bft) 95,83 %
01.06.2016 15:16 15,9 C 84 % 1011,0 hPa 0,0 l/m 9,0 km/h (2 Bft) SW 234 0 min 0,000 mm 0,6 UV-I 93 W/m 13,2 C 14,6 C 12,9 km/h (3 Bft) 95,65 %
01.06.2016 15:17 15,9 C 84 % 1011,0 hPa 0,0 l/m 10,1 km/h (2 Bft) SW 235 0 min 0,000 mm 0,6 UV-I 92 W/m 13,2 C 14,1 C 14,5 km/h (3 Bft) 100,00 %
01.06.2016 15:18 15,9 C 84 % 1011,0 hPa 0,0 l/m 11,5 km/h (2 Bft) W 267 0 min 0,000 mm 0,6 UV-I 89 W/m 13,2 C 13,5 C 14,5 km/h (3 Bft) 100,00 %
01.06.2016 15:19 15,9 C 84 % 1011,0 hPa 0,0 l/m 7,4 km/h (2 Bft) SW 220 0 min 0,000 mm 0,6 UV-I 90 W/m 13,2 C 15,4 C 11,3 km/h (2 Bft) 95,83 %
01.06.2016 15:20 15,9 C 84 % 1011,0 hPa 0,0 l/m 7,3 km/h (2 Bft) S-SW 205 0 min 0,000 mm 0,6 UV-I 99 W/m 13,2 C 15,4 C 11,3 km/h (2 Bft) 100,00 %
01.06.2016 15:21 15,9 C 84 % 1011,0 hPa 0,0 l/m 10,9 km/h (2 Bft) SW 222 0 min 0,000 mm 0,7 UV-I 110 W/m 13,2 C 13,7 C 16,1 km/h (3 Bft) 100,00 %
01.06.2016 15:22 15,9 C 83 % 1011,0 hPa 0,0 l/m 9,5 km/h (2 Bft) S-SW 205 0 min 0,000 mm 0,8 UV-I 123 W/m 13,0 C 14,3 C 16,1 km/h (3 Bft) 100,00 %
01.06.2016 15:23 15,9 C 83 % 1011,0 hPa 0,0 l/m 14,8 km/h (3 Bft) S-SW 212 0 min 0,000 mm 0,9 UV-I 132 W/m 13,0 C 12,3 C 19,3 km/h (3 Bft) 100,00 %
01.06.2016 15:24 15,9 C 83 % 1010,9 hPa 0,0 l/m 14,4 km/h (3 Bft) S-SW 211 0 min 0,000 mm 0,9 UV-I 135 W/m 13,0 C 12,5 C 20,9 km/h (4 Bft) 95,65 %
01.06.2016 15:25 16,0 C 83 % 1010,9 hPa 0,0 l/m 12,9 km/h (3 Bft) SW 224 0 min 0,000 mm 0,8 UV-I 134 W/m 13,1 C 13,1 C 16,1 km/h (3 Bft) 100,00 %
01.06.2016 15:26 16,0 C 83 % 1011,0 hPa 0,0 l/m 12,6 km/h (3 Bft) W-SW 246 0 min 0,000 mm 0,8 UV-I 130 W/m 13,1 C 13,2 C 17,7 km/h (3 Bft) 100,00 %
01.06.2016 15:27 16,0 C 83 % 1010,9 hPa 0,0 l/m 10,5 km/h (2 Bft) S-SW 202 0 min 0,000 mm 0,8 UV-I 130 W/m 13,1 C 14,0 C 14,5 km/h (3 Bft) 100,00 %
01.06.2016 15:28 16,0 C 83 % 1010,9 hPa 0,0 l/m 11,3 km/h (2 Bft) W-SW 252 0 min 0,000 mm 0,8 UV-I 130 W/m 13,1 C 13,7 C 14,5 km/h (3 Bft) 100,00 %
01.06.2016 15:29 16,1 C 83 % 1010,9 hPa 0,0 l/m 10,4 km/h (2 Bft) SW 220 0 min 0,000 mm 0,8 UV-I 130 W/m 13,2 C 14,2 C 16,1 km/h (3 Bft) 95,65 %
01.06.2016 15:30 16,1 C 82 % 1010,9 hPa 0,0 l/m 9,5 km/h (2 Bft) SW 235 0 min 0,000 mm 0,8 UV-I 130 W/m 13,0 C 14,6 C 12,9 km/h (3 Bft) 100,00 %
01.06.2016 15:31 16,1 C 83 % 1010,9 hPa 0,0 l/m 10,5 km/h (2 Bft) W-SW 248 0 min 0,000 mm 0,8 UV-I 132 W/m 13,2 C 14,1 C 16,1 km/h (3 Bft) 95,65 %
01.06.2016 15:32 16,1 C 83 % 1010,9 hPa 0,0 l/m 11,5 km/h (2 Bft) SW 229 0 min 0,000 mm 0,8 UV-I 129 W/m 13,2 C 13,7 C 16,1 km/h (3 Bft) 100,00 %
01.06.2016 15:33 16,1 C 83 % 1010,9 hPa 0,0 l/m 8,4 km/h (2 Bft) S-SW 211 0 min 0,000 mm 0,8 UV-I 125 W/m 13,2 C 15,1 C 12,9 km/h (3 Bft) 100,00 %
01.06.2016 15:34 16,1 C 83 % 1011,0 hPa 0,0 l/m 6,4 km/h (2 Bft) SW 217 0 min 0,000 mm 0,8 UV-I 121 W/m 13,2 C 16,1 C 9,7 km/h (2 Bft) 100,00 %
01.06.2016 15:35 16,1 C 83 % 1010,9 hPa 0,0 l/m 10,7 km/h (2 Bft) S-SW 212 0 min 0,000 mm 0,7 UV-I 117 W/m 13,2 C 14,0 C 14,5 km/h (3 Bft) 100,00 %
01.06.2016 15:36 16,1 C 83 % 1010,9 hPa 0,0 l/m 7,5 km/h (2 Bft) S-SW 209 0 min 0,000 mm 0,7 UV-I 116 W/m 13,2 C 15,5 C 11,3 km/h (2 Bft) 100,00 %
01.06.2016 15:37 16,1 C 82 % 1010,9 hPa 0,0 l/m 8,4 km/h (2 Bft) SW 221 0 min 0,000 mm 0,7 UV-I 118 W/m 13,0 C 15,1 C 12,9 km/h (3 Bft) 95,65 %
01.06.2016 15:38 16,1 C 83 % 1010,9 hPa 0,0 l/m 9,5 km/h (2 Bft) SW 226 0 min 0,000 mm 0,7 UV-I 117 W/m 13,2 C 14,6 C 14,5 km/h (3 Bft) 100,00 %
01.06.2016 15:39 16,2 C 83 % 1010,9 hPa 0,0 l/m 10,1 km/h (2 Bft) SW 226 0 min 0,000 mm 0,7 UV-I 117 W/m 13,3 C 14,4 C 12,9 km/h (3 Bft) 95,65 %
01.06.2016 15:40 16,2 C 83 % 1010,9 hPa 0,0 l/m 9,3 km/h (2 Bft) SW 234 0 min 0,000 mm 0,7 UV-I 118 W/m 13,3 C 14,7 C 12,9 km/h (3 Bft) 95,83 %
01.06.2016 15:41 16,2 C 83 % 1010,8 hPa 0,0 l/m 7,0 km/h (2 Bft) W-SW 251 0 min 0,000 mm 0,7 UV-I 118 W/m 13,3 C 15,9 C 9,7 km/h (2 Bft) 100,00 %
01.06.2016 15:42 16,2 C 83 % 1010,9 hPa 0,0 l/m 6,9 km/h (2 Bft) W 259 0 min 0,000 mm 0,7 UV-I 120 W/m 13,3 C 15,9 C 9,7 km/h (2 Bft) 100,00 %
01.06.2016 15:43 16,2 C 82 % 1010,9 hPa 0,0 l/m 6,8 km/h (2 Bft) S-SW 201 0 min 0,000 mm 0,8 UV-I 123 W/m 13,1 C 16,0 C 11,3 km/h (2 Bft) 100,00 %
01.06.2016 15:44 16,2 C 82 % 1010,8 hPa 0,0 l/m 9,1 km/h (2 Bft) SW 229 0 min 0,000 mm 0,8 UV-I 125 W/m 13,1 C 14,8 C 14,5 km/h (3 Bft) 100,00 %
01.06.2016 15:45 16,2 C 83 % 1010,9 hPa 0,0 l/m 11,4 km/h (2 Bft) W-SW 238 0 min 0,000 mm 0,8 UV-I 123 W/m 13,3 C 13,9 C 16,1 km/h (3 Bft) 100,00 %
01.06.2016 15:46 16,2 C 82 % 1010,8 hPa 0,0 l/m 11,2 km/h (2 Bft) SW 229 0 min 0,000 mm 0,8 UV-I 120 W/m 13,1 C 14,0 C 16,1 km/h (3 Bft) 100,00 %
01.06.2016 15:47 16,2 C 82 % 1010,9 hPa 0,0 l/m 11,3 km/h (2 Bft) W-SW 251 0 min 0,000 mm 0,7 UV-I 118 W/m 13,1 C 13,9 C 16,1 km/h (3 Bft) 100,00 %
01.06.2016 15:48 16,2 C 82 % 1010,9 hPa 0,0 l/m 12,8 km/h (3 Bft) W-SW 242 0 min 0,000 mm 0,7 UV-I 118 W/m 13,1 C 13,4 C 17,7 km/h (3 Bft) 100,00 %
01.06.2016 15:49 16,2 C 81 % 1010,9 hPa 0,0 l/m 12,3 km/h (3 Bft) W-SW 248 0 min 0,000 mm 0,7 UV-I 112 W/m 12,9 C 13,5 C 16,1 km/h (3 Bft) 100,00 %
01.06.2016 15:50 16,2 C 82 % 1010,9 hPa 0,0 l/m 10,8 km/h (2 Bft) SW 221 0 min 0,000 mm 0,7 UV-I 103 W/m 13,1 C 14,1 C 12,9 km/h (3 Bft) 93,33 %
01.06.2016 15:51 16,2 C 82 % 1010,9 hPa 0,0 l/m 13,9 km/h (3 Bft) SW 215 0 min 0,000 mm 0,6 UV-I 94 W/m 13,1 C 13,0 C 19,3 km/h (3 Bft) 100,00 %
01.06.2016 15:52 16,2 C 81 % 1010,9 hPa 0,0 l/m 11,8 km/h (2 Bft) S 191 0 min 0,000 mm 0,5 UV-I 86 W/m 12,9 C 13,7 C 16,1 km/h (3 Bft) 100,00 %
01.06.2016 15:53 16,2 C 81 % 1010,9 hPa 0,0 l/m 14,4 km/h (3 Bft) W-SW 244 0 min 0,000 mm 0,2 UV-I 78 W/m 12,9 C 12,8 C 20,9 km/h (4 Bft) 100,00 %
01.06.2016 15:54 16,2 C 82 % 1010,9 hPa 0,0 l/m 12,6 km/h (3 Bft) W-SW 250 0 min 0,000 mm 0,0 UV-I 76 W/m 13,1 C 13,4 C 17,7 km/h (3 Bft) 100,00 %
01.06.2016 15:55 16,2 C 81 % 1010,9 hPa 0,0 l/m 12,4 km/h (3 Bft) SW 230 0 min 0,000 mm 0,0 UV-I 76 W/m 12,9 C 13,5 C 16,1 km/h (3 Bft) 100,00 %
01.06.2016 15:56 16,2 C 81 % 1010,9 hPa 0,0 l/m 11,5 km/h (2 Bft) W-SW 237 0 min 0,000 mm 0,0 UV-I 79 W/m 12,9 C 13,8 C 14,5 km/h (3 Bft) 100,00 %
01.06.2016 15:57 16,2 C 80 % 1010,9 hPa 0,0 l/m 18,5 km/h (3 Bft) W-SW 254 0 min 0,000 mm 0,2 UV-I 86 W/m 12,7 C 11,7 C 24,1 km/h (4 Bft) 100,00 %
01.06.2016 15:58 16,2 C 80 % 1010,9 hPa 0,0 l/m 14,3 km/h (3 Bft) W 267 0 min 0,000 mm 0,5 UV-I 95 W/m 12,7 C 12,9 C 19,3 km/h (3 Bft) 100,00 %
01.06.2016 15:59 16,2 C 80 % 1010,9 hPa 0,0 l/m 14,2 km/h (3 Bft) SW 225 0 min 0,000 mm 0,6 UV-I 105 W/m 12,7 C 12,9 C 24,1 km/h (4 Bft) 95,83 %
01.06.2016 16:00 16,2 C 80 % 1010,9 hPa 0,0 l/m 14,3 km/h (3 Bft) W 268 0 min 0,000 mm 0,7 UV-I 116 W/m 12,7 C 12,9 C 22,5 km/h (4 Bft) 95,65 %
01.06.2016 16:01 16,2 C 80 % 1010,9 hPa 0,0 l/m 16,2 km/h (3 Bft) W-SW 240 0 min 0,076 mm 0,7 UV-I 127 W/m 12,7 C 12,3 C 24,1 km/h (4 Bft) 100,00 %
01.06.2016 16:02 16,2 C 80 % 1010,9 hPa 0,0 l/m 13,8 km/h (3 Bft) W 259 0 min 0,000 mm 0,8 UV-I 136 W/m 12,7 C 13,0 C 17,7 km/h (3 Bft) 100,00 %
01.06.2016 16:03 16,2 C 80 % 1010,9 hPa 0,0 l/m 11,5 km/h (2 Bft) W 273 0 min 0,000 mm 0,8 UV-I 145 W/m 12,7 C 13,8 C 16,1 km/h (3 Bft) 100,00 %
01.06.2016 16:04 16,2 C 80 % 1010,9 hPa 0,0 l/m 9,9 km/h (2 Bft) W-SW 251 0 min 0,000 mm 0,9 UV-I 156 W/m 12,7 C 14,5 C 17,7 km/h (3 Bft) 100,00 %
01.06.2016 16:05 16,2 C 80 % 1010,9 hPa 0,0 l/m 16,9 km/h (3 Bft) SW 236 0 min 0,000 mm 1,0 UV-I 170 W/m 12,7 C 12,1 C 20,9 km/h (4 Bft) 95,65 %
01.06.2016 16:06 16,3 C 80 % 1010,9 hPa 0,0 l/m 14,2 km/h (3 Bft) W-SW 247 0 min 0,000 mm 1,1 UV-I 184 W/m 12,8 C 13,0 C 16,1 km/h (3 Bft) 100,00 %
01.06.2016 16:07 16,3 C 79 % 1010,9 hPa 0,0 l/m 10,4 km/h (2 Bft) W 267 0 min 0,000 mm 1,2 UV-I 196 W/m 12,6 C 14,4 C 14,5 km/h (3 Bft) 95,65 %
01.06.2016 16:08 16,3 C 80 % 1010,9 hPa 0,0 l/m 11,7 km/h (2 Bft) SW 215 0 min 0,000 mm 1,2 UV-I 213 W/m 12,8 C 13,9 C 16,1 km/h (3 Bft) 100,00 %
01.06.2016 16:09 16,4 C 80 % 1010,9 hPa 0,0 l/m 9,0 km/h (2 Bft) SW 234 0 min 0,000 mm 1,3 UV-I 231 W/m 12,9 C 15,1 C 12,9 km/h (3 Bft) 95,65 %
01.06.2016 16:10 16,4 C 80 % 1010,9 hPa 0,0 l/m 6,9 km/h (2 Bft) SW 234 0 min 0,000 mm 1,5 UV-I 254 W/m 12,9 C 16,1 C 11,3 km/h (2 Bft) 100,00 %
01.06.2016 16:11 16,5 C 81 % 1010,9 hPa 0,0 l/m 8,1 km/h (2 Bft) W-SW 244 0 min 0,000 mm 1,6 UV-I 282 W/m 13,2 C 15,6 C 11,3 km/h (2 Bft) 100,00 %
01.06.2016 16:12 16,6 C 80 % 1010,9 hPa 0,0 l/m 11,4 km/h (2 Bft) W-SW 244 0 min 0,000 mm 1,7 UV-I 331 W/m 13,1 C 14,3 C 14,5 km/h (3 Bft) 100,00 %
01.06.2016 16:13 16,7 C 81 % 1010,8 hPa 0,0 l/m 10,4 km/h (2 Bft) W 259 1 min 0,000 mm 2,0 UV-I 440 W/m 13,4 C 14,8 C 14,5 km/h (3 Bft) 100,00 %
01.06.2016 16:14 16,8 C 81 % 1010,9 hPa 0,0 l/m 10,0 km/h (2 Bft) W-SW 254 1 min 0,000 mm 2,3 UV-I 538 W/m 13,5 C 15,1 C 16,1 km/h (3 Bft) 95,83 %
01.06.2016 16:15 16,9 C 80 % 1010,8 hPa 0,0 l/m 13,5 km/h (3 Bft) W 268 1 min 0,000 mm 2,3 UV-I 573 W/m 13,4 C 14,0 C 17,7 km/h (3 Bft) 100,00 %
01.06.2016 16:16 17,1 C 79 % 1010,8 hPa 0,0 l/m 11,1 km/h (2 Bft) W 265 1 min 0,000 mm 2,1 UV-I 494 W/m 13,4 C 15,0 C 14,5 km/h (3 Bft) 95,83 %
01.06.2016 16:17 17,2 C 79 % 1010,8 hPa 0,0 l/m 9,5 km/h (2 Bft) W-SW 240 1 min 0,000 mm 2,1 UV-I 438 W/m 13,5 C 15,8 C 17,7 km/h (3 Bft) 95,65 %
01.06.2016 16:18 17,2 C 79 % 1010,8 hPa 0,0 l/m 8,0 km/h (2 Bft) W-SW 244 1 min 0,000 mm 2,1 UV-I 404 W/m 13,5 C 16,4 C 11,3 km/h (2 Bft) 100,00 %
01.06.2016 16:19 17,2 C 77 % 1010,8 hPa 0,0 l/m 11,8 km/h (2 Bft) SW 225 1 min 0,000 mm 2,1 UV-I 405 W/m 13,1 C 14,9 C 16,1 km/h (3 Bft) 95,65 %
01.06.2016 16:20 17,3 C 77 % 1010,8 hPa 0,0 l/m 11,4 km/h (2 Bft) W-SW 244 1 min 0,000 mm 2,1 UV-I 405 W/m 13,2 C 15,1 C 17,7 km/h (3 Bft) 100,00 %
01.06.2016 16:21 17,3 C 78 % 1010,8 hPa 0,0 l/m 13,0 km/h (3 Bft) W-SW 254 1 min 0,000 mm 2,1 UV-I 408 W/m 13,4 C 14,6 C 19,3 km/h (3 Bft) 92,86 %
01.06.2016 16:22 17,3 C 78 % 1010,8 hPa 0,0 l/m 8,6 km/h (2 Bft) W-SW 258 1 min 0,000 mm 2,1 UV-I 406 W/m 13,4 C 16,2 C 12,9 km/h (3 Bft) 100,00 %
01.06.2016 16:23 17,4 C 79 % 1010,8 hPa 0,0 l/m 10,7 km/h (2 Bft) SW 229 1 min 0,000 mm 2,1 UV-I 395 W/m 13,7 C 15,5 C 20,9 km/h (4 Bft) 91,30 %
01.06.2016 16:24 17,4 C 77 % 1010,8 hPa 0,0 l/m 14,6 km/h (3 Bft) SW 217 1 min 0,000 mm 2,0 UV-I 380 W/m 13,3 C 14,2 C 25,7 km/h (4 Bft) 95,83 %
01.06.2016 16:25 17,4 C 77 % 1010,8 hPa 0,0 l/m 9,9 km/h (2 Bft) SW 215 0 min 0,000 mm 1,9 UV-I 362 W/m 13,3 C 15,8 C 17,7 km/h (3 Bft) 95,83 %
01.06.2016 16:26 17,4 C 76 % 1010,8 hPa 0,0 l/m 17,1 km/h (3 Bft) W-NW 287 0 min 0,000 mm 1,7 UV-I 345 W/m 13,1 C 13,5 C 20,9 km/h (4 Bft) 100,00 %
01.06.2016 16:27 17,4 C 78 % 1010,7 hPa 0,0 l/m 15,1 km/h (3 Bft) SW 229 0 min 0,000 mm 1,6 UV-I 317 W/m 13,5 C 14,1 C 19,3 km/h (3 Bft) 87,50 %
01.06.2016 16:28 17,4 C 75 % 1010,8 hPa 0,0 l/m 14,8 km/h (3 Bft) S-SW 202 0 min 0,000 mm 1,4 UV-I 284 W/m 12,9 C 14,2 C 19,3 km/h (3 Bft) 95,65 %
01.06.2016 16:29 17,3 C 76 % 1010,8 hPa 0,0 l/m 11,0 km/h (2 Bft) W-SW 242 0 min 0,000 mm 1,2 UV-I 258 W/m 13,0 C 15,3 C 17,7 km/h (3 Bft) 100,00 %
01.06.2016 16:30 17,3 C 77 % 1010,8 hPa 0,0 l/m 12,8 km/h (3 Bft) W 263 0 min 0,000 mm 1,1 UV-I 243 W/m 13,2 C 14,7 C 17,7 km/h (3 Bft) 95,65 %
01.06.2016 16:31 17,3 C 78 % 1010,8 hPa 0,0 l/m 16,4 km/h (3 Bft) W-SW 242 0 min 0,000 mm 1,2 UV-I 246 W/m 13,4 C 13,6 C 22,5 km/h (4 Bft) 100,00 %
01.06.2016 16:32 17,3 C 76 % 1010,7 hPa 0,0 l/m 13,7 km/h (3 Bft) W-SW 241 0 min 0,000 mm 1,2 UV-I 250 W/m 13,0 C 14,4 C 19,3 km/h (3 Bft) 95,65 %
01.06.2016 16:33 17,3 C 76 % 1010,8 hPa 0,0 l/m 11,2 km/h (2 Bft) W-SW 254 0 min 0,000 mm 1,2 UV-I 238 W/m 13,0 C 15,2 C 17,7 km/h (3 Bft) 100,00 %
01.06.2016 16:34 17,3 C 76 % 1010,7 hPa 0,0 l/m 10,9 km/h (2 Bft) W-SW 252 0 min 0,000 mm 1,0 UV-I 219 W/m 13,0 C 15,3 C 16,1 km/h (3 Bft) 95,65 %
01.06.2016 16:35 17,3 C 77 % 1010,7 hPa 0,0 l/m 13,9 km/h (3 Bft) SW 236 0 min 0,000 mm 1,0 UV-I 207 W/m 13,2 C 14,3 C 17,7 km/h (3 Bft) 96,30 %
01.06.2016 16:36 17,2 C 76 % 1010,7 hPa 0,0 l/m 12,0 km/h (2 Bft) W-SW 256 0 min 0,000 mm 1,0 UV-I 214 W/m 12,9 C 14,8 C 17,7 km/h (3 Bft) 95,65 %
01.06.2016 16:37 17,2 C 78 % 1010,8 hPa 0,0 l/m 10,8 km/h (2 Bft) W-SW 241 0 min 0,000 mm 1,1 UV-I 219 W/m 13,3 C 15,2 C 14,5 km/h (3 Bft) 95,83 %
01.06.2016 16:38 17,2 C 77 % 1010,8 hPa 0,0 l/m 12,1 km/h (2 Bft) W-SW 247 0 min 0,000 mm 1,1 UV-I 220 W/m 13,1 C 14,8 C 22,5 km/h (4 Bft) 100,00 %
01.06.2016 16:39 17,2 C 76 % 1010,8 hPa 0,0 l/m 12,9 km/h (3 Bft) SW 219 0 min 0,000 mm 1,1 UV-I 211 W/m 12,9 C 14,5 C 19,3 km/h (3 Bft) 95,83 %
01.06.2016 16:40 17,2 C 77 % 1010,7 hPa 0,0 l/m 11,9 km/h (2 Bft) W-SW 240 0 min 0,000 mm 1,0 UV-I 201 W/m 13,1 C 14,8 C 16,1 km/h (3 Bft) 100,00 %
01.06.2016 16:41 17,2 C 76 % 1010,7 hPa 0,0 l/m 13,3 km/h (3 Bft) W-SW 245 0 min 0,000 mm 0,9 UV-I 190 W/m 12,9 C 14,4 C 16,1 km/h (3 Bft) 95,83 %
01.06.2016 16:42 17,2 C 77 % 1010,7 hPa 0,0 l/m 10,5 km/h (2 Bft) W-SW 242 0 min 0,000 mm 0,9 UV-I 179 W/m 13,1 C 15,4 C 14,5 km/h (3 Bft) 95,65 %
01.06.2016 16:43 17,2 C 77 % 1010,7 hPa 0,0 l/m 10,2 km/h (2 Bft) SW 232 0 min 0,000 mm 0,8 UV-I 168 W/m 13,1 C 15,5 C 14,5 km/h (3 Bft) 95,83 %
01.06.2016 16:44 17,2 C 78 % 1010,7 hPa 0,0 l/m 8,4 km/h (2 Bft) W-SW 248 0 min 0,000 mm 0,8 UV-I 156 W/m 13,3 C 16,2 C 12,9 km/h (3 Bft) 96,15 %
01.06.2016 16:45 17,1 C 77 % 1010,7 hPa 0,0 l/m 11,5 km/h (2 Bft) W-SW 246 0 min 0,000 mm 0,7 UV-I 146 W/m 13,0 C 14,9 C 17,7 km/h (3 Bft) 100,00 %
01.06.2016 16:46 17,1 C 77 % 1010,7 hPa 0,0 l/m 13,7 km/h (3 Bft) W-NW 282 0 min 0,000 mm 0,7 UV-I 150 W/m 13,0 C 14,1 C 19,3 km/h (3 Bft) 100,00 %
01.06.2016 16:47 17,1 C 77 % 1010,7 hPa 0,0 l/m 17,0 km/h (3 Bft) W-SW 248 0 min 0,000 mm 0,8 UV-I 172 W/m 13,0 C 13,2 C 20,9 km/h (4 Bft) 100,00 %
01.06.2016 16:48 17,1 C 75 % 1010,7 hPa 0,0 l/m 17,5 km/h (3 Bft) W-SW 242 0 min 0,000 mm 0,9 UV-I 195 W/m 12,6 C 13,1 C 25,7 km/h (4 Bft) 100,00 %
01.06.2016 16:49 17,1 C 76 % 1010,7 hPa 0,0 l/m 9,9 km/h (2 Bft) W 259 0 min 0,000 mm 1,0 UV-I 215 W/m 12,8 C 15,5 C 17,7 km/h (3 Bft) 100,00 %
01.06.2016 16:50 17,1 C 76 % 1010,7 hPa 0,0 l/m 10,6 km/h (2 Bft) W-NW 286 0 min 0,000 mm 1,1 UV-I 231 W/m 12,8 C 15,2 C 12,9 km/h (3 Bft) 100,00 %
01.06.2016 16:51 17,1 C 76 % 1010,7 hPa 0,0 l/m 9,8 km/h (2 Bft) W-SW 238 0 min 0,000 mm 1,1 UV-I 239 W/m 12,8 C 15,5 C 16,1 km/h (3 Bft) 96,15 %
01.06.2016 16:52 17,1 C 76 % 1010,7 hPa 0,0 l/m 15,2 km/h (3 Bft) W-SW 256 0 min 0,000 mm 1,1 UV-I 237 W/m 12,8 C 13,7 C 19,3 km/h (3 Bft) 95,83 %
01.06.2016 16:53 17,1 C 78 % 1010,6 hPa 0,0 l/m 11,6 km/h (2 Bft) W 269 0 min 0,000 mm 1,1 UV-I 227 W/m 13,2 C 14,8 C 16,1 km/h (3 Bft) 100,00 %
01.06.2016 16:54 17,1 C 76 % 1010,7 hPa 0,0 l/m 6,8 km/h (2 Bft) W-SW 257 0 min 0,000 mm 1,0 UV-I 206 W/m 12,8 C 16,9 C 12,9 km/h (3 Bft) 100,00 %
01.06.2016 16:55 17,1 C 77 % 1010,7 hPa 0,0 l/m 7,1 km/h (2 Bft) S 188 0 min 0,000 mm 0,9 UV-I 190 W/m 13,0 C 16,7 C 9,7 km/h (2 Bft) 100,00 %
01.06.2016 16:56 17,1 C 76 % 1010,6 hPa 0,0 l/m 6,5 km/h (2 Bft) W-SW 258 0 min 0,000 mm 0,9 UV-I 188 W/m 12,8 C 17,1 C 11,3 km/h (2 Bft) 100,00 %
01.06.2016 16:57 17,2 C 76 % 1010,7 hPa 0,0 l/m 10,4 km/h (2 Bft) W-SW 244 0 min 0,000 mm 0,9 UV-I 190 W/m 12,9 C 15,4 C 14,5 km/h (3 Bft) 92,86 %
01.06.2016 16:58 17,2 C 76 % 1010,6 hPa 0,0 l/m 11,1 km/h (2 Bft) SW 234 0 min 0,000 mm 1,0 UV-I 228 W/m 12,9 C 15,1 C 16,1 km/h (3 Bft) 100,00 %
01.06.2016 16:59 17,2 C 77 % 1010,6 hPa 0,0 l/m 8,9 km/h (2 Bft) SW 221 0 min 0,000 mm 1,2 UV-I 264 W/m 13,1 C 16,0 C 12,9 km/h (3 Bft) 95,65 %
01.06.2016 17:00 17,2 C 77 % 1010,6 hPa 0,0 l/m 7,8 km/h (2 Bft) W-SW 244 0 min 0,000 mm 1,2 UV-I 254 W/m 13,1 C 16,5 C 11,3 km/h (2 Bft) 100,00 %
01.06.2016 17:01 17,2 C 78 % 1010,6 hPa 0,0 l/m 6,0 km/h (2 Bft) SW 226 0 min 0,178 mm 1,2 UV-I 237 W/m 13,3 C 17,2 C 9,7 km/h (2 Bft) 95,83 %
01.06.2016 17:02 17,3 C 79 % 1010,6 hPa 0,0 l/m 8,0 km/h (2 Bft) SW 214 0 min 0,000 mm 1,2 UV-I 225 W/m 13,6 C 16,5 C 12,9 km/h (3 Bft) 100,00 %
01.06.2016 17:03 17,3 C 79 % 1010,6 hPa 0,0 l/m 9,5 km/h (2 Bft) SW 235 0 min 0,000 mm 1,1 UV-I 218 W/m 13,6 C 15,9 C 17,7 km/h (3 Bft) 96,15 %
01.06.2016 17:04 17,3 C 77 % 1010,6 hPa 0,0 l/m 12,9 km/h (3 Bft) S-SW 202 0 min 0,000 mm 1,0 UV-I 212 W/m 13,2 C 14,6 C 19,3 km/h (3 Bft) 100,00 %
01.06.2016 17:05 17,3 C 76 % 1010,6 hPa 0,0 l/m 8,8 km/h (2 Bft) S-SW 212 0 min 0,000 mm 1,0 UV-I 198 W/m 13,0 C 16,2 C 11,3 km/h (2 Bft) 95,65 %
01.06.2016 17:06 17,3 C 77 % 1010,6 hPa 0,0 l/m 8,4 km/h (2 Bft) W-SW 242 0 min 0,000 mm 0,9 UV-I 187 W/m 13,2 C 16,3 C 11,3 km/h (2 Bft) 100,00 %
01.06.2016 17:07 17,2 C 77 % 1010,6 hPa 0,0 l/m 9,9 km/h (2 Bft) SW 228 0 min 0,000 mm 0,8 UV-I 177 W/m 13,1 C 15,6 C 16,1 km/h (3 Bft) 95,83 %
01.06.2016 17:08 17,2 C 77 % 1010,6 hPa 0,0 l/m 15,8 km/h (3 Bft) SW 236 0 min 0,000 mm 0,8 UV-I 169 W/m 13,1 C 13,6 C 20,9 km/h (4 Bft) 100,00 %
01.06.2016 17:09 17,2 C 77 % 1010,6 hPa 0,0 l/m 11,2 km/h (2 Bft) W-SW 237 0 min 0,000 mm 0,8 UV-I 170 W/m 13,1 C 15,1 C 14,5 km/h (3 Bft) 100,00 %
01.06.2016 17:10 17,2 C 77 % 1010,6 hPa 0,0 l/m 11,7 km/h (2 Bft) S-SW 206 0 min 0,000 mm 0,8 UV-I 171 W/m 13,1 C 14,9 C 16,1 km/h (3 Bft) 100,00 %
01.06.2016 17:11 17,2 C 77 % 1010,6 hPa 0,0 l/m 9,8 km/h (2 Bft) SW 230 0 min 0,000 mm 0,9 UV-I 169 W/m 13,1 C 15,6 C 16,1 km/h (3 Bft) 100,00 %
01.06.2016 17:12 17,1 C 77 % 1010,6 hPa 0,0 l/m 11,7 km/h (2 Bft) SW 225 0 min 0,000 mm 0,8 UV-I 159 W/m 13,0 C 14,8 C 16,1 km/h (3 Bft) 91,30 %
01.06.2016 17:13 17,1 C 77 % 1010,6 hPa 0,0 l/m 8,4 km/h (2 Bft) SW 224 0 min 0,000 mm 0,7 UV-I 139 W/m 13,0 C 16,1 C 12,9 km/h (3 Bft) 100,00 %
01.06.2016 17:14 17,1 C 78 % 1010,6 hPa 0,0 l/m 9,0 km/h (2 Bft) W-SW 246 0 min 0,000 mm 0,3 UV-I 113 W/m 13,2 C 15,9 C 16,1 km/h (3 Bft) 95,65 %
01.06.2016 17:15 17,1 C 78 % 1010,7 hPa 0,0 l/m 9,6 km/h (2 Bft) W-SW 238 0 min 0,000 mm 0,0 UV-I 89 W/m 13,2 C 15,6 C 14,5 km/h (3 Bft) 95,83 %
01.06.2016 17:16 17,0 C 79 % 1010,7 hPa 0,0 l/m 9,3 km/h (2 Bft) S-SW 202 0 min 0,000 mm 0,0 UV-I 75 W/m 13,3 C 15,6 C 14,5 km/h (3 Bft) 95,65 %
01.06.2016 17:17 17,0 C 78 % 1010,6 hPa 0,0 l/m 9,2 km/h (2 Bft) S-SW 211 0 min 0,000 mm 0,0 UV-I 74 W/m 13,1 C 15,7 C 12,9 km/h (3 Bft) 100,00 %
01.06.2016 17:18 16,9 C 78 % 1010,7 hPa 0,0 l/m 8,2 km/h (2 Bft) SW 232 0 min 0,000 mm 0,0 UV-I 84 W/m 13,0 C 16,0 C 14,5 km/h (3 Bft) 100,00 %
01.06.2016 17:19 16,9 C 78 % 1010,7 hPa 0,0 l/m 8,3 km/h (2 Bft) W-SW 254 0 min 0,000 mm 0,0 UV-I 100 W/m 13,0 C 16,0 C 11,3 km/h (2 Bft) 100,00 %
01.06.2016 17:20 16,9 C 78 % 1010,7 hPa 0,0 l/m 15,5 km/h (3 Bft) W 265 0 min 0,000 mm 0,0 UV-I 115 W/m 13,0 C 13,3 C 25,7 km/h (4 Bft) 95,65 %
01.06.2016 17:21 16,8 C 77 % 1010,6 hPa 0,0 l/m 12,8 km/h (3 Bft) W 263 0 min 0,000 mm 0,4 UV-I 131 W/m 12,7 C 14,1 C 17,7 km/h (3 Bft) 100,00 %
01.06.2016 17:22 16,8 C 78 % 1010,6 hPa 0,0 l/m 10,3 km/h (2 Bft) W-SW 242 0 min 0,000 mm 0,6 UV-I 148 W/m 12,9 C 15,0 C 14,5 km/h (3 Bft) 91,67 %
01.06.2016 17:23 16,8 C 78 % 1010,6 hPa 0,0 l/m 15,8 km/h (3 Bft) W-SW 256 0 min 0,000 mm 0,7 UV-I 171 W/m 12,9 C 13,1 C 20,9 km/h (4 Bft) 100,00 %
01.06.2016 17:24 16,8 C 78 % 1010,6 hPa 0,0 l/m 13,5 km/h (3 Bft) W-SW 257 0 min 0,000 mm 0,8 UV-I 197 W/m 12,9 C 13,8 C 19,3 km/h (3 Bft) 100,00 %
01.06.2016 17:25 16,8 C 78 % 1010,6 hPa 0,0 l/m 12,1 km/h (2 Bft) W 279 0 min 0,000 mm 0,9 UV-I 210 W/m 12,9 C 14,3 C 19,3 km/h (3 Bft) 100,00 %
01.06.2016 17:26 16,8 C 78 % 1010,6 hPa 0,0 l/m 11,9 km/h (2 Bft) W-SW 254 0 min 0,000 mm 0,9 UV-I 210 W/m 12,9 C 14,4 C 16,1 km/h (3 Bft) 100,00 %
01.06.2016 17:27 16,9 C 78 % 1010,6 hPa 0,0 l/m 12,8 km/h (3 Bft) SW 235 0 min 0,000 mm 0,9 UV-I 219 W/m 13,0 C 14,2 C 17,7 km/h (3 Bft) 95,65 %
01.06.2016 17:28 16,9 C 78 % 1010,6 hPa 0,0 l/m 14,8 km/h (3 Bft) W-SW 254 0 min 0,000 mm 0,9 UV-I 222 W/m 13,0 C 13,6 C 17,7 km/h (3 Bft) 100,00 %
01.06.2016 17:29 16,9 C 78 % 1010,6 hPa 0,0 l/m 12,0 km/h (2 Bft) SW 223 0 min 0,000 mm 0,9 UV-I 219 W/m 13,0 C 14,5 C 14,5 km/h (3 Bft) 100,00 %
01.06.2016 17:30 16,9 C 78 % 1010,6 hPa 0,0 l/m 13,9 km/h (3 Bft) W 259 0 min 0,000 mm 1,0 UV-I 221 W/m 13,0 C 13,8 C 17,7 km/h (3 Bft) 96,30 %
01.06.2016 17:31 17,0 C 78 % 1010,6 hPa 0,0 l/m 9,7 km/h (2 Bft) W-SW 237 0 min 0,000 mm 1,1 UV-I 221 W/m 13,1 C 15,4 C 14,5 km/h (3 Bft) 100,00 %
01.06.2016 17:32 17,1 C 78 % 1010,6 hPa 0,0 l/m 10,7 km/h (2 Bft) S-SW 213 0 min 0,000 mm 1,0 UV-I 248 W/m 13,2 C 15,2 C 19,3 km/h (3 Bft) 100,00 %
01.06.2016 17:33 17,1 C 77 % 1010,6 hPa 0,0 l/m 8,8 km/h (2 Bft) W-SW 240 0 min 0,000 mm 1,1 UV-I 262 W/m 13,0 C 15,9 C 12,9 km/h (3 Bft) 95,65 %
01.06.2016 17:34 17,1 C 77 % 1010,6 hPa 0,0 l/m 9,7 km/h (2 Bft) W-SW 254 0 min 0,000 mm 1,1 UV-I 244 W/m 13,0 C 15,6 C 14,5 km/h (3 Bft) 100,00 %
01.06.2016 17:35 17,1 C 78 % 1010,6 hPa 0,0 l/m 13,9 km/h (3 Bft) W-SW 237 0 min 0,000 mm 1,0 UV-I 216 W/m 13,2 C 14,1 C 22,5 km/h (4 Bft) 100,00 %
01.06.2016 17:36 17,1 C 77 % 1010,6 hPa 0,0 l/m 12,7 km/h (3 Bft) SW 235 0 min 0,000 mm 1,0 UV-I 199 W/m 13,0 C 14,5 C 19,3 km/h (3 Bft) 100,00 %
01.06.2016 17:37 17,1 C 77 % 1010,7 hPa 0,0 l/m 14,1 km/h (3 Bft) W-SW 252 0 min 0,000 mm 1,0 UV-I 193 W/m 13,0 C 14,0 C 22,5 km/h (4 Bft) 100,00 %
01.06.2016 17:38 17,1 C 77 % 1010,7 hPa 0,0 l/m 13,2 km/h (3 Bft) SW 230 0 min 0,000 mm 1,0 UV-I 187 W/m 13,0 C 14,3 C 20,9 km/h (4 Bft) 100,00 %
01.06.2016 17:39 17,1 C 77 % 1010,7 hPa 0,0 l/m 13,4 km/h (3 Bft) W 261 0 min 0,000 mm 0,9 UV-I 174 W/m 13,0 C 14,2 C 20,9 km/h (4 Bft) 100,00 %
01.06.2016 17:40 17,1 C 76 % 1010,6 hPa 0,0 l/m 12,0 km/h (2 Bft) W 264 0 min 0,000 mm 0,9 UV-I 161 W/m 12,8 C 14,7 C 16,1 km/h (3 Bft) 95,83 %
01.06.2016 17:41 17,0 C 76 % 1010,6 hPa 0,0 l/m 13,0 km/h (3 Bft) W-SW 243 0 min 0,000 mm 0,9 UV-I 156 W/m 12,7 C 14,2 C 17,7 km/h (3 Bft) 100,00 %
01.06.2016 17:42 17,0 C 77 % 1010,6 hPa 0,0 l/m 13,0 km/h (3 Bft) SW 223 0 min 0,000 mm 0,8 UV-I 160 W/m 12,9 C 14,2 C 17,7 km/h (3 Bft) 100,00 %
01.06.2016 17:43 16,9 C 77 % 1010,7 hPa 0,0 l/m 14,3 km/h (3 Bft) W-SW 239 0 min 0,000 mm 0,8 UV-I 168 W/m 12,8 C 13,7 C 20,9 km/h (4 Bft) 100,00 %
01.06.2016 17:44 16,9 C 78 % 1010,6 hPa 0,0 l/m 13,2 km/h (3 Bft) W-SW 237 0 min 0,000 mm 0,8 UV-I 183 W/m 13,0 C 14,1 C 20,9 km/h (4 Bft) 100,00 %
01.06.2016 17:45 16,9 C 76 % 1010,6 hPa 0,0 l/m 16,4 km/h (3 Bft) SW 221 0 min 0,000 mm 0,8 UV-I 206 W/m 12,6 C 13,1 C 24,1 km/h (4 Bft) 100,00 %
01.06.2016 17:46 16,9 C 77 % 1010,6 hPa 0,0 l/m 16,8 km/h (3 Bft) W 261 0 min 0,000 mm 0,8 UV-I 213 W/m 12,8 C 13,0 C 20,9 km/h (4 Bft) 95,65 %
01.06.2016 17:47 16,9 C 76 % 1010,6 hPa 0,0 l/m 13,0 km/h (3 Bft) SW 236 0 min 0,000 mm 0,9 UV-I 212 W/m 12,6 C 14,1 C 17,7 km/h (3 Bft) 100,00 %
01.06.2016 17:48 16,9 C 77 % 1010,6 hPa 0,0 l/m 10,3 km/h (2 Bft) W-SW 254 0 min 0,000 mm 0,9 UV-I 209 W/m 12,8 C 15,1 C 16,1 km/h (3 Bft) 96,15 %
01.06.2016 17:49 17,0 C 77 % 1010,6 hPa 0,0 l/m 7,8 km/h (2 Bft) SW 228 0 min 0,000 mm 0,9 UV-I 218 W/m 12,9 C 16,3 C 11,3 km/h (2 Bft) 100,00 %
01.06.2016 17:50 17,0 C 78 % 1010,6 hPa 0,0 l/m 9,3 km/h (2 Bft) W-SW 250 0 min 0,000 mm 1,0 UV-I 223 W/m 13,1 C 15,6 C 12,9 km/h (3 Bft) 100,00 %
01.06.2016 17:51 17,1 C 78 % 1010,7 hPa 0,0 l/m 12,9 km/h (3 Bft) SW 227 1 min 0,000 mm 1,2 UV-I 432 W/m 13,2 C 14,4 C 20,9 km/h (4 Bft) 100,00 %
01.06.2016 17:52 17,2 C 77 % 1010,7 hPa 0,0 l/m 16,9 km/h (3 Bft) W-SW 242 1 min 0,000 mm 1,2 UV-I 555 W/m 13,1 C 13,3 C 22,5 km/h (4 Bft) 91,30 %
01.06.2016 17:53 17,3 C 76 % 1010,7 hPa 0,0 l/m 14,1 km/h (3 Bft) W-SW 243 1 min 0,000 mm 1,1 UV-I 479 W/m 13,0 C 14,2 C 19,3 km/h (3 Bft) 100,00 %
01.06.2016 17:54 17,3 C 77 % 1010,7 hPa 0,0 l/m 12,4 km/h (3 Bft) SW 236 1 min 0,000 mm 1,1 UV-I 327 W/m 13,2 C 14,8 C 20,9 km/h (4 Bft) 95,65 %
01.06.2016 17:55 17,3 C 77 % 1010,7 hPa 0,0 l/m 8,7 km/h (2 Bft) W 263 0 min 0,000 mm 1,0 UV-I 237 W/m 13,2 C 16,2 C 12,9 km/h (3 Bft) 100,00 %
01.06.2016 17:56 17,4 C 78 % 1010,7 hPa 0,0 l/m 8,7 km/h (2 Bft) SW 223 0 min 0,000 mm 0,9 UV-I 165 W/m 13,5 C 16,3 C 12,9 km/h (3 Bft) 100,00 %
01.06.2016 17:57 17,3 C 76 % 1010,6 hPa 0,0 l/m 10,9 km/h (2 Bft) W-SW 244 0 min 0,000 mm 0,8 UV-I 140 W/m 13,0 C 15,3 C 14,5 km/h (3 Bft) 100,00 %
01.06.2016 17:58 17,3 C 76 % 1010,6 hPa 0,0 l/m 8,3 km/h (2 Bft) SW 231 0 min 0,000 mm 0,8 UV-I 126 W/m 13,0 C 16,4 C 12,9 km/h (3 Bft) 90,91 %
01.06.2016 17:59 17,2 C 76 % 1010,6 hPa 0,0 l/m 8,5 km/h (2 Bft) SW 217 0 min 0,000 mm 0,7 UV-I 121 W/m 12,9 C 16,2 C 11,3 km/h (2 Bft) 100,00 %
01.06.2016 18:00 17,2 C 77 % 1010,6 hPa 0,0 l/m 7,7 km/h (2 Bft) S-SW 198 0 min 0,000 mm 0,7 UV-I 124 W/m 13,1 C 16,6 C 12,9 km/h (3 Bft) 100,00 %
01.06.2016 18:01 17,1 C 77 % 1010,6 hPa 0,0 l/m 9,8 km/h (2 Bft) W-SW 246 0 min 0,152 mm 0,6 UV-I 129 W/m 13,0 C 15,5 C 16,1 km/h (3 Bft) 100,00 %
01.06.2016 18:02 17,1 C 78 % 1010,7 hPa 0,0 l/m 7,5 km/h (2 Bft) W-SW 239 0 min 0,000 mm 0,6 UV-I 132 W/m 13,2 C 16,5 C 11,3 km/h (2 Bft) 95,65 %
01.06.2016 18:03 17,0 C 78 % 1010,7 hPa 0,0 l/m 8,0 km/h (2 Bft) SW 230 0 min 0,000 mm 0,6 UV-I 132 W/m 13,1 C 16,2 C 11,3 km/h (2 Bft) 95,83 %
01.06.2016 18:04 17,0 C 79 % 1010,6 hPa 0,0 l/m 8,4 km/h (2 Bft) W-SW 241 0 min 0,000 mm 0,6 UV-I 135 W/m 13,3 C 16,0 C 11,3 km/h (2 Bft) 95,65 %
01.06.2016 18:05 16,9 C 79 % 1010,6 hPa 0,0 l/m 7,2 km/h (2 Bft) SW 229 0 min 0,000 mm 0,6 UV-I 135 W/m 13,2 C 16,5 C 9,7 km/h (2 Bft) 95,83 %
01.06.2016 18:06 16,9 C 79 % 1010,7 hPa 0,0 l/m 9,1 km/h (2 Bft) W-SW 248 0 min 0,000 mm 0,6 UV-I 138 W/m 13,2 C 15,6 C 12,9 km/h (3 Bft) 100,00 %
01.06.2016 18:07 16,9 C 79 % 1010,6 hPa 0,0 l/m 7,7 km/h (2 Bft) W 261 0 min 0,000 mm 0,5 UV-I 138 W/m 13,2 C 16,2 C 12,9 km/h (3 Bft) 92,31 %
01.06.2016 18:08 16,9 C 79 % 1010,6 hPa 0,0 l/m 14,2 km/h (3 Bft) W-SW 239 0 min 0,000 mm 0,5 UV-I 150 W/m 13,2 C 13,7 C 24,1 km/h (4 Bft) 100,00 %
01.06.2016 18:09 16,8 C 77 % 1010,6 hPa 0,0 l/m 10,8 km/h (2 Bft) W-SW 240 0 min 0,000 mm 0,5 UV-I 173 W/m 12,7 C 14,8 C 14,5 km/h (3 Bft) 100,00 %
01.06.2016 18:10 16,8 C 77 % 1010,7 hPa 0,0 l/m 12,1 km/h (2 Bft) W 259 0 min 0,000 mm 0,5 UV-I 179 W/m 12,7 C 14,3 C 16,1 km/h (3 Bft) 100,00 %
01.06.2016 18:11 16,8 C 78 % 1010,7 hPa 0,0 l/m 13,5 km/h (3 Bft) W-SW 246 0 min 0,000 mm 0,5 UV-I 169 W/m 12,9 C 13,8 C 16,1 km/h (3 Bft) 95,65 %
01.06.2016 18:12 16,8 C 77 % 1010,7 hPa 0,0 l/m 11,1 km/h (2 Bft) SW 235 0 min 0,000 mm 0,3 UV-I 143 W/m 12,7 C 14,7 C 16,1 km/h (3 Bft) 95,83 %
01.06.2016 18:13 16,8 C 77 % 1010,6 hPa 0,0 l/m 11,2 km/h (2 Bft) W-SW 242 0 min 0,000 mm 0,0 UV-I 127 W/m 12,7 C 14,6 C 16,1 km/h (3 Bft) 100,00 %
01.06.2016 18:14 16,8 C 78 % 1010,6 hPa 0,0 l/m 7,8 km/h (2 Bft) W-SW 239 0 min 0,000 mm 0,0 UV-I 116 W/m 12,9 C 16,1 C 11,3 km/h (2 Bft) 95,83 %
01.06.2016 18:15 16,8 C 78 % 1010,6 hPa 0,0 l/m 8,7 km/h (2 Bft) SW 229 0 min 0,000 mm 0,0 UV-I 111 W/m 12,9 C 15,7 C 12,9 km/h (3 Bft) 95,65 %
01.06.2016 18:16 16,8 C 78 % 1010,7 hPa 0,0 l/m 7,0 km/h (2 Bft) W 263 0 min 0,000 mm 0,0 UV-I 105 W/m 12,9 C 16,5 C 12,9 km/h (3 Bft) 96,97 %
01.06.2016 18:17 16,7 C 78 % 1010,6 hPa 0,0 l/m 13,5 km/h (3 Bft) W 266 0 min 0,000 mm 0,0 UV-I 96 W/m 12,8 C 13,7 C 16,1 km/h (3 Bft) 95,65 %
01.06.2016 18:18 16,7 C 77 % 1010,6 hPa 0,0 l/m 10,4 km/h (2 Bft) W 267 0 min 0,000 mm 0,0 UV-I 87 W/m 12,6 C 14,8 C 14,5 km/h (3 Bft) 100,00 %
01.06.2016 18:19 16,7 C 78 % 1010,6 hPa 0,0 l/m 9,0 km/h (2 Bft) W-SW 257 0 min 0,000 mm 0,0 UV-I 83 W/m 12,8 C 15,4 C 11,3 km/h (2 Bft) 95,65 %
01.06.2016 18:20 16,7 C 79 % 1010,6 hPa 0,0 l/m 9,6 km/h (2 Bft) W-SW 252 0 min 0,000 mm 0,0 UV-I 84 W/m 13,0 C 15,2 C 14,5 km/h (3 Bft) 95,83 %
01.06.2016 18:21 16,7 C 78 % 1010,6 hPa 0,0 l/m 12,5 km/h (3 Bft) W-SW 238 0 min 0,000 mm 0,0 UV-I 83 W/m 12,8 C 14,1 C 17,7 km/h (3 Bft) 95,65 %
01.06.2016 18:22 16,7 C 78 % 1010,6 hPa 0,0 l/m 10,5 km/h (2 Bft) W-SW 250 0 min 0,000 mm 0,0 UV-I 77 W/m 12,8 C 14,8 C 14,5 km/h (3 Bft) 100,00 %
01.06.2016 18:23 16,7 C 78 % 1010,6 hPa 0,0 l/m 6,9 km/h (2 Bft) W-SW 240 0 min 0,000 mm 0,0 UV-I 70 W/m 12,8 C 16,4 C 9,7 km/h (2 Bft) 95,65 %
01.06.2016 18:24 16,6 C 79 % 1010,5 hPa 0,0 l/m 5,9 km/h (2 Bft) W-SW 249 0 min 0,000 mm 0,0 UV-I 64 W/m 12,9 C 16,6 C 11,3 km/h (2 Bft) 100,00 %
01.06.2016 18:25 16,6 C 79 % 1010,6 hPa 0,0 l/m 7,4 km/h (2 Bft) W-SW 256 0 min 0,000 mm 0,0 UV-I 61 W/m 12,9 C 16,1 C 12,9 km/h (3 Bft) 91,30 %
01.06.2016 18:26 16,6 C 79 % 1010,6 hPa 0,0 l/m 7,8 km/h (2 Bft) SW 233 0 min 0,000 mm 0,0 UV-I 60 W/m 12,9 C 15,9 C 11,3 km/h (2 Bft) 100,00 %
01.06.2016 18:27 16,6 C 80 % 1010,6 hPa 0,0 l/m 5,2 km/h (1 Bft) SW 229 0 min 0,000 mm 0,0 UV-I 64 W/m 13,1 C 16,6 C 8,0 km/h (2 Bft) 95,83 %
01.06.2016 18:28 16,6 C 80 % 1010,7 hPa 0,0 l/m 6,8 km/h (2 Bft) W-SW 244 0 min 0,000 mm 0,0 UV-I 67 W/m 13,1 C 16,4 C 11,3 km/h (2 Bft) 95,65 %
01.06.2016 18:29 16,6 C 80 % 1010,6 hPa 0,0 l/m 9,5 km/h (2 Bft) SW 227 0 min 0,000 mm 0,0 UV-I 73 W/m 13,1 C 15,1 C 12,9 km/h (3 Bft) 95,83 %
01.06.2016 18:30 16,5 C 80 % 1010,6 hPa 0,0 l/m 5,6 km/h (1 Bft) W-SW 238 0 min 0,000 mm 0,0 UV-I 87 W/m 13,0 C 16,5 C 8,0 km/h (2 Bft) 95,65 %
01.06.2016 18:31 16,5 C 79 % 1010,6 hPa 0,0 l/m 8,0 km/h (2 Bft) SW 236 0 min 0,000 mm 0,0 UV-I 103 W/m 12,8 C 15,7 C 12,9 km/h (3 Bft) 100,00 %
01.06.2016 18:32 16,5 C 79 % 1010,6 hPa 0,0 l/m 7,7 km/h (2 Bft) W-SW 244 0 min 0,000 mm 0,0 UV-I 122 W/m 12,8 C 15,8 C 9,7 km/h (2 Bft) 92,31 %
01.06.2016 18:33 16,6 C 80 % 1010,6 hPa 0,0 l/m 7,8 km/h (2 Bft) W-SW 246 0 min 0,000 mm 0,0 UV-I 145 W/m 13,1 C 15,9 C 12,9 km/h (3 Bft) 95,83 %
01.06.2016 18:34 16,6 C 80 % 1010,6 hPa 0,0 l/m 11,9 km/h (2 Bft) W-SW 253 0 min 0,000 mm 0,0 UV-I 164 W/m 13,1 C 14,2 C 14,5 km/h (3 Bft) 92,86 %
01.06.2016 18:35 16,6 C 79 % 1010,6 hPa 0,0 l/m 7,2 km/h (2 Bft) W-SW 238 0 min 0,000 mm 0,0 UV-I 171 W/m 12,9 C 16,2 C 12,9 km/h (3 Bft) 100,00 %
01.06.2016 18:36 16,6 C 80 % 1010,6 hPa 0,0 l/m 8,4 km/h (2 Bft) W-SW 243 0 min 0,000 mm 0,2 UV-I 168 W/m 13,1 C 15,6 C 11,3 km/h (2 Bft) 96,15 %
01.06.2016 18:37 16,6 C 80 % 1010,5 hPa 0,0 l/m 6,4 km/h (2 Bft) SW 225 1 min 0,000 mm 0,5 UV-I 196 W/m 13,1 C 16,6 C 9,7 km/h (2 Bft) 95,83 %
01.06.2016 18:38 16,7 C 81 % 1010,5 hPa 0,0 l/m 5,6 km/h (1 Bft) W-SW 243 1 min 0,000 mm 0,5 UV-I 204 W/m 13,4 C 16,7 C 8,0 km/h (2 Bft) 100,00 %
01.06.2016 18:39 16,7 C 80 % 1010,5 hPa 0,0 l/m 6,7 km/h (2 Bft) SW 223 1 min 0,000 mm 0,5 UV-I 190 W/m 13,2 C 16,6 C 12,9 km/h (3 Bft) 95,83 %
01.06.2016 18:40 16,8 C 79 % 1010,5 hPa 0,0 l/m 6,4 km/h (2 Bft) SW 233 0 min 0,000 mm 0,4 UV-I 137 W/m 13,1 C 16,8 C 9,7 km/h (2 Bft) 100,00 %
01.06.2016 18:41 16,8 C 80 % 1010,5 hPa 0,0 l/m 7,4 km/h (2 Bft) SW 234 0 min 0,000 mm 0,2 UV-I 144 W/m 13,3 C 16,3 C 9,7 km/h (2 Bft) 95,83 %
01.06.2016 18:42 16,8 C 79 % 1010,5 hPa 0,0 l/m 10,5 km/h (2 Bft) W-SW 241 0 min 0,000 mm 0,5 UV-I 151 W/m 13,1 C 14,9 C 16,1 km/h (3 Bft) 100,00 %
01.06.2016 18:43 16,8 C 78 % 1010,5 hPa 0,0 l/m 5,7 km/h (1 Bft) SW 228 0 min 0,000 mm 0,2 UV-I 151 W/m 12,9 C 16,8 C 9,7 km/h (2 Bft) 100,00 %
01.06.2016 18:44 16,9 C 78 % 1010,5 hPa 0,0 l/m 9,5 km/h (2 Bft) W-SW 242 0 min 0,000 mm 0,0 UV-I 101 W/m 13,0 C 15,4 C 16,1 km/h (3 Bft) 95,83 %
01.06.2016 18:45 16,9 C 78 % 1010,5 hPa 0,0 l/m 10,6 km/h (2 Bft) SW 227 0 min 0,000 mm 0,0 UV-I 94 W/m 13,0 C 15,0 C 16,1 km/h (3 Bft) 100,00 %
01.06.2016 18:46 16,8 C 78 % 1010,6 hPa 0,0 l/m 7,9 km/h (2 Bft) SW 234 0 min 0,000 mm 0,0 UV-I 92 W/m 12,9 C 16,0 C 11,3 km/h (2 Bft) 100,00 %
01.06.2016 18:47 16,8 C 78 % 1010,5 hPa 0,0 l/m 7,0 km/h (2 Bft) W-SW 242 0 min 0,000 mm 0,0 UV-I 96 W/m 12,9 C 16,5 C 14,5 km/h (3 Bft) 100,00 %
01.06.2016 18:48 16,8 C 78 % 1010,5 hPa 0,0 l/m 7,8 km/h (2 Bft) S-SW 198 0 min 0,000 mm 0,0 UV-I 117 W/m 12,9 C 16,1 C 11,3 km/h (2 Bft) 95,83 %
01.06.2016 18:49 16,8 C 78 % 1010,5 hPa 0,0 l/m 12,9 km/h (3 Bft) S-SW 208 0 min 0,000 mm 0,0 UV-I 127 W/m 12,9 C 14,0 C 19,3 km/h (3 Bft) 100,00 %
01.06.2016 18:50 16,8 C 78 % 1010,6 hPa 0,0 l/m 14,1 km/h (3 Bft) W-SW 248 0 min 0,000 mm 0,0 UV-I 124 W/m 12,9 C 13,6 C 17,7 km/h (3 Bft) 100,00 %
01.06.2016 18:51 16,8 C 77 % 1010,6 hPa 0,0 l/m 8,3 km/h (2 Bft) W-SW 253 0 min 0,000 mm 0,0 UV-I 101 W/m 12,7 C 15,8 C 12,9 km/h (3 Bft) 100,00 %
01.06.2016 18:52 16,8 C 78 % 1010,6 hPa 0,0 l/m 12,9 km/h (3 Bft) SW 228 0 min 0,000 mm 0,0 UV-I 98 W/m 12,9 C 14,0 C 17,7 km/h (3 Bft) 95,83 %
01.06.2016 18:53 16,8 C 77 % 1010,5 hPa 0,0 l/m 11,9 km/h (2 Bft) SW 234 0 min 0,000 mm 0,0 UV-I 98 W/m 12,7 C 14,4 C 14,5 km/h (3 Bft) 100,00 %
01.06.2016 18:54 16,8 C 77 % 1010,6 hPa 0,0 l/m 12,1 km/h (2 Bft) W-SW 248 0 min 0,000 mm 0,0 UV-I 98 W/m 12,7 C 14,3 C 17,7 km/h (3 Bft) 100,00 %
01.06.2016 18:55 16,8 C 77 % 1010,6 hPa 0,0 l/m 12,1 km/h (2 Bft) W 262 0 min 0,000 mm 0,0 UV-I 100 W/m 12,7 C 14,3 C 16,1 km/h (3 Bft) 96,15 %
01.06.2016 18:56 16,8 C 77 % 1010,6 hPa 0,0 l/m 11,4 km/h (2 Bft) W-SW 252 0 min 0,000 mm 0,0 UV-I 108 W/m 12,7 C 14,6 C 16,1 km/h (3 Bft) 100,00 %
01.06.2016 18:57 16,8 C 77 % 1010,6 hPa 0,0 l/m 10,7 km/h (2 Bft) SW 229 0 min 0,000 mm 0,0 UV-I 113 W/m 12,7 C 14,8 C 14,5 km/h (3 Bft) 95,65 %
01.06.2016 18:58 16,7 C 77 % 1010,7 hPa 0,0 l/m 9,3 km/h (2 Bft) W 260 0 min 0,000 mm 0,0 UV-I 108 W/m 12,6 C 15,3 C 12,9 km/h (3 Bft) 100,00 %
01.06.2016 18:59 16,8 C 79 % 1010,6 hPa 0,0 l/m 5,6 km/h (1 Bft) SW 224 0 min 0,000 mm 0,0 UV-I 100 W/m 13,1 C 16,8 C 8,0 km/h (2 Bft) 100,00 %
01.06.2016 19:00 16,7 C 79 % 1010,6 hPa 0,0 l/m 7,9 km/h (2 Bft) W-SW 239 0 min 0,000 mm 0,0 UV-I 91 W/m 13,0 C 15,9 C 14,5 km/h (3 Bft) 100,00 %
01.06.2016 19:01 16,7 C 78 % 1010,6 hPa 0,0 l/m 11,1 km/h (2 Bft) W-SW 253 0 min 0,102 mm 0,0 UV-I 81 W/m 12,8 C 14,6 C 16,1 km/h (3 Bft) 100,00 %
01.06.2016 19:02 16,7 C 78 % 1010,6 hPa 0,0 l/m 11,5 km/h (2 Bft) W-SW 240 0 min 0,000 mm 0,0 UV-I 77 W/m 12,8 C 14,4 C 14,5 km/h (3 Bft) 100,00 %
01.06.2016 19:03 16,7 C 79 % 1010,6 hPa 0,0 l/m 8,5 km/h (2 Bft) W-SW 257 0 min 0,000 mm 0,0 UV-I 78 W/m 13,0 C 15,6 C 12,9 km/h (3 Bft) 100,00 %
01.06.2016 19:04 16,7 C 79 % 1010,6 hPa 0,0 l/m 6,0 km/h (2 Bft) SW 234 0 min 0,000 mm 0,0 UV-I 83 W/m 13,0 C 16,7 C 9,7 km/h (2 Bft) 100,00 %
01.06.2016 19:05 16,7 C 78 % 1010,7 hPa 0,0 l/m 9,5 km/h (2 Bft) W-SW 254 0 min 0,000 mm 0,0 UV-I 137 W/m 12,8 C 15,2 C 12,9 km/h (3 Bft) 95,83 %
01.06.2016 19:06 16,7 C 79 % 1010,7 hPa 0,0 l/m 7,8 km/h (2 Bft) W-SW 246 0 min 0,000 mm 0,0 UV-I 112 W/m 13,0 C 16,0 C 12,9 km/h (3 Bft) 100,00 %
01.06.2016 19:07 16,7 C 79 % 1010,7 hPa 0,0 l/m 5,6 km/h (1 Bft) W-SW 250 0 min 0,000 mm 0,0 UV-I 82 W/m 13,0 C 16,7 C 9,7 km/h (2 Bft) 100,00 %
01.06.2016 19:08 16,6 C 78 % 1010,7 hPa 0,0 l/m 4,9 km/h (1 Bft) S 189 0 min 0,000 mm 0,0 UV-I 81 W/m 12,7 C 16,6 C 8,0 km/h (2 Bft) 95,65 %
01.06.2016 19:09 16,6 C 78 % 1010,7 hPa 0,0 l/m 9,9 km/h (2 Bft) W-SW 242 0 min 0,000 mm 0,0 UV-I 85 W/m 12,7 C 14,9 C 16,1 km/h (3 Bft) 100,00 %
01.06.2016 19:10 16,6 C 78 % 1010,8 hPa 0,0 l/m 6,1 km/h (2 Bft) W-SW 241 0 min 0,000 mm 0,0 UV-I 93 W/m 12,7 C 16,6 C 9,7 km/h (2 Bft) 100,00 %
01.06.2016 19:11 16,6 C 78 % 1010,7 hPa 0,0 l/m 7,5 km/h (2 Bft) W-SW 255 0 min 0,000 mm 0,0 UV-I 101 W/m 12,7 C 16,0 C 11,3 km/h (2 Bft) 100,00 %
01.06.2016 19:12 16,6 C 78 % 1010,7 hPa 0,0 l/m 6,4 km/h (2 Bft) W 279 0 min 0,000 mm 0,0 UV-I 111 W/m 12,7 C 16,6 C 11,3 km/h (2 Bft) 95,65 %
01.06.2016 19:13 16,6 C 78 % 1010,7 hPa 0,0 l/m 11,0 km/h (2 Bft) W-SW 242 0 min 0,000 mm 0,0 UV-I 122 W/m 12,7 C 14,5 C 14,5 km/h (3 Bft) 100,00 %
01.06.2016 19:14 16,6 C 78 % 1010,7 hPa 0,0 l/m 10,7 km/h (2 Bft) W 265 0 min 0,000 mm 0,0 UV-I 126 W/m 12,7 C 14,6 C 14,5 km/h (3 Bft) 95,65 %
01.06.2016 19:15 16,6 C 78 % 1010,7 hPa 0,0 l/m 10,3 km/h (2 Bft) W-SW 255 1 min 0,000 mm 0,0 UV-I 149 W/m 12,7 C 14,8 C 17,7 km/h (3 Bft) 95,83 %
01.06.2016 19:16 16,6 C 78 % 1010,7 hPa 0,0 l/m 8,4 km/h (2 Bft) W 260 1 min 0,000 mm 0,0 UV-I 216 W/m 12,7 C 15,6 C 11,3 km/h (2 Bft) 100,00 %
01.06.2016 19:17 16,6 C 77 % 1010,6 hPa 0,0 l/m 10,5 km/h (2 Bft) W 264 1 min 0,000 mm 0,0 UV-I 226 W/m 12,5 C 14,7 C 14,5 km/h (3 Bft) 100,00 %
01.06.2016 19:18 16,7 C 77 % 1010,6 hPa 0,0 l/m 9,9 km/h (2 Bft) W 279 1 min 0,000 mm 0,0 UV-I 177 W/m 12,6 C 15,0 C 14,5 km/h (3 Bft) 100,00 %
01.06.2016 19:19 16,7 C 78 % 1010,5 hPa 0,0 l/m 9,4 km/h (2 Bft) SW 217 0 min 0,000 mm 0,0 UV-I 80 W/m 12,8 C 15,2 C 14,5 km/h (3 Bft) 100,00 %
01.06.2016 19:20 16,7 C 77 % 1010,5 hPa 0,0 l/m 11,0 km/h (2 Bft) W 262 0 min 0,000 mm 0,0 UV-I 69 W/m 12,6 C 14,6 C 14,5 km/h (3 Bft) 95,83 %
01.06.2016 19:21 16,7 C 78 % 1010,5 hPa 0,0 l/m 8,5 km/h (2 Bft) W 262 0 min 0,000 mm 0,0 UV-I 76 W/m 12,8 C 15,6 C 12,9 km/h (3 Bft) 100,00 %
01.06.2016 19:22 16,7 C 78 % 1010,6 hPa 0,0 l/m 6,1 km/h (2 Bft) W 259 0 min 0,000 mm 0,0 UV-I 82 W/m 12,8 C 16,7 C 11,3 km/h (2 Bft) 96,15 %
01.06.2016 19:23 16,7 C 78 % 1010,7 hPa 0,0 l/m 7,0 km/h (2 Bft) SW 228 0 min 0,000 mm 0,0 UV-I 79 W/m 12,8 C 16,4 C 11,3 km/h (2 Bft) 95,83 %
01.06.2016 19:24 16,7 C 78 % 1010,6 hPa 0,0 l/m 7,8 km/h (2 Bft) W-SW 247 0 min 0,000 mm 0,0 UV-I 82 W/m 12,8 C 16,0 C 11,3 km/h (2 Bft) 100,00 %
01.06.2016 19:25 16,6 C 78 % 1010,6 hPa 0,0 l/m 7,3 km/h (2 Bft) W-SW 254 0 min 0,000 mm 0,0 UV-I 83 W/m 12,7 C 16,1 C 11,3 km/h (2 Bft) 95,65 %
01.06.2016 19:26 16,6 C 78 % 1010,6 hPa 0,0 l/m 8,5 km/h (2 Bft) W-SW 247 0 min 0,000 mm 0,0 UV-I 80 W/m 12,7 C 15,5 C 12,9 km/h (3 Bft) 100,00 %
01.06.2016 19:27 16,6 C 78 % 1010,6 hPa 0,0 l/m 7,0 km/h (2 Bft) W-SW 248 0 min 0,000 mm 0,0 UV-I 73 W/m 12,7 C 16,3 C 11,3 km/h (2 Bft) 100,00 %
01.06.2016 19:28 16,6 C 78 % 1010,6 hPa 0,0 l/m 7,4 km/h (2 Bft) W-SW 254 0 min 0,000 mm 0,0 UV-I 67 W/m 12,7 C 16,1 C 11,3 km/h (2 Bft) 100,00 %
01.06.2016 19:29 16,5 C 78 % 1010,6 hPa 0,0 l/m 7,8 km/h (2 Bft) W-SW 251 0 min 0,000 mm 0,0 UV-I 63 W/m 12,6 C 15,8 C 11,3 km/h (2 Bft) 100,00 %
01.06.2016 19:30 16,5 C 78 % 1010,6 hPa 0,0 l/m 7,0 km/h (2 Bft) W 261 0 min 0,000 mm 0,0 UV-I 59 W/m 12,6 C 16,2 C 11,3 km/h (2 Bft) 100,00 %
01.06.2016 19:31 16,4 C 79 % 1010,6 hPa 0,0 l/m 10,8 km/h (2 Bft) W 263 0 min 0,000 mm 0,0 UV-I 56 W/m 12,7 C 14,3 C 12,9 km/h (3 Bft) 96,15 %
01.06.2016 19:32 16,4 C 77 % 1010,6 hPa 0,0 l/m 8,0 km/h (2 Bft) W-SW 242 0 min 0,000 mm 0,0 UV-I 54 W/m 12,4 C 15,6 C 11,3 km/h (2 Bft) 100,00 %
01.06.2016 19:33 16,4 C 78 % 1010,6 hPa 0,0 l/m 7,5 km/h (2 Bft) W-SW 239 0 min 0,000 mm 0,0 UV-I 54 W/m 12,6 C 15,8 C 11,3 km/h (2 Bft) 100,00 %
01.06.2016 19:34 16,4 C 79 % 1010,6 hPa 0,0 l/m 5,4 km/h (1 Bft) W-SW 244 0 min 0,000 mm 0,0 UV-I 53 W/m 12,7 C 16,4 C 6,4 km/h (2 Bft) 100,00 %
01.06.2016 19:35 16,3 C 79 % 1010,6 hPa 0,0 l/m 5,6 km/h (1 Bft) W-SW 244 0 min 0,000 mm 0,0 UV-I 50 W/m 12,6 C 16,3 C 6,4 km/h (2 Bft) 100,00 %
01.06.2016 19:36 16,3 C 79 % 1010,6 hPa 0,0 l/m 7,1 km/h (2 Bft) W-SW 241 0 min 0,000 mm 0,0 UV-I 47 W/m 12,6 C 15,9 C 12,9 km/h (3 Bft) 100,00 %
01.06.2016 19:37 16,3 C 79 % 1010,7 hPa 0,0 l/m 11,6 km/h (2 Bft) W 266 0 min 0,000 mm 0,0 UV-I 46 W/m 12,6 C 13,9 C 14,5 km/h (3 Bft) 95,65 %
01.06.2016 19:38 16,3 C 79 % 1010,6 hPa 0,0 l/m 12,3 km/h (3 Bft) W-SW 242 0 min 0,000 mm 0,0 UV-I 44 W/m 12,6 C 13,7 C 19,3 km/h (3 Bft) 95,83 %
01.06.2016 19:39 16,3 C 79 % 1010,7 hPa 0,0 l/m 8,5 km/h (2 Bft) SW 225 0 min 0,000 mm 0,0 UV-I 44 W/m 12,6 C 15,2 C 12,9 km/h (3 Bft) 100,00 %
01.06.2016 19:40 16,2 C 79 % 1010,6 hPa 0,0 l/m 8,2 km/h (2 Bft) SW 227 0 min 0,000 mm 0,0 UV-I 46 W/m 12,6 C 15,3 C 16,1 km/h (3 Bft) 95,65 %
01.06.2016 19:41 16,2 C 79 % 1010,6 hPa 0,0 l/m 6,6 km/h (2 Bft) W-SW 252 0 min 0,000 mm 0,0 UV-I 48 W/m 12,6 C 16,1 C 11,3 km/h (2 Bft) 100,00 %
01.06.2016 19:42 16,2 C 79 % 1010,6 hPa 0,0 l/m 11,3 km/h (2 Bft) W-SW 256 0 min 0,000 mm 0,0 UV-I 53 W/m 12,6 C 13,9 C 16,1 km/h (3 Bft) 100,00 %
01.06.2016 19:43 16,2 C 79 % 1010,6 hPa 0,0 l/m 13,2 km/h (3 Bft) W-SW 251 0 min 0,000 mm 0,0 UV-I 53 W/m 12,6 C 13,2 C 16,1 km/h (3 Bft) 95,83 %
01.06.2016 19:44 16,2 C 79 % 1010,6 hPa 0,0 l/m 11,6 km/h (2 Bft) W-SW 257 0 min 0,000 mm 0,0 UV-I 54 W/m 12,6 C 13,8 C 14,5 km/h (3 Bft) 100,00 %
01.06.2016 19:45 16,2 C 79 % 1010,6 hPa 0,0 l/m 11,5 km/h (2 Bft) W-SW 252 0 min 0,000 mm 0,0 UV-I 52 W/m 12,6 C 13,8 C 14,5 km/h (3 Bft) 100,00 %
01.06.2016 19:46 16,1 C 79 % 1010,6 hPa 0,0 l/m 7,6 km/h (2 Bft) W-SW 255 0 min 0,000 mm 0,0 UV-I 50 W/m 12,5 C 15,5 C 11,3 km/h (2 Bft) 100,00 %
01.06.2016 19:47 16,1 C 80 % 1010,6 hPa 0,0 l/m 7,6 km/h (2 Bft) W 260 0 min 0,000 mm 0,0 UV-I 47 W/m 12,6 C 15,5 C 12,9 km/h (3 Bft) 100,00 %
01.06.2016 19:48 16,1 C 80 % 1010,6 hPa 0,0 l/m 7,6 km/h (2 Bft) W-SW 251 0 min 0,000 mm 0,0 UV-I 44 W/m 12,6 C 15,5 C 11,3 km/h (2 Bft) 100,00 %
01.06.2016 19:49 16,1 C 80 % 1010,6 hPa 0,0 l/m 7,9 km/h (2 Bft) W-SW 247 0 min 0,000 mm 0,0 UV-I 40 W/m 12,6 C 15,3 C 12,9 km/h (3 Bft) 95,83 %
01.06.2016 19:50 16,1 C 80 % 1010,6 hPa 0,0 l/m 7,2 km/h (2 Bft) W 268 0 min 0,000 mm 0,0 UV-I 38 W/m 12,6 C 15,7 C 11,3 km/h (2 Bft) 95,65 %
01.06.2016 19:51 16,1 C 79 % 1010,6 hPa 0,0 l/m 5,6 km/h (1 Bft) W-SW 238 0 min 0,000 mm 0,0 UV-I 36 W/m 12,5 C 16,1 C 9,7 km/h (2 Bft) 100,00 %
01.06.2016 19:52 16,0 C 80 % 1010,6 hPa 0,0 l/m 5,1 km/h (1 Bft) W-SW 250 0 min 0,000 mm 0,0 UV-I 34 W/m 12,5 C 16,0 C 6,4 km/h (2 Bft) 100,00 %
01.06.2016 19:53 16,0 C 80 % 1010,6 hPa 0,0 l/m 7,0 km/h (2 Bft) W-SW 257 0 min 0,000 mm 0,0 UV-I 32 W/m 12,5 C 15,7 C 9,7 km/h (2 Bft) 100,00 %
01.06.2016 19:54 16,0 C 80 % 1010,6 hPa 0,0 l/m 5,1 km/h (1 Bft) W-SW 249 0 min 0,000 mm 0,0 UV-I 32 W/m 12,5 C 16,0 C 6,4 km/h (2 Bft) 95,65 %
01.06.2016 19:55 15,9 C 80 % 1010,7 hPa 0,0 l/m 6,6 km/h (2 Bft) SW 232 0 min 0,000 mm 0,0 UV-I 32 W/m 12,5 C 15,8 C 8,0 km/h (2 Bft) 100,00 %
01.06.2016 19:56 15,9 C 80 % 1010,7 hPa 0,0 l/m 4,8 km/h (1 Bft) W-SW 239 0 min 0,000 mm 0,0 UV-I 31 W/m 12,5 C 15,9 C 6,4 km/h (2 Bft) 100,00 %
01.06.2016 19:57 15,9 C 81 % 1010,6 hPa 0,0 l/m 5,1 km/h (1 Bft) W-SW 257 0 min 0,000 mm 0,0 UV-I 29 W/m 12,6 C 15,9 C 8,0 km/h (2 Bft) 96,30 %
01.06.2016 19:58 15,9 C 81 % 1010,6 hPa 0,0 l/m 5,8 km/h (2 Bft) W-SW 257 0 min 0,000 mm 0,0 UV-I 28 W/m 12,6 C 15,9 C 8,0 km/h (2 Bft) 100,00 %
01.06.2016 19:59 15,9 C 81 % 1010,7 hPa 0,0 l/m 6,2 km/h (2 Bft) W-SW 239 0 min 0,000 mm 0,0 UV-I 28 W/m 12,6 C 15,9 C 11,3 km/h (2 Bft) 100,00 %
01.06.2016 20:00 15,9 C 81 % 1010,6 hPa 0,0 l/m 5,5 km/h (1 Bft) SW 218 0 min 0,000 mm 0,0 UV-I 28 W/m 12,6 C 15,9 C 6,4 km/h (2 Bft) 100,00 %
01.06.2016 20:01 15,9 C 81 % 1010,6 hPa 0,0 l/m 7,5 km/h (2 Bft) SW 218 0 min 0,051 mm 0,0 UV-I 28 W/m 12,6 C 15,3 C 12,9 km/h (3 Bft) 100,00 %
01.06.2016 20:02 15,9 C 81 % 1010,6 hPa 0,0 l/m 6,4 km/h (2 Bft) W-SW 250 0 min 0,000 mm 0,0 UV-I 28 W/m 12,6 C 15,9 C 8,0 km/h (2 Bft) 100,00 %
01.06.2016 20:03 15,9 C 81 % 1010,7 hPa 0,0 l/m 5,2 km/h (1 Bft) W-SW 253 0 min 0,000 mm 0,0 UV-I 28 W/m 12,6 C 15,9 C 8,0 km/h (2 Bft) 100,00 %
01.06.2016 20:04 15,9 C 81 % 1010,7 hPa 0,0 l/m 5,7 km/h (1 Bft) SW 236 0 min 0,000 mm 0,0 UV-I 27 W/m 12,6 C 15,9 C 8,0 km/h (2 Bft) 100,00 %
01.06.2016 20:05 15,9 C 81 % 1010,7 hPa 0,0 l/m 5,5 km/h (1 Bft) SW 220 0 min 0,000 mm 0,0 UV-I 25 W/m 12,6 C 15,9 C 8,0 km/h (2 Bft) 100,00 %
01.06.2016 20:06 15,9 C 81 % 1010,7 hPa 0,0 l/m 4,7 km/h (1 Bft) S-SW 209 0 min 0,000 mm 0,0 UV-I 23 W/m 12,6 C 15,9 C 8,0 km/h (2 Bft) 100,00 %
01.06.2016 20:07 15,8 C 81 % 1010,7 hPa 0,0 l/m 7,3 km/h (2 Bft) W-SW 248 0 min 0,000 mm 0,0 UV-I 21 W/m 12,5 C 15,3 C 11,3 km/h (2 Bft) 100,00 %
01.06.2016 20:08 15,8 C 81 % 1010,7 hPa 0,0 l/m 5,6 km/h (1 Bft) W 261 0 min 0,000 mm 0,0 UV-I 19 W/m 12,5 C 15,8 C 9,7 km/h (2 Bft) 100,00 %
01.06.2016 20:09 15,8 C 81 % 1010,7 hPa 0,0 l/m 4,4 km/h (1 Bft) W-SW 250 0 min 0,000 mm 0,0 UV-I 17 W/m 12,5 C 15,8 C 6,4 km/h (2 Bft) 95,65 %
01.06.2016 20:10 15,8 C 81 % 1010,7 hPa 0,0 l/m 6,0 km/h (2 Bft) W-SW 244 0 min 0,000 mm 0,0 UV-I 15 W/m 12,5 C 15,8 C 8,0 km/h (2 Bft) 95,83 %
01.06.2016 20:11 15,8 C 81 % 1010,8 hPa 0,0 l/m 5,6 km/h (1 Bft) W-SW 252 0 min 0,000 mm 0,0 UV-I 14 W/m 12,5 C 15,8 C 9,7 km/h (2 Bft) 100,00 %
01.06.2016 20:12 15,8 C 81 % 1010,8 hPa 0,0 l/m 4,6 km/h (1 Bft) W-SW 258 0 min 0,000 mm 0,0 UV-I 12 W/m 12,5 C 15,8 C 6,4 km/h (2 Bft) 95,83 %
01.06.2016 20:13 15,8 C 81 % 1010,8 hPa 0,0 l/m 4,3 km/h (1 Bft) W-SW 256 0 min 0,000 mm 0,0 UV-I 12 W/m 12,5 C 15,8 C 6,4 km/h (2 Bft) 95,65 %
01.06.2016 20:14 15,8 C 81 % 1010,8 hPa 0,0 l/m 4,1 km/h (1 Bft) W-SW 254 0 min 0,000 mm 0,0 UV-I 11 W/m 12,5 C 15,8 C 6,4 km/h (2 Bft) 95,83 %
01.06.2016 20:15 15,8 C 82 % 1010,8 hPa 0,0 l/m 4,6 km/h (1 Bft) W-SW 257 0 min 0,000 mm 0,0 UV-I 11 W/m 12,7 C 15,8 C 6,4 km/h (2 Bft) 100,00 %
01.06.2016 20:16 15,8 C 81 % 1010,8 hPa 0,0 l/m 5,0 km/h (1 Bft) W-SW 258 0 min 0,000 mm 0,0 UV-I 10 W/m 12,5 C 15,8 C 8,0 km/h (2 Bft) 95,83 %
01.06.2016 20:17 15,8 C 82 % 1010,8 hPa 0,0 l/m 3,6 km/h (1 Bft) W-SW 252 0 min 0,000 mm 0,0 UV-I 9 W/m 12,7 C 15,8 C 6,4 km/h (2 Bft) 100,00 %
01.06.2016 20:18 15,8 C 82 % 1010,8 hPa 0,0 l/m 3,9 km/h (1 Bft) W-SW 258 0 min 0,000 mm 0,0 UV-I 9 W/m 12,7 C 15,8 C 6,4 km/h (2 Bft) 95,65 %
01.06.2016 20:19 15,7 C 82 % 1010,8 hPa 0,0 l/m 4,8 km/h (1 Bft) W-SW 248 0 min 0,000 mm 0,0 UV-I 8 W/m 12,6 C 15,7 C 6,4 km/h (2 Bft) 100,00 %
01.06.2016 20:20 15,7 C 82 % 1010,8 hPa 0,0 l/m 5,6 km/h (1 Bft) W-SW 257 0 min 0,000 mm 0,0 UV-I 7 W/m 12,6 C 15,7 C 8,0 km/h (2 Bft) 95,65 %
01.06.2016 20:21 15,7 C 83 % 1010,8 hPa 0,0 l/m 6,2 km/h (2 Bft) W-SW 257 0 min 0,000 mm 0,0 UV-I 7 W/m 12,8 C 15,7 C 9,7 km/h (2 Bft) 100,00 %
01.06.2016 20:22 15,7 C 83 % 1010,7 hPa 0,0 l/m 4,4 km/h (1 Bft) W 263 0 min 0,000 mm 0,0 UV-I 7 W/m 12,8 C 15,7 C 6,4 km/h (2 Bft) 96,15 %
01.06.2016 20:23 15,7 C 82 % 1010,8 hPa 0,0 l/m 4,6 km/h (1 Bft) W-SW 258 0 min 0,000 mm 0,0 UV-I 7 W/m 12,6 C 15,7 C 6,4 km/h (2 Bft) 95,83 %
01.06.2016 20:24 15,7 C 82 % 1010,8 hPa 0,0 l/m 4,8 km/h (1 Bft) W-SW 254 0 min 0,000 mm 0,0 UV-I 7 W/m 12,6 C 15,7 C 6,4 km/h (2 Bft) 100,00 %
01.06.2016 20:25 15,7 C 83 % 1010,8 hPa 0,0 l/m 3,8 km/h (1 Bft) W-SW 247 0 min 0,000 mm 0,0 UV-I 7 W/m 12,8 C 15,7 C 4,8 km/h (1 Bft) 95,83 %
01.06.2016 20:26 15,7 C 82 % 1010,8 hPa 0,0 l/m 3,3 km/h (1 Bft) W-SW 247 0 min 0,000 mm 0,0 UV-I 7 W/m 12,6 C 15,7 C 4,8 km/h (1 Bft) 100,00 %
01.06.2016 20:27 15,7 C 83 % 1010,8 hPa 0,0 l/m 3,0 km/h (1 Bft) W-SW 247 0 min 0,000 mm 0,0 UV-I 7 W/m 12,8 C 15,7 C 4,8 km/h (1 Bft) 95,83 %
01.06.2016 20:28 15,7 C 83 % 1010,7 hPa 0,0 l/m 2,9 km/h (1 Bft) W-SW 247 0 min 0,000 mm 0,0 UV-I 7 W/m 12,8 C 15,7 C 3,2 km/h (1 Bft) 96,15 %
01.06.2016 20:29 15,7 C 83 % 1010,8 hPa 0,0 l/m 4,3 km/h (1 Bft) W-SW 247 0 min 0,000 mm 0,0 UV-I 7 W/m 12,8 C 15,7 C 4,8 km/h (1 Bft) 100,00 %
01.06.2016 20:30 15,7 C 83 % 1010,8 hPa 0,0 l/m 4,1 km/h (1 Bft) W-SW 247 0 min 0,000 mm 0,0 UV-I 5 W/m 12,8 C 15,7 C 4,8 km/h (1 Bft) 100,00 %
01.06.2016 20:31 15,7 C 83 % 1010,7 hPa 0,0 l/m 3,9 km/h (1 Bft) W-SW 247 0 min 0,000 mm 0,0 UV-I 5 W/m 12,8 C 15,7 C 4,8 km/h (1 Bft) 96,77 %
01.06.2016 20:32 15,6 C 83 % 1010,8 hPa 0,0 l/m 3,3 km/h (1 Bft) W-SW 247 0 min 0,000 mm 0,0 UV-I 5 W/m 12,7 C 15,6 C 4,8 km/h (1 Bft) 95,65 %
01.06.2016 20:33 15,6 C 83 % 1010,8 hPa 0,0 l/m 4,3 km/h (1 Bft) W-SW 246 0 min 0,000 mm 0,0 UV-I 5 W/m 12,7 C 15,6 C 6,4 km/h (2 Bft) 100,00 %
01.06.2016 20:34 15,6 C 84 % 1010,8 hPa 0,0 l/m 4,8 km/h (1 Bft) W-SW 252 0 min 0,000 mm 0,0 UV-I 5 W/m 12,9 C 15,6 C 6,4 km/h (2 Bft) 95,65 %
01.06.2016 20:35 15,6 C 83 % 1010,8 hPa 0,0 l/m 4,5 km/h (1 Bft) W-SW 252 0 min 0,000 mm 0,0 UV-I 0 W/m 12,7 C 15,6 C 6,4 km/h (2 Bft) 100,00 %
01.06.2016 20:36 15,6 C 84 % 1010,8 hPa 0,0 l/m 6,0 km/h (2 Bft) W 264 0 min 0,000 mm 0,0 UV-I 0 W/m 12,9 C 15,6 C 9,7 km/h (2 Bft) 95,65 %
01.06.2016 20:37 15,6 C 83 % 1010,8 hPa 0,0 l/m 3,9 km/h (1 Bft) W-SW 256 0 min 0,000 mm 0,0 UV-I 0 W/m 12,7 C 15,6 C 6,4 km/h (2 Bft) 95,83 %
01.06.2016 20:38 15,6 C 84 % 1010,8 hPa 0,0 l/m 4,8 km/h (1 Bft) W-SW 246 0 min 0,000 mm 0,0 UV-I 0 W/m 12,9 C 15,6 C 6,4 km/h (2 Bft) 100,00 %
01.06.2016 20:39 15,6 C 84 % 1010,8 hPa 0,0 l/m 4,8 km/h (1 Bft) W-SW 257 0 min 0,000 mm 0,0 UV-I 0 W/m 12,9 C 15,6 C 6,4 km/h (2 Bft) 95,83 %
01.06.2016 20:40 15,6 C 84 % 1010,8 hPa 0,0 l/m 4,4 km/h (1 Bft) W-NW 283 0 min 0,000 mm 0,0 UV-I 0 W/m 12,9 C 15,6 C 6,4 km/h (2 Bft) 100,00 %
01.06.2016 20:41 15,5 C 85 % 1010,8 hPa 0,0 l/m 4,4 km/h (1 Bft) W-SW 257 0 min 0,000 mm 0,0 UV-I 0 W/m 13,0 C 15,5 C 6,4 km/h (2 Bft) 100,00 %
01.06.2016 20:42 15,5 C 85 % 1010,8 hPa 0,0 l/m 5,4 km/h (1 Bft) W 259 0 min 0,000 mm 0,0 UV-I 0 W/m 13,0 C 15,5 C 6,4 km/h (2 Bft) 100,00 %
01.06.2016 20:43 15,5 C 84 % 1010,8 hPa 0,0 l/m 5,3 km/h (1 Bft) W-SW 257 0 min 0,000 mm 0,0 UV-I 0 W/m 12,8 C 15,5 C 6,4 km/h (2 Bft) 100,00 %
01.06.2016 20:44 15,4 C 84 % 1010,8 hPa 0,0 l/m 4,8 km/h (1 Bft) W-SW 254 0 min 0,000 mm 0,0 UV-I 0 W/m 12,7 C 15,4 C 8,0 km/h (2 Bft) 100,00 %
01.06.2016 20:45 15,4 C 85 % 1010,8 hPa 0,0 l/m 3,6 km/h (1 Bft) W-SW 256 0 min 0,000 mm 0,0 UV-I 0 W/m 12,9 C 15,4 C 4,8 km/h (1 Bft) 91,30 %
01.06.2016 20:46 15,4 C 85 % 1010,7 hPa 0,0 l/m 4,7 km/h (1 Bft) SW 229 0 min 0,000 mm 0,0 UV-I 0 W/m 12,9 C 15,4 C 6,4 km/h (2 Bft) 100,00 %
01.06.2016 20:47 15,3 C 86 % 1010,7 hPa 0,0 l/m 4,2 km/h (1 Bft) SW 231 0 min 0,000 mm 0,0 UV-I 0 W/m 13,0 C 15,3 C 6,4 km/h (2 Bft) 100,00 %
01.06.2016 20:48 15,3 C 86 % 1010,8 hPa 0,0 l/m 4,0 km/h (1 Bft) W-SW 242 0 min 0,000 mm 0,0 UV-I 0 W/m 13,0 C 15,3 C 6,4 km/h (2 Bft) 100,00 %
01.06.2016 20:49 15,2 C 86 % 1010,7 hPa 0,0 l/m 3,0 km/h (1 Bft) W-SW 244 0 min 0,000 mm 0,0 UV-I 0 W/m 12,9 C 15,2 C 3,2 km/h (1 Bft) 95,65 %
01.06.2016 20:50 15,2 C 87 % 1010,7 hPa 0,0 l/m 3,6 km/h (1 Bft) W-SW 244 0 min 0,000 mm 0,0 UV-I 0 W/m 13,0 C 15,2 C 4,8 km/h (1 Bft) 100,00 %
01.06.2016 20:51 15,1 C 87 % 1010,7 hPa 0,0 l/m 2,9 km/h (1 Bft) W-SW 244 0 min 0,000 mm 0,0 UV-I 0 W/m 13,0 C 15,1 C 4,8 km/h (1 Bft) 92,86 %
01.06.2016 20:52 15,1 C 88 % 1010,7 hPa 0,0 l/m 3,7 km/h (1 Bft) W-SW 244 0 min 0,000 mm 0,0 UV-I 0 W/m 13,1 C 15,1 C 4,8 km/h (1 Bft) 100,00 %
01.06.2016 20:53 15,1 C 87 % 1010,8 hPa 0,0 l/m 3,6 km/h (1 Bft) W-SW 244 0 min 0,000 mm 0,0 UV-I 0 W/m 13,0 C 15,1 C 6,4 km/h (2 Bft) 91,30 %
01.06.2016 20:54 15,0 C 88 % 1010,7 hPa 0,0 l/m 3,4 km/h (1 Bft) W-SW 244 0 min 0,000 mm 0,0 UV-I 0 W/m 13,0 C 15,0 C 4,8 km/h (1 Bft) 95,83 %
01.06.2016 20:55 15,0 C 88 % 1010,8 hPa 0,0 l/m 3,5 km/h (1 Bft) W-SW 248 0 min 0,000 mm 0,0 UV-I 0 W/m 13,0 C 15,0 C 4,8 km/h (1 Bft) 95,65 %
01.06.2016 20:56 14,9 C 88 % 1010,8 hPa 0,0 l/m 2,6 km/h (1 Bft) W-SW 248 0 min 0,000 mm 0,0 UV-I 0 W/m 12,9 C 14,9 C 3,2 km/h (1 Bft) 91,67 %
01.06.2016 20:57 14,9 C 88 % 1010,7 hPa 0,0 l/m 2,3 km/h (1 Bft) W-SW 248 0 min 0,000 mm 0,0 UV-I 0 W/m 12,9 C 14,9 C 4,8 km/h (1 Bft) 100,00 %
01.06.2016 20:58 14,9 C 89 % 1010,7 hPa 0,0 l/m 2,5 km/h (1 Bft) W-SW 248 0 min 0,000 mm 0,0 UV-I 0 W/m 13,1 C 14,9 C 3,2 km/h (1 Bft) 100,00 %
01.06.2016 20:59 14,9 C 89 % 1010,7 hPa 0,0 l/m 3,0 km/h (1 Bft) W-SW 248 0 min 0,000 mm 0,0 UV-I 0 W/m 13,1 C 14,9 C 3,2 km/h (1 Bft) 100,00 %
01.06.2016 21:00 14,8 C 89 % 1010,7 hPa 0,0 l/m 3,3 km/h (1 Bft) W-SW 248 0 min 0,000 mm 0,0 UV-I 0 W/m 13,0 C 14,8 C 4,8 km/h (1 Bft) 100,00 %
01.06.2016 21:01 14,8 C 89 % 1010,7 hPa 0,0 l/m 3,8 km/h (1 Bft) W-SW 248 0 min 0,025 mm 0,0 UV-I 0 W/m 13,0 C 14,8 C 4,8 km/h (1 Bft) 100,00 %
01.06.2016 21:02 14,8 C 89 % 1010,8 hPa 0,0 l/m 3,6 km/h (1 Bft) W-SW 248 0 min 0,000 mm 0,0 UV-I 0 W/m 13,0 C 14,8 C 4,8 km/h (1 Bft) 95,65 %
01.06.2016 21:03 14,8 C 89 % 1010,8 hPa 0,0 l/m 3,3 km/h (1 Bft) W-SW 248 0 min 0,000 mm 0,0 UV-I 0 W/m 13,0 C 14,8 C 4,8 km/h (1 Bft) 100,00 %
01.06.2016 21:04 14,8 C 89 % 1010,8 hPa 0,0 l/m 3,6 km/h (1 Bft) W-SW 248 0 min 0,000 mm 0,0 UV-I 0 W/m 13,0 C 14,8 C 4,8 km/h (1 Bft) 95,65 %
01.06.2016 21:05 14,8 C 89 % 1010,8 hPa 0,0 l/m 3,6 km/h (1 Bft) W-SW 248 0 min 0,000 mm 0,0 UV-I 0 W/m 13,0 C 14,8 C 4,8 km/h (1 Bft) 100,00 %
01.06.2016 21:06 14,8 C 89 % 1010,8 hPa 0,0 l/m 3,5 km/h (1 Bft) W 268 0 min 0,000 mm 0,0 UV-I 0 W/m 13,0 C 14,8 C 4,8 km/h (1 Bft) 100,00 %
01.06.2016 21:07 14,8 C 89 % 1010,8 hPa 0,0 l/m 3,6 km/h (1 Bft) W-SW 241 0 min 0,000 mm 0,0 UV-I 0 W/m 13,0 C 14,8 C 4,8 km/h (1 Bft) 100,00 %
01.06.2016 21:08 14,7 C 89 % 1010,8 hPa 0,0 l/m 4,6 km/h (1 Bft) W-NW 290 0 min 0,000 mm 0,0 UV-I 0 W/m 12,9 C 14,7 C 6,4 km/h (2 Bft) 96,15 %
01.06.2016 21:09 14,7 C 89 % 1010,8 hPa 0,0 l/m 4,9 km/h (1 Bft) W-SW 250 0 min 0,000 mm 0,0 UV-I 0 W/m 12,9 C 14,7 C 6,4 km/h (2 Bft) 100,00 %
01.06.2016 21:10 14,7 C 89 % 1010,8 hPa 0,0 l/m 5,1 km/h (1 Bft) W-SW 249 0 min 0,000 mm 0,0 UV-I 0 W/m 12,9 C 14,7 C 6,4 km/h (2 Bft) 100,00 %
01.06.2016 21:11 14,7 C 90 % 1010,8 hPa 0,0 l/m 3,2 km/h (1 Bft) W-SW 249 0 min 0,000 mm 0,0 UV-I 0 W/m 13,1 C 14,7 C 4,8 km/h (1 Bft) 100,00 %
01.06.2016 21:12 14,7 C 90 % 1010,8 hPa 0,0 l/m 2,9 km/h (1 Bft) W-SW 258 0 min 0,000 mm 0,0 UV-I 0 W/m 13,1 C 14,7 C 3,2 km/h (1 Bft) 100,00 %
01.06.2016 21:13 14,7 C 90 % 1010,8 hPa 0,0 l/m 3,0 km/h (1 Bft) W-SW 258 0 min 0,000 mm 0,0 UV-I 0 W/m 13,1 C 14,7 C 4,8 km/h (1 Bft) 100,00 %
01.06.2016 21:14 14,7 C 90 % 1010,9 hPa 0,0 l/m 2,6 km/h (1 Bft) W-SW 258 0 min 0,000 mm 0,0 UV-I 0 W/m 13,1 C 14,7 C 3,2 km/h (1 Bft) 95,65 %
01.06.2016 21:15 14,7 C 90 % 1010,9 hPa 0,0 l/m 0,9 km/h (0 Bft) W-SW 258 0 min 0,000 mm 0,0 UV-I 0 W/m 13,1 C 14,7 C 1,6 km/h (1 Bft) 100,00 %
01.06.2016 21:16 14,7 C 90 % 1010,9 hPa 0,0 l/m 2,1 km/h (1 Bft) W-SW 258 0 min 0,000 mm 0,0 UV-I 0 W/m 13,1 C 14,7 C 3,2 km/h (1 Bft) 100,00 %
01.06.2016 21:17 14,7 C 90 % 1010,9 hPa 0,0 l/m 1,7 km/h (1 Bft) W-SW 258 0 min 0,000 mm 0,0 UV-I 0 W/m 13,1 C 14,7 C 3,2 km/h (1 Bft) 95,83 %
01.06.2016 21:18 14,6 C 90 % 1010,9 hPa 0,0 l/m 0,8 km/h (0 Bft) W-SW 258 0 min 0,000 mm 0,0 UV-I 0 W/m 13,0 C 14,6 C 1,6 km/h (1 Bft) 100,00 %
01.06.2016 21:19 14,6 C 90 % 1010,9 hPa 0,0 l/m 1,1 km/h (1 Bft) W-SW 258 0 min 0,000 mm 0,0 UV-I 0 W/m 13,0 C 14,6 C 1,6 km/h (1 Bft) 100,00 %
01.06.2016 21:20 14,6 C 91 % 1010,9 hPa 0,0 l/m 1,9 km/h (1 Bft) W 259 0 min 0,000 mm 0,0 UV-I 0 W/m 13,1 C 14,6 C 3,2 km/h (1 Bft) 95,65 %
01.06.2016 21:21 14,6 C 91 % 1010,9 hPa 0,0 l/m 4,7 km/h (1 Bft) W 271 0 min 0,000 mm 0,0 UV-I 0 W/m 13,1 C 14,6 C 6,4 km/h (2 Bft) 100,00 %
01.06.2016 21:22 14,6 C 90 % 1010,9 hPa 0,0 l/m 3,8 km/h (1 Bft) W 280 0 min 0,000 mm 0,0 UV-I 0 W/m 13,0 C 14,6 C 4,8 km/h (1 Bft) 100,00 %
01.06.2016 21:23 14,6 C 90 % 1010,9 hPa 0,0 l/m 4,8 km/h (1 Bft) W-SW 257 0 min 0,000 mm 0,0 UV-I 0 W/m 13,0 C 14,6 C 9,7 km/h (2 Bft) 100,00 %
01.06.2016 21:24 14,6 C 90 % 1010,9 hPa 0,0 l/m 3,2 km/h (1 Bft) W 265 0 min 0,000 mm 0,0 UV-I 0 W/m 13,0 C 14,6 C 4,8 km/h (1 Bft) 100,00 %
01.06.2016 21:25 14,6 C 90 % 1010,9 hPa 0,0 l/m 3,0 km/h (1 Bft) W 265 0 min 0,000 mm 0,0 UV-I 0 W/m 13,0 C 14,6 C 4,8 km/h (1 Bft) 100,00 %
01.06.2016 21:26 14,6 C 90 % 1010,9 hPa 0,0 l/m 2,5 km/h (1 Bft) W 265 0 min 0,000 mm 0,0 UV-I 0 W/m 13,0 C 14,6 C 4,8 km/h (1 Bft) 100,00 %
01.06.2016 21:27 14,6 C 90 % 1011,0 hPa 0,0 l/m 1,2 km/h (1 Bft) W 265 0 min 0,000 mm 0,0 UV-I 0 W/m 13,0 C 14,6 C 1,6 km/h (1 Bft) 90,91 %
01.06.2016 21:28 14,6 C 90 % 1010,9 hPa 0,0 l/m 0,6 km/h (0 Bft) W 265 0 min 0,000 mm 0,0 UV-I 0 W/m 13,0 C 14,6 C 3,2 km/h (1 Bft) 100,00 %
01.06.2016 21:29 14,6 C 90 % 1011,0 hPa 0,0 l/m 1,4 km/h (1 Bft) W 265 0 min 0,000 mm 0,0 UV-I 0 W/m 13,0 C 14,6 C 1,6 km/h (1 Bft) 96,15 %
01.06.2016 21:30 14,6 C 90 % 1011,0 hPa 0,0 l/m 1,8 km/h (1 Bft) W 268 0 min 0,000 mm 0,0 UV-I 0 W/m 13,0 C 14,6 C 3,2 km/h (1 Bft) 100,00 %
01.06.2016 21:31 14,6 C 90 % 1011,0 hPa 0,0 l/m 0,7 km/h (0 Bft) W 268 0 min 0,000 mm 0,0 UV-I 0 W/m 13,0 C 14,6 C 1,6 km/h (1 Bft) 95,65 %
01.06.2016 21:32 14,5 C 91 % 1011,0 hPa 0,0 l/m 0,5 km/h (0 Bft) W 268 0 min 0,000 mm 0,0 UV-I 0 W/m 13,0 C 14,5 C 1,6 km/h (1 Bft) 100,00 %
01.06.2016 21:33 14,5 C 91 % 1011,0 hPa 0,0 l/m 0,8 km/h (0 Bft) W 268 0 min 0,000 mm 0,0 UV-I 0 W/m 13,0 C 14,5 C 3,2 km/h (1 Bft) 95,65 %
01.06.2016 21:34 14,5 C 91 % 1011,0 hPa 0,0 l/m 0,1 km/h (0 Bft) W 268 0 min 0,000 mm 0,0 UV-I 0 W/m 13,0 C 14,5 C 1,6 km/h (1 Bft) 100,00 %
01.06.2016 21:35 14,4 C 91 % 1011,0 hPa 0,0 l/m 0,1 km/h (0 Bft) W 268 0 min 0,000 mm 0,0 UV-I 0 W/m 12,9 C 14,4 C 1,6 km/h (1 Bft) 95,65 %
01.06.2016 21:36 14,4 C 91 % 1011,0 hPa 0,0 l/m 0,9 km/h (0 Bft) W 268 0 min 0,000 mm 0,0 UV-I 0 W/m 12,9 C 14,4 C 1,6 km/h (1 Bft) 100,00 %
01.06.2016 21:37 14,4 C 91 % 1011,0 hPa 0,0 l/m 0,4 km/h (0 Bft) W 268 0 min 0,000 mm 0,0 UV-I 0 W/m 12,9 C 14,4 C 1,6 km/h (1 Bft) 100,00 %
01.06.2016 21:38 14,4 C 91 % 1011,0 hPa 0,0 l/m 1,0 km/h (0 Bft) W 268 0 min 0,000 mm 0,0 UV-I 0 W/m 12,9 C 14,4 C 3,2 km/h (1 Bft) 100,00 %
01.06.2016 21:39 14,4 C 91 % 1011,0 hPa 0,0 l/m 1,8 km/h (1 Bft) W 269 0 min 0,000 mm 0,0 UV-I 0 W/m 12,9 C 14,4 C 3,2 km/h (1 Bft) 95,65 %
01.06.2016 21:40 14,3 C 91 % 1011,0 hPa 0,0 l/m 1,8 km/h (1 Bft) W 269 0 min 0,000 mm 0,0 UV-I 0 W/m 12,8 C 14,3 C 3,2 km/h (1 Bft) 100,00 %
01.06.2016 21:41 14,3 C 91 % 1011,0 hPa 0,0 l/m 1,7 km/h (1 Bft) W 269 0 min 0,000 mm 0,0 UV-I 0 W/m 12,8 C 14,3 C 3,2 km/h (1 Bft) 100,00 %
01.06.2016 21:42 14,3 C 91 % 1011,0 hPa 0,0 l/m 0,8 km/h (0 Bft) W 269 0 min 0,000 mm 0,0 UV-I 0 W/m 12,8 C 14,3 C 1,6 km/h (1 Bft) 95,83 %
01.06.2016 21:43 14,3 C 91 % 1011,0 hPa 0,0 l/m 1,3 km/h (1 Bft) W 269 0 min 0,000 mm 0,0 UV-I 0 W/m 12,8 C 14,3 C 3,2 km/h (1 Bft) 100,00 %
01.06.2016 21:44 14,3 C 91 % 1011,0 hPa 0,0 l/m 2,1 km/h (1 Bft) W 269 0 min 0,000 mm 0,0 UV-I 0 W/m 12,8 C 14,3 C 3,2 km/h (1 Bft) 100,00 %
01.06.2016 21:45 14,3 C 91 % 1011,0 hPa 0,0 l/m 3,2 km/h (1 Bft) W 269 0 min 0,000 mm 0,0 UV-I 0 W/m 12,8 C 14,3 C 4,8 km/h (1 Bft) 100,00 %
01.06.2016 21:46 14,3 C 91 % 1011,0 hPa 0,0 l/m 2,1 km/h (1 Bft) W 269 0 min 0,000 mm 0,0 UV-I 0 W/m 12,8 C 14,3 C 3,2 km/h (1 Bft) 95,65 %
01.06.2016 21:47 14,3 C 91 % 1011,0 hPa 0,0 l/m 2,3 km/h (1 Bft) W 269 0 min 0,000 mm 0,0 UV-I 0 W/m 12,8 C 14,3 C 3,2 km/h (1 Bft) 100,00 %
01.06.2016 21:48 14,3 C 91 % 1011,0 hPa 0,0 l/m 2,7 km/h (1 Bft) W 269 0 min 0,000 mm 0,0 UV-I 0 W/m 12,8 C 14,3 C 3,2 km/h (1 Bft) 100,00 %
01.06.2016 21:49 14,3 C 92 % 1011,0 hPa 0,0 l/m 3,2 km/h (1 Bft) W 262 0 min 0,000 mm 0,0 UV-I 0 W/m 13,0 C 14,3 C 4,8 km/h (1 Bft) 100,00 %
01.06.2016 21:50 14,3 C 92 % 1011,0 hPa 0,0 l/m 3,3 km/h (1 Bft) W-SW 251 0 min 0,000 mm 0,0 UV-I 0 W/m 13,0 C 14,3 C 4,8 km/h (1 Bft) 95,65 %
01.06.2016 21:51 14,3 C 92 % 1011,0 hPa 0,0 l/m 3,2 km/h (1 Bft) W-SW 250 0 min 0,000 mm 0,0 UV-I 0 W/m 13,0 C 14,3 C 4,8 km/h (1 Bft) 100,00 %
01.06.2016 21:52 14,3 C 92 % 1011,0 hPa 0,0 l/m 3,2 km/h (1 Bft) W-SW 250 0 min 0,000 mm 0,0 UV-I 0 W/m 13,0 C 14,3 C 3,2 km/h (1 Bft) 100,00 %
01.06.2016 21:53 14,3 C 92 % 1011,0 hPa 0,0 l/m 3,6 km/h (1 Bft) SW 231 0 min 0,000 mm 0,0 UV-I 0 W/m 13,0 C 14,3 C 4,8 km/h (1 Bft) 100,00 %
01.06.2016 21:54 14,3 C 92 % 1011,0 hPa 0,0 l/m 3,0 km/h (1 Bft) SW 231 0 min 0,000 mm 0,0 UV-I 0 W/m 13,0 C 14,3 C 4,8 km/h (1 Bft) 95,65 %
01.06.2016 21:55 14,3 C 92 % 1011,0 hPa 0,0 l/m 3,4 km/h (1 Bft) SW 231 0 min 0,000 mm 0,0 UV-I 0 W/m 13,0 C 14,3 C 4,8 km/h (1 Bft) 100,00 %
01.06.2016 21:56 14,2 C 92 % 1011,0 hPa 0,0 l/m 3,0 km/h (1 Bft) SW 231 0 min 0,000 mm 0,0 UV-I 0 W/m 12,9 C 14,2 C 3,2 km/h (1 Bft) 100,00 %
01.06.2016 21:57 14,3 C 92 % 1011,0 hPa 0,0 l/m 3,6 km/h (1 Bft) SW 231 0 min 0,000 mm 0,0 UV-I 0 W/m 13,0 C 14,3 C 4,8 km/h (1 Bft) 96,15 %
01.06.2016 21:58 14,2 C 92 % 1010,9 hPa 0,0 l/m 3,4 km/h (1 Bft) SW 231 0 min 0,000 mm 0,0 UV-I 0 W/m 12,9 C 14,2 C 4,8 km/h (1 Bft) 100,00 %
01.06.2016 21:59 14,2 C 92 % 1011,0 hPa 0,0 l/m 4,4 km/h (1 Bft) SW 229 0 min 0,000 mm 0,0 UV-I 0 W/m 12,9 C 14,2 C 4,8 km/h (1 Bft) 100,00 %
01.06.2016 22:00 14,2 C 92 % 1010,9 hPa 0,0 l/m 4,4 km/h (1 Bft) SW 226 0 min 0,000 mm 0,0 UV-I 0 W/m 12,9 C 14,2 C 4,8 km/h (1 Bft) 100,00 %
01.06.2016 22:01 14,2 C 92 % 1010,9 hPa 0,0 l/m 4,8 km/h (1 Bft) SW 223 0 min 0,000 mm 0,0 UV-I 0 W/m 12,9 C 14,2 C 6,4 km/h (2 Bft) 100,00 %
01.06.2016 22:02 14,2 C 92 % 1010,9 hPa 0,0 l/m 4,9 km/h (1 Bft) S-SW 209 0 min 0,000 mm 0,0 UV-I 0 W/m 12,9 C 14,2 C 6,4 km/h (2 Bft) 100,00 %
01.06.2016 22:03 14,2 C 92 % 1010,9 hPa 0,0 l/m 4,1 km/h (1 Bft) S-SW 209 0 min 0,000 mm 0,0 UV-I 0 W/m 12,9 C 14,2 C 4,8 km/h (1 Bft) 100,00 %
01.06.2016 22:04 14,2 C 92 % 1011,0 hPa 0,0 l/m 4,8 km/h (1 Bft) SW 215 0 min 0,000 mm 0,0 UV-I 0 W/m 12,9 C 14,2 C 6,4 km/h (2 Bft) 100,00 %
01.06.2016 22:05 14,2 C 92 % 1010,9 hPa 0,0 l/m 3,4 km/h (1 Bft) SW 215 0 min 0,000 mm 0,0 UV-I 0 W/m 12,9 C 14,2 C 4,8 km/h (1 Bft) 100,00 %
01.06.2016 22:06 14,2 C 92 % 1011,0 hPa 0,0 l/m 5,4 km/h (1 Bft) SW 229 0 min 0,000 mm 0,0 UV-I 0 W/m 12,9 C 14,2 C 8,0 km/h (2 Bft) 100,00 %
01.06.2016 22:07 14,2 C 92 % 1010,9 hPa 0,0 l/m 3,8 km/h (1 Bft) SW 224 0 min 0,000 mm 0,0 UV-I 0 W/m 12,9 C 14,2 C 6,4 km/h (2 Bft) 100,00 %
01.06.2016 22:08 14,2 C 92 % 1011,0 hPa 0,0 l/m 5,4 km/h (1 Bft) S 189 0 min 0,000 mm 0,0 UV-I 0 W/m 12,9 C 14,2 C 8,0 km/h (2 Bft) 100,00 %
01.06.2016 22:09 14,2 C 92 % 1011,0 hPa 0,0 l/m 8,6 km/h (2 Bft) W-SW 243 0 min 0,000 mm 0,0 UV-I 0 W/m 12,9 C 12,9 C 11,3 km/h (2 Bft) 95,65 %
01.06.2016 22:10 14,2 C 92 % 1010,9 hPa 0,0 l/m 6,9 km/h (2 Bft) SW 227 0 min 0,000 mm 0,0 UV-I 0 W/m 12,9 C 13,9 C 9,7 km/h (2 Bft) 100,00 %
01.06.2016 22:11 14,2 C 92 % 1011,0 hPa 0,0 l/m 6,9 km/h (2 Bft) W-SW 239 0 min 0,000 mm 0,0 UV-I 0 W/m 12,9 C 13,9 C 8,0 km/h (2 Bft) 91,30 %
01.06.2016 22:12 14,2 C 92 % 1011,0 hPa 0,0 l/m 5,9 km/h (2 Bft) SW 231 0 min 0,000 mm 0,0 UV-I 0 W/m 12,9 C 14,2 C 8,0 km/h (2 Bft) 100,00 %
01.06.2016 22:13 14,2 C 92 % 1011,0 hPa 0,0 l/m 6,3 km/h (2 Bft) SW 236 0 min 0,000 mm 0,0 UV-I 0 W/m 12,9 C 14,2 C 9,7 km/h (2 Bft) 95,65 %
01.06.2016 22:14 14,2 C 92 % 1011,0 hPa 0,0 l/m 6,6 km/h (2 Bft) SW 214 0 min 0,000 mm 0,0 UV-I 0 W/m 12,9 C 14,1 C 8,0 km/h (2 Bft) 95,83 %
01.06.2016 22:15 14,2 C 92 % 1011,0 hPa 0,0 l/m 6,6 km/h (2 Bft) SW 217 0 min 0,000 mm 0,0 UV-I 0 W/m 12,9 C 14,1 C 9,7 km/h (2 Bft) 100,00 %
01.06.2016 22:16 14,2 C 92 % 1011,0 hPa 0,0 l/m 5,4 km/h (1 Bft) SW 228 0 min 0,000 mm 0,0 UV-I 0 W/m 12,9 C 14,2 C 8,0 km/h (2 Bft) 95,83 %
01.06.2016 22:17 14,3 C 92 % 1011,0 hPa 0,0 l/m 5,4 km/h (1 Bft) SW 232 0 min 0,000 mm 0,0 UV-I 0 W/m 13,0 C 14,3 C 6,4 km/h (2 Bft) 100,00 %
01.06.2016 22:18 14,2 C 91 % 1011,0 hPa 0,0 l/m 7,8 km/h (2 Bft) SW 229 0 min 0,000 mm 0,0 UV-I 0 W/m 12,8 C 13,4 C 11,3 km/h (2 Bft) 95,83 %
01.06.2016 22:19 14,2 C 91 % 1011,0 hPa 0,0 l/m 6,8 km/h (2 Bft) SW 236 0 min 0,000 mm 0,0 UV-I 0 W/m 12,8 C 14,0 C 11,3 km/h (2 Bft) 100,00 %
01.06.2016 22:20 14,2 C 91 % 1011,0 hPa 0,0 l/m 6,2 km/h (2 Bft) W-SW 244 0 min 0,000 mm 0,0 UV-I 0 W/m 12,8 C 14,2 C 11,3 km/h (2 Bft) 95,65 %
01.06.2016 22:21 14,3 C 91 % 1011,0 hPa 0,0 l/m 6,1 km/h (2 Bft) W-SW 247 0 min 0,000 mm 0,0 UV-I 0 W/m 12,8 C 14,3 C 8,0 km/h (2 Bft) 95,83 %
01.06.2016 22:22 14,3 C 91 % 1011,0 hPa 0,0 l/m 6,2 km/h (2 Bft) W 263 0 min 0,000 mm 0,0 UV-I 0 W/m 12,8 C 14,3 C 9,7 km/h (2 Bft) 100,00 %
01.06.2016 22:23 14,3 C 91 % 1010,9 hPa 0,0 l/m 6,4 km/h (2 Bft) W-SW 247 0 min 0,000 mm 0,0 UV-I 0 W/m 12,8 C 14,3 C 9,7 km/h (2 Bft) 87,50 %
01.06.2016 22:24 14,3 C 90 % 1010,9 hPa 0,0 l/m 7,4 km/h (2 Bft) W-SW 248 0 min 0,000 mm 0,0 UV-I 0 W/m 12,7 C 13,7 C 11,3 km/h (2 Bft) 100,00 %
01.06.2016 22:25 14,3 C 90 % 1010,9 hPa 0,0 l/m 7,4 km/h (2 Bft) W-SW 255 0 min 0,000 mm 0,0 UV-I 0 W/m 12,7 C 13,7 C 9,7 km/h (2 Bft) 91,67 %
01.06.2016 22:26 14,3 C 90 % 1010,9 hPa 0,0 l/m 8,1 km/h (2 Bft) W 263 0 min 0,000 mm 0,0 UV-I 0 W/m 12,7 C 13,3 C 12,9 km/h (3 Bft) 100,00 %
01.06.2016 22:27 14,3 C 90 % 1010,9 hPa 0,0 l/m 8,0 km/h (2 Bft) SW 228 0 min 0,000 mm 0,0 UV-I 0 W/m 12,7 C 13,4 C 12,9 km/h (3 Bft) 96,30 %
01.06.2016 22:28 14,3 C 90 % 1010,9 hPa 0,0 l/m 12,0 km/h (2 Bft) W-SW 251 0 min 0,000 mm 0,0 UV-I 0 W/m 12,7 C 11,5 C 20,9 km/h (4 Bft) 95,65 %
01.06.2016 22:29 14,3 C 90 % 1010,9 hPa 0,0 l/m 11,0 km/h (2 Bft) W-SW 241 0 min 0,000 mm 0,0 UV-I 0 W/m 12,7 C 11,9 C 14,5 km/h (3 Bft) 95,83 %
01.06.2016 22:30 14,3 C 90 % 1010,9 hPa 0,0 l/m 12,7 km/h (3 Bft) SW 219 0 min 0,000 mm 0,0 UV-I 0 W/m 12,7 C 11,2 C 16,1 km/h (3 Bft) 100,00 %
01.06.2016 22:31 14,3 C 89 % 1010,9 hPa 0,0 l/m 11,0 km/h (2 Bft) S-SW 204 0 min 0,000 mm 0,0 UV-I 0 W/m 12,5 C 11,9 C 14,5 km/h (3 Bft) 95,83 %
01.06.2016 22:32 14,3 C 89 % 1010,9 hPa 0,0 l/m 11,3 km/h (2 Bft) W-SW 245 0 min 0,000 mm 0,0 UV-I 0 W/m 12,5 C 11,8 C 20,9 km/h (4 Bft) 95,65 %
01.06.2016 22:33 14,3 C 89 % 1010,8 hPa 0,0 l/m 12,9 km/h (3 Bft) SW 233 0 min 0,000 mm 0,0 UV-I 0 W/m 12,5 C 11,1 C 17,7 km/h (3 Bft) 100,00 %
01.06.2016 22:34 14,3 C 89 % 1010,9 hPa 0,0 l/m 13,5 km/h (3 Bft) W-SW 248 0 min 0,000 mm 0,0 UV-I 0 W/m 12,5 C 10,9 C 17,7 km/h (3 Bft) 91,30 %
01.06.2016 22:35 14,3 C 89 % 1010,8 hPa 0,0 l/m 13,1 km/h (3 Bft) SW 221 0 min 0,000 mm 0,0 UV-I 0 W/m 12,5 C 11,0 C 20,9 km/h (4 Bft) 91,67 %
01.06.2016 22:36 14,3 C 89 % 1010,8 hPa 0,0 l/m 14,8 km/h (3 Bft) SW 218 0 min 0,000 mm 0,0 UV-I 0 W/m 12,5 C 10,4 C 19,3 km/h (3 Bft) 95,83 %
01.06.2016 22:37 14,3 C 89 % 1010,8 hPa 0,0 l/m 11,3 km/h (2 Bft) W-NW 290 0 min 0,000 mm 0,0 UV-I 0 W/m 12,5 C 11,8 C 17,7 km/h (3 Bft) 100,00 %
01.06.2016 22:38 14,3 C 89 % 1010,8 hPa 0,0 l/m 13,1 km/h (3 Bft) W-SW 252 0 min 0,000 mm 0,0 UV-I 0 W/m 12,5 C 11,0 C 22,5 km/h (4 Bft) 95,83 %
01.06.2016 22:39 14,3 C 89 % 1010,8 hPa 0,0 l/m 10,6 km/h (2 Bft) SW 231 0 min 0,000 mm 0,0 UV-I 0 W/m 12,5 C 12,1 C 14,5 km/h (3 Bft) 100,00 %
01.06.2016 22:40 14,3 C 89 % 1010,8 hPa 0,0 l/m 12,9 km/h (3 Bft) SW 228 0 min 0,000 mm 0,0 UV-I 0 W/m 12,5 C 11,1 C 19,3 km/h (3 Bft) 95,83 %
01.06.2016 22:41 14,3 C 89 % 1010,8 hPa 0,0 l/m 11,6 km/h (2 Bft) W-SW 244 0 min 0,000 mm 0,0 UV-I 0 W/m 12,5 C 11,6 C 14,5 km/h (3 Bft) 91,30 %
01.06.2016 22:42 14,3 C 89 % 1010,8 hPa 0,0 l/m 14,9 km/h (3 Bft) SW 234 0 min 0,000 mm 0,0 UV-I 0 W/m 12,5 C 10,4 C 17,7 km/h (3 Bft) 100,00 %
01.06.2016 22:43 14,3 C 89 % 1010,8 hPa 0,0 l/m 11,5 km/h (2 Bft) W-SW 253 0 min 0,000 mm 0,0 UV-I 0 W/m 12,5 C 11,7 C 17,7 km/h (3 Bft) 95,65 %
01.06.2016 22:44 14,3 C 89 % 1010,8 hPa 0,0 l/m 15,4 km/h (3 Bft) SW 235 0 min 0,000 mm 0,0 UV-I 0 W/m 12,5 C 10,2 C 25,7 km/h (4 Bft) 95,83 %
01.06.2016 22:45 14,3 C 89 % 1010,8 hPa 0,0 l/m 14,3 km/h (3 Bft) W-SW 258 0 min 0,000 mm 0,0 UV-I 0 W/m 12,5 C 10,6 C 20,9 km/h (4 Bft) 95,65 %
01.06.2016 22:46 14,2 C 89 % 1010,8 hPa 0,0 l/m 15,1 km/h (3 Bft) W-SW 249 0 min 0,000 mm 0,0 UV-I 0 W/m 12,4 C 10,2 C 19,3 km/h (3 Bft) 95,83 %
01.06.2016 22:47 14,3 C 89 % 1010,8 hPa 0,0 l/m 13,5 km/h (3 Bft) W-SW 248 0 min 0,000 mm 0,0 UV-I 0 W/m 12,5 C 10,9 C 19,3 km/h (3 Bft) 100,00 %
01.06.2016 22:48 14,2 C 89 % 1010,8 hPa 0,0 l/m 10,1 km/h (2 Bft) SW 219 0 min 0,000 mm 0,0 UV-I 0 W/m 12,4 C 12,2 C 14,5 km/h (3 Bft) 100,00 %
01.06.2016 22:49 14,2 C 90 % 1010,8 hPa 0,0 l/m 13,2 km/h (3 Bft) SW 221 0 min 0,000 mm 0,0 UV-I 0 W/m 12,6 C 10,9 C 17,7 km/h (3 Bft) 100,00 %
01.06.2016 22:50 14,2 C 90 % 1010,8 hPa 0,0 l/m 16,8 km/h (3 Bft) W 267 0 min 0,000 mm 0,0 UV-I 0 W/m 12,6 C 9,6 C 22,5 km/h (4 Bft) 95,83 %
01.06.2016 22:51 14,2 C 90 % 1010,8 hPa 0,0 l/m 12,7 km/h (3 Bft) SW 225 0 min 0,000 mm 0,0 UV-I 0 W/m 12,6 C 11,1 C 17,7 km/h (3 Bft) 100,00 %
01.06.2016 22:52 14,2 C 90 % 1010,8 hPa 0,0 l/m 9,3 km/h (2 Bft) W-SW 240 0 min 0,000 mm 0,0 UV-I 0 W/m 12,6 C 12,6 C 12,9 km/h (3 Bft) 100,00 %
01.06.2016 22:53 14,2 C 90 % 1010,8 hPa 0,0 l/m 13,3 km/h (3 Bft) SW 234 0 min 0,000 mm 0,0 UV-I 0 W/m 12,6 C 10,8 C 17,7 km/h (3 Bft) 95,65 %
01.06.2016 22:54 14,1 C 90 % 1010,8 hPa 0,0 l/m 12,6 km/h (3 Bft) W-SW 257 0 min 0,000 mm 0,0 UV-I 0 W/m 12,5 C 11,0 C 16,1 km/h (3 Bft) 100,00 %
01.06.2016 22:55 14,1 C 91 % 1010,8 hPa 0,0 l/m 12,1 km/h (2 Bft) W-SW 242 0 min 0,000 mm 0,0 UV-I 0 W/m 12,7 C 11,2 C 19,3 km/h (3 Bft) 100,00 %
01.06.2016 22:56 14,1 C 91 % 1010,8 hPa 0,0 l/m 12,1 km/h (2 Bft) SW 232 0 min 0,000 mm 0,0 UV-I 0 W/m 12,7 C 11,2 C 16,1 km/h (3 Bft) 100,00 %
01.06.2016 22:57 14,1 C 91 % 1010,9 hPa 0,0 l/m 12,2 km/h (2 Bft) W-SW 243 0 min 0,000 mm 0,0 UV-I 0 W/m 12,7 C 11,2 C 16,1 km/h (3 Bft) 100,00 %
01.06.2016 22:58 14,0 C 91 % 1010,8 hPa 0,0 l/m 11,9 km/h (2 Bft) SW 219 0 min 0,000 mm 0,0 UV-I 0 W/m 12,6 C 11,2 C 16,1 km/h (3 Bft) 100,00 %
01.06.2016 22:59 14,0 C 91 % 1010,8 hPa 0,0 l/m 9,2 km/h (2 Bft) W-SW 244 0 min 0,000 mm 0,0 UV-I 0 W/m 12,6 C 12,4 C 12,9 km/h (3 Bft) 100,00 %
01.06.2016 23:00 13,9 C 91 % 1010,8 hPa 0,0 l/m 9,1 km/h (2 Bft) SW 217 0 min 0,000 mm 0,0 UV-I 0 W/m 12,5 C 12,4 C 14,5 km/h (3 Bft) 100,00 %
01.06.2016 23:01 13,9 C 92 % 1010,8 hPa 0,0 l/m 8,2 km/h (2 Bft) W-SW 254 0 min 0,025 mm 0,0 UV-I 0 W/m 12,6 C 12,8 C 12,9 km/h (3 Bft) 100,00 %
01.06.2016 23:02 13,9 C 92 % 1010,8 hPa 0,0 l/m 10,4 km/h (2 Bft) S-SW 211 0 min 0,000 mm 0,0 UV-I 0 W/m 12,6 C 11,7 C 12,9 km/h (3 Bft) 100,00 %
01.06.2016 23:03 13,8 C 92 % 1010,8 hPa 0,0 l/m 9,6 km/h (2 Bft) W-SW 256 0 min 0,000 mm 0,0 UV-I 0 W/m 12,5 C 12,0 C 14,5 km/h (3 Bft) 100,00 %
01.06.2016 23:04 13,8 C 92 % 1010,8 hPa 0,0 l/m 11,3 km/h (2 Bft) S-SW 209 0 min 0,000 mm 0,0 UV-I 0 W/m 12,5 C 11,2 C 16,1 km/h (3 Bft) 95,65 %
01.06.2016 23:05 13,8 C 92 % 1010,9 hPa 0,0 l/m 10,6 km/h (2 Bft) SW 231 0 min 0,000 mm 0,0 UV-I 0 W/m 12,5 C 11,5 C 12,9 km/h (3 Bft) 100,00 %
01.06.2016 23:06 13,8 C 92 % 1010,9 hPa 0,0 l/m 9,4 km/h (2 Bft) SW 225 0 min 0,000 mm 0,0 UV-I 0 W/m 12,5 C 12,1 C 12,9 km/h (3 Bft) 100,00 %
01.06.2016 23:07 13,8 C 92 % 1010,9 hPa 0,0 l/m 12,5 km/h (3 Bft) S-SW 202 0 min 0,000 mm 0,0 UV-I 0 W/m 12,5 C 10,7 C 19,3 km/h (3 Bft) 97,22 %
01.06.2016 23:08 13,8 C 92 % 1010,9 hPa 0,0 l/m 9,6 km/h (2 Bft) W-SW 244 0 min 0,000 mm 0,0 UV-I 0 W/m 12,5 C 12,0 C 14,5 km/h (3 Bft) 100,00 %
01.06.2016 23:09 13,7 C 92 % 1010,9 hPa 0,0 l/m 11,8 km/h (2 Bft) SW 234 0 min 0,000 mm 0,0 UV-I 0 W/m 12,4 C 10,9 C 16,1 km/h (3 Bft) 100,00 %
01.06.2016 23:10 13,7 C 93 % 1010,9 hPa 0,0 l/m 13,5 km/h (3 Bft) S-SW 208 0 min 0,000 mm 0,0 UV-I 0 W/m 12,6 C 10,2 C 19,3 km/h (3 Bft) 100,00 %
01.06.2016 23:11 13,7 C 93 % 1010,9 hPa 0,0 l/m 13,8 km/h (3 Bft) SW 235 0 min 0,000 mm 0,0 UV-I 0 W/m 12,6 C 10,1 C 19,3 km/h (3 Bft) 100,00 %
01.06.2016 23:12 13,7 C 93 % 1010,9 hPa 0,0 l/m 8,2 km/h (2 Bft) SW 219 0 min 0,000 mm 0,0 UV-I 0 W/m 12,6 C 12,6 C 12,9 km/h (3 Bft) 100,00 %
01.06.2016 23:13 13,7 C 93 % 1010,9 hPa 0,0 l/m 10,5 km/h (2 Bft) SW 225 0 min 0,000 mm 0,0 UV-I 0 W/m 12,6 C 11,4 C 16,1 km/h (3 Bft) 95,83 %
01.06.2016 23:14 13,7 C 93 % 1010,9 hPa 0,0 l/m 9,0 km/h (2 Bft) SW 232 0 min 0,000 mm 0,0 UV-I 0 W/m 12,6 C 12,2 C 14,5 km/h (3 Bft) 100,00 %
01.06.2016 23:15 13,7 C 93 % 1010,9 hPa 0,0 l/m 9,7 km/h (2 Bft) W-SW 248 0 min 0,000 mm 0,0 UV-I 0 W/m 12,6 C 11,8 C 12,9 km/h (3 Bft) 100,00 %
01.06.2016 23:16 13,6 C 93 % 1010,9 hPa 0,0 l/m 10,0 km/h (2 Bft) SW 232 0 min 0,000 mm 0,0 UV-I 0 W/m 12,5 C 11,6 C 14,5 km/h (3 Bft) 100,00 %
01.06.2016 23:17 13,6 C 93 % 1010,8 hPa 0,0 l/m 8,7 km/h (2 Bft) SW 232 0 min 0,000 mm 0,0 UV-I 0 W/m 12,5 C 12,2 C 12,9 km/h (3 Bft) 100,00 %
01.06.2016 23:18 13,6 C 93 % 1010,8 hPa 0,0 l/m 9,8 km/h (2 Bft) SW 234 0 min 0,000 mm 0,0 UV-I 0 W/m 12,5 C 11,7 C 16,1 km/h (3 Bft) 100,00 %
01.06.2016 23:19 13,6 C 93 % 1010,8 hPa 0,0 l/m 9,3 km/h (2 Bft) W 262 0 min 0,000 mm 0,0 UV-I 0 W/m 12,5 C 11,9 C 12,9 km/h (3 Bft) 100,00 %
01.06.2016 23:20 13,6 C 93 % 1010,9 hPa 0,0 l/m 9,7 km/h (2 Bft) SW 224 0 min 0,000 mm 0,0 UV-I 0 W/m 12,5 C 11,7 C 16,1 km/h (3 Bft) 100,00 %
01.06.2016 23:21 13,6 C 93 % 1010,8 hPa 0,0 l/m 6,4 km/h (2 Bft) S-SW 209 0 min 0,000 mm 0,0 UV-I 0 W/m 12,5 C 13,6 C 11,3 km/h (2 Bft) 95,65 %
01.06.2016 23:22 13,6 C 93 % 1010,9 hPa 0,0 l/m 9,5 km/h (2 Bft) SW 223 0 min 0,000 mm 0,0 UV-I 0 W/m 12,5 C 11,8 C 14,5 km/h (3 Bft) 95,83 %
01.06.2016 23:23 13,6 C 93 % 1010,9 hPa 0,0 l/m 8,1 km/h (2 Bft) S-SW 198 0 min 0,000 mm 0,0 UV-I 0 W/m 12,5 C 12,6 C 12,9 km/h (3 Bft) 100,00 %
01.06.2016 23:24 13,6 C 93 % 1010,9 hPa 0,0 l/m 7,2 km/h (2 Bft) W-SW 238 0 min 0,000 mm 0,0 UV-I 0 W/m 12,5 C 13,1 C 8,0 km/h (2 Bft) 100,00 %
01.06.2016 23:25 13,6 C 93 % 1010,9 hPa 0,0 l/m 6,6 km/h (2 Bft) SW 225 0 min 0,000 mm 0,0 UV-I 0 W/m 12,5 C 13,5 C 8,0 km/h (2 Bft) 100,00 %
01.06.2016 23:26 13,6 C 93 % 1010,9 hPa 0,0 l/m 5,2 km/h (1 Bft) SW 227 0 min 0,000 mm 0,0 UV-I 0 W/m 12,5 C 13,6 C 8,0 km/h (2 Bft) 100,00 %
01.06.2016 23:27 13,6 C 93 % 1010,9 hPa 0,0 l/m 6,7 km/h (2 Bft) SW 231 0 min 0,000 mm 0,0 UV-I 0 W/m 12,5 C 13,4 C 8,0 km/h (2 Bft) 100,00 %
01.06.2016 23:28 13,6 C 93 % 1010,9 hPa 0,0 l/m 8,1 km/h (2 Bft) W-SW 239 0 min 0,000 mm 0,0 UV-I 0 W/m 12,5 C 12,6 C 11,3 km/h (2 Bft) 100,00 %
01.06.2016 23:29 13,6 C 93 % 1010,9 hPa 0,0 l/m 8,9 km/h (2 Bft) W-SW 245 0 min 0,000 mm 0,0 UV-I 0 W/m 12,5 C 12,1 C 11,3 km/h (2 Bft) 100,00 %
01.06.2016 23:30 13,6 C 93 % 1010,9 hPa 0,0 l/m 9,6 km/h (2 Bft) S-SW 213 0 min 0,000 mm 0,0 UV-I 0 W/m 12,5 C 11,8 C 12,9 km/h (3 Bft) 100,00 %
01.06.2016 23:31 13,6 C 93 % 1010,9 hPa 0,0 l/m 9,2 km/h (2 Bft) W-SW 242 0 min 0,000 mm 0,0 UV-I 0 W/m 12,5 C 12,0 C 14,5 km/h (3 Bft) 100,00 %
01.06.2016 23:32 13,6 C 93 % 1010,9 hPa 0,0 l/m 9,0 km/h (2 Bft) SW 221 0 min 0,000 mm 0,0 UV-I 0 W/m 12,5 C 12,1 C 12,9 km/h (3 Bft) 100,00 %
01.06.2016 23:33 13,5 C 93 % 1010,9 hPa 0,0 l/m 7,7 km/h (2 Bft) SW 229 0 min 0,000 mm 0,0 UV-I 0 W/m 12,4 C 12,7 C 9,7 km/h (2 Bft) 100,00 %
01.06.2016 23:34 13,5 C 93 % 1010,9 hPa 0,0 l/m 9,7 km/h (2 Bft) SW 232 0 min 0,000 mm 0,0 UV-I 0 W/m 12,4 C 11,6 C 14,5 km/h (3 Bft) 95,83 %
01.06.2016 23:35 13,5 C 93 % 1010,9 hPa 0,0 l/m 7,0 km/h (2 Bft) SW 230 0 min 0,000 mm 0,0 UV-I 0 W/m 12,4 C 13,1 C 9,7 km/h (2 Bft) 100,00 %
01.06.2016 23:36 13,5 C 93 % 1010,9 hPa 0,0 l/m 8,0 km/h (2 Bft) W-SW 238 0 min 0,000 mm 0,0 UV-I 0 W/m 12,4 C 12,5 C 9,7 km/h (2 Bft) 100,00 %
01.06.2016 23:37 13,5 C 93 % 1010,9 hPa 0,0 l/m 7,8 km/h (2 Bft) SW 235 0 min 0,000 mm 0,0 UV-I 0 W/m 12,4 C 12,6 C 11,3 km/h (2 Bft) 95,83 %
01.06.2016 23:38 13,5 C 93 % 1010,9 hPa 0,0 l/m 8,4 km/h (2 Bft) W-SW 240 0 min 0,000 mm 0,0 UV-I 0 W/m 12,4 C 12,3 C 12,9 km/h (3 Bft) 91,30 %
01.06.2016 23:39 13,5 C 93 % 1010,9 hPa 0,0 l/m 8,3 km/h (2 Bft) SW 235 0 min 0,000 mm 0,0 UV-I 0 W/m 12,4 C 12,4 C 12,9 km/h (3 Bft) 100,00 %
01.06.2016 23:40 13,5 C 93 % 1010,9 hPa 0,0 l/m 7,2 km/h (2 Bft) SW 233 0 min 0,000 mm 0,0 UV-I 0 W/m 12,4 C 13,0 C 9,7 km/h (2 Bft) 100,00 %
01.06.2016 23:41 13,5 C 93 % 1010,9 hPa 0,0 l/m 7,6 km/h (2 Bft) W-SW 238 0 min 0,000 mm 0,0 UV-I 0 W/m 12,4 C 12,8 C 11,3 km/h (2 Bft) 95,83 %
01.06.2016 23:42 13,5 C 93 % 1010,9 hPa 0,0 l/m 9,3 km/h (2 Bft) W-SW 242 0 min 0,000 mm 0,0 UV-I 0 W/m 12,4 C 11,8 C 12,9 km/h (3 Bft) 100,00 %
01.06.2016 23:43 13,5 C 94 % 1010,9 hPa 0,0 l/m 8,7 km/h (2 Bft) SW 227 0 min 0,000 mm 0,0 UV-I 0 W/m 12,6 C 12,1 C 12,9 km/h (3 Bft) 100,00 %
01.06.2016 23:44 13,5 C 94 % 1010,9 hPa 0,0 l/m 4,8 km/h (1 Bft) S-SW 203 0 min 0,000 mm 0,0 UV-I 0 W/m 12,6 C 13,5 C 8,0 km/h (2 Bft) 100,00 %
01.06.2016 23:45 13,4 C 94 % 1010,9 hPa 0,0 l/m 9,0 km/h (2 Bft) SW 226 0 min 0,000 mm 0,0 UV-I 0 W/m 12,5 C 11,9 C 14,5 km/h (3 Bft) 95,83 %
01.06.2016 23:46 13,4 C 94 % 1010,9 hPa 0,0 l/m 7,2 km/h (2 Bft) S-SW 203 0 min 0,000 mm 0,0 UV-I 0 W/m 12,5 C 12,9 C 9,7 km/h (2 Bft) 100,00 %
01.06.2016 23:47 13,4 C 94 % 1010,9 hPa 0,0 l/m 6,7 km/h (2 Bft) S-SW 211 0 min 0,000 mm 0,0 UV-I 0 W/m 12,5 C 13,2 C 9,7 km/h (2 Bft) 95,83 %
01.06.2016 23:48 13,4 C 94 % 1010,9 hPa 0,0 l/m 5,6 km/h (1 Bft) S-SW 206 0 min 0,000 mm 0,0 UV-I 0 W/m 12,5 C 13,4 C 9,7 km/h (2 Bft) 100,00 %
01.06.2016 23:49 13,4 C 94 % 1010,9 hPa 0,0 l/m 4,2 km/h (1 Bft) S 183 0 min 0,000 mm 0,0 UV-I 0 W/m 12,5 C 13,4 C 8,0 km/h (2 Bft) 100,00 %
01.06.2016 23:50 13,4 C 94 % 1010,9 hPa 0,0 l/m 7,5 km/h (2 Bft) SW 227 0 min 0,000 mm 0,0 UV-I 0 W/m 12,5 C 12,7 C 11,3 km/h (2 Bft) 100,00 %
01.06.2016 23:51 13,4 C 94 % 1010,9 hPa 0,0 l/m 5,7 km/h (1 Bft) SW 221 0 min 0,000 mm 0,0 UV-I 0 W/m 12,5 C 13,4 C 11,3 km/h (2 Bft) 100,00 %
01.06.2016 23:52 13,4 C 94 % 1010,9 hPa 0,0 l/m 9,4 km/h (2 Bft) W-SW 257 0 min 0,000 mm 0,0 UV-I 0 W/m 12,5 C 11,7 C 12,9 km/h (3 Bft) 95,65 %
01.06.2016 23:53 13,5 C 94 % 1010,9 hPa 0,0 l/m 8,0 km/h (2 Bft) W-SW 241 0 min 0,000 mm 0,0 UV-I 0 W/m 12,6 C 12,5 C 11,3 km/h (2 Bft) 95,83 %
01.06.2016 23:54 13,5 C 94 % 1011,0 hPa 0,0 l/m 5,8 km/h (2 Bft) S-SW 203 0 min 0,000 mm 0,0 UV-I 0 W/m 12,6 C 13,5 C 8,0 km/h (2 Bft) 100,00 %
01.06.2016 23:55 13,5 C 94 % 1010,9 hPa 0,0 l/m 4,8 km/h (1 Bft) SW 235 0 min 0,000 mm 0,0 UV-I 0 W/m 12,6 C 13,5 C 6,4 km/h (2 Bft) 100,00 %
01.06.2016 23:56 13,4 C 94 % 1011,0 hPa 0,0 l/m 5,2 km/h (1 Bft) W-SW 241 0 min 0,000 mm 0,0 UV-I 0 W/m 12,5 C 13,4 C 6,4 km/h (2 Bft) 95,83 %
01.06.2016 23:57 13,4 C 94 % 1010,9 hPa 0,0 l/m 5,9 km/h (2 Bft) SW 225 0 min 0,000 mm 0,0 UV-I 0 W/m 12,5 C 13,4 C 9,7 km/h (2 Bft) 100,00 %
01.06.2016 23:58 13,5 C 94 % 1010,9 hPa 0,0 l/m 3,4 km/h (1 Bft) W-SW 248 0 min 0,000 mm 0,0 UV-I 0 W/m 12,6 C 13,5 C 4,8 km/h (1 Bft) 100,00 %
01.06.2016 23:59 13,4 C 94 % 1011,0 hPa 0,0 l/m 5,9 km/h (2 Bft) SW 234 0 min 0,000 mm 0,0 UV-I 0 W/m 12,5 C 13,4 C 8,0 km/h (2 Bft) 100,00 %
_ Min-Zeit 02:23 16:28 04:48 - 01:02 - - - - - - 00:45 05:18 00:08 04:24
Minimum _ 12,4 C 75 % 1010,0 hPa - 0,1 km/h (0 Bft) - - - - - - 11,7 C 7,7 C 1,6 km/h (1 Bft) 85,71 %
_ Max-Zeit 16:23 03:28 11:53 00:16 13:31 - - 12:31 13:00 12:51 13:16 13:40 17:01 10:40 00:02
Maximum _ 17,4 C 97 % 1011,4 hPa 0,2 l/m 21,1 km/h
SW (4 Bft)
- - 1 min 0,254 mm 4,2 UV-I 582 W/m 14,1 C 17,2 C 29,0 km/h
W-SW (5 Bft)
100,00 %
Durchschnitt _ 14,4 C 89 % 1010,8 hPa #7,2 l/m 8,9 km/h (2 Bft) W-SW - #1:15 h #1,676 mm 1,5 UV-I 165 W/m 12,5 C 12,9 C 13,3 km/h (3 Bft) 98,34 %